<?xml version="1.0" encoding="UTF-8" standalone="no" ?>
<gpx xmlns="http://www.topografix.com/GPX/1/1" xmlns:xsi="http://www.w3.org/2001/XMLSchema-instance" xsi:schemaLocation="http://www.topografix.com/GPX/1/1 http://www.topografix.com/GPX/1/1/gpx.xsd" version="1.1" creator="VisuGPX - https://www.visugpx.com">
  <metadata>
    <name>Haute Cîme</name>
    <desc><![CDATA[Champéry Haute-Cîme et retour, en passant par le Col de Susanfe.]]></desc>
  </metadata>
  <trk>
    <name><![CDATA[Champéry Course à pied]]></name>
    <trkseg>
      <trkpt lat="46.17465" lon="6.87015">
        <ele>1036.8000488281</ele>
        <time>2017-10-12T07:27:58.000Z</time>
      </trkpt>
      <trkpt lat="46.17442" lon="6.87017">
        <ele>1036.1999511719</ele>
        <time>2017-10-12T07:28:11.000Z</time>
      </trkpt>
      <trkpt lat="46.17425" lon="6.87009">
        <ele>1036</ele>
        <time>2017-10-12T07:28:23.000Z</time>
      </trkpt>
      <trkpt lat="46.17411" lon="6.87005">
        <ele>1035.8000488281</ele>
        <time>2017-10-12T07:28:36.000Z</time>
      </trkpt>
      <trkpt lat="46.17392" lon="6.86998">
        <ele>1035.8000488281</ele>
        <time>2017-10-12T07:28:49.000Z</time>
      </trkpt>
      <trkpt lat="46.17374" lon="6.86988">
        <ele>1034.4000244141</ele>
        <time>2017-10-12T07:29:02.000Z</time>
      </trkpt>
      <trkpt lat="46.17355" lon="6.8698">
        <ele>1033.4000244141</ele>
        <time>2017-10-12T07:29:13.000Z</time>
      </trkpt>
      <trkpt lat="46.17335" lon="6.86971">
        <ele>1032.5999755859</ele>
        <time>2017-10-12T07:29:20.000Z</time>
      </trkpt>
      <trkpt lat="46.17317" lon="6.86965">
        <ele>1031.5999755859</ele>
        <time>2017-10-12T07:29:27.000Z</time>
      </trkpt>
      <trkpt lat="46.17297" lon="6.86956">
        <ele>1030.5999755859</ele>
        <time>2017-10-12T07:29:35.000Z</time>
      </trkpt>
      <trkpt lat="46.17278" lon="6.86948">
        <ele>1029.5999755859</ele>
        <time>2017-10-12T07:29:43.000Z</time>
      </trkpt>
      <trkpt lat="46.17258" lon="6.86941">
        <ele>1028.5999755859</ele>
        <time>2017-10-12T07:29:51.000Z</time>
      </trkpt>
      <trkpt lat="46.17241" lon="6.86929">
        <ele>1028.1999511719</ele>
        <time>2017-10-12T07:29:59.000Z</time>
      </trkpt>
      <trkpt lat="46.17224" lon="6.86915">
        <ele>1027.8000488281</ele>
        <time>2017-10-12T07:30:07.000Z</time>
      </trkpt>
      <trkpt lat="46.17212" lon="6.86894">
        <ele>1028</ele>
        <time>2017-10-12T07:30:14.000Z</time>
      </trkpt>
      <trkpt lat="46.17196" lon="6.86879">
        <ele>1027.1999511719</ele>
        <time>2017-10-12T07:30:22.000Z</time>
      </trkpt>
      <trkpt lat="46.17179" lon="6.86863">
        <ele>1026.4000244141</ele>
        <time>2017-10-12T07:30:30.000Z</time>
      </trkpt>
      <trkpt lat="46.17166" lon="6.86842">
        <ele>1026.1999511719</ele>
        <time>2017-10-12T07:30:38.000Z</time>
      </trkpt>
      <trkpt lat="46.17153" lon="6.86823">
        <ele>1025.8000488281</ele>
        <time>2017-10-12T07:30:45.000Z</time>
      </trkpt>
      <trkpt lat="46.17139" lon="6.86803">
        <ele>1025.4000244141</ele>
        <time>2017-10-12T07:30:53.000Z</time>
      </trkpt>
      <trkpt lat="46.17125" lon="6.86784">
        <ele>1025</ele>
        <time>2017-10-12T07:31:01.000Z</time>
      </trkpt>
      <trkpt lat="46.17111" lon="6.86766">
        <ele>1024.4000244141</ele>
        <time>2017-10-12T07:31:08.000Z</time>
      </trkpt>
      <trkpt lat="46.17098" lon="6.86749">
        <ele>1023.799987793</ele>
        <time>2017-10-12T07:31:15.000Z</time>
      </trkpt>
      <trkpt lat="46.17084" lon="6.86732">
        <ele>1023.799987793</ele>
        <time>2017-10-12T07:31:22.000Z</time>
      </trkpt>
      <trkpt lat="46.17067" lon="6.86714">
        <ele>1024.5999755859</ele>
        <time>2017-10-12T07:31:30.000Z</time>
      </trkpt>
      <trkpt lat="46.17051" lon="6.86696">
        <ele>1025.1999511719</ele>
        <time>2017-10-12T07:31:38.000Z</time>
      </trkpt>
      <trkpt lat="46.17036" lon="6.86678">
        <ele>1025.5999755859</ele>
        <time>2017-10-12T07:31:46.000Z</time>
      </trkpt>
      <trkpt lat="46.17021" lon="6.86662">
        <ele>1025.8000488281</ele>
        <time>2017-10-12T07:31:53.000Z</time>
      </trkpt>
      <trkpt lat="46.17006" lon="6.86645">
        <ele>1025.8000488281</ele>
        <time>2017-10-12T07:32:00.000Z</time>
      </trkpt>
      <trkpt lat="46.16992" lon="6.86629">
        <ele>1025.4000244141</ele>
        <time>2017-10-12T07:32:07.000Z</time>
      </trkpt>
      <trkpt lat="46.16978" lon="6.86612">
        <ele>1025.4000244141</ele>
        <time>2017-10-12T07:32:14.000Z</time>
      </trkpt>
      <trkpt lat="46.16963" lon="6.86596">
        <ele>1025.1999511719</ele>
        <time>2017-10-12T07:32:21.000Z</time>
      </trkpt>
      <trkpt lat="46.1695" lon="6.86579">
        <ele>1025.5999755859</ele>
        <time>2017-10-12T07:32:28.000Z</time>
      </trkpt>
      <trkpt lat="46.16937" lon="6.8656">
        <ele>1024.8000488281</ele>
        <time>2017-10-12T07:32:35.000Z</time>
      </trkpt>
      <trkpt lat="46.16925" lon="6.86539">
        <ele>1023.799987793</ele>
        <time>2017-10-12T07:32:42.000Z</time>
      </trkpt>
      <trkpt lat="46.16914" lon="6.86518">
        <ele>1022.799987793</ele>
        <time>2017-10-12T07:32:49.000Z</time>
      </trkpt>
      <trkpt lat="46.16903" lon="6.86495">
        <ele>1022</ele>
        <time>2017-10-12T07:32:56.000Z</time>
      </trkpt>
      <trkpt lat="46.16891" lon="6.86471">
        <ele>1021.799987793</ele>
        <time>2017-10-12T07:33:04.000Z</time>
      </trkpt>
      <trkpt lat="46.16882" lon="6.86449">
        <ele>1022.5999755859</ele>
        <time>2017-10-12T07:33:11.000Z</time>
      </trkpt>
      <trkpt lat="46.16872" lon="6.86423">
        <ele>1023.5999755859</ele>
        <time>2017-10-12T07:33:19.000Z</time>
      </trkpt>
      <trkpt lat="46.16863" lon="6.86397">
        <ele>1024.4000244141</ele>
        <time>2017-10-12T07:33:27.000Z</time>
      </trkpt>
      <trkpt lat="46.16857" lon="6.86372">
        <ele>1024.5999755859</ele>
        <time>2017-10-12T07:33:34.000Z</time>
      </trkpt>
      <trkpt lat="46.16848" lon="6.86347">
        <ele>1028.1999511719</ele>
        <time>2017-10-12T07:33:42.000Z</time>
      </trkpt>
      <trkpt lat="46.16842" lon="6.86321">
        <ele>1033.8000488281</ele>
        <time>2017-10-12T07:33:52.000Z</time>
      </trkpt>
      <trkpt lat="46.16831" lon="6.86301">
        <ele>1037.1999511719</ele>
        <time>2017-10-12T07:34:02.000Z</time>
      </trkpt>
      <trkpt lat="46.16817" lon="6.86282">
        <ele>1039.1999511719</ele>
        <time>2017-10-12T07:34:12.000Z</time>
      </trkpt>
      <trkpt lat="46.16809" lon="6.86272">
        <ele>1040.1999511719</ele>
        <time>2017-10-12T07:34:21.000Z</time>
      </trkpt>
      <trkpt lat="46.16797" lon="6.86252">
        <ele>1044.5999755859</ele>
        <time>2017-10-12T07:34:41.000Z</time>
      </trkpt>
      <trkpt lat="46.16781" lon="6.8624">
        <ele>1045.5999755859</ele>
        <time>2017-10-12T07:34:55.000Z</time>
      </trkpt>
      <trkpt lat="46.16763" lon="6.86239">
        <ele>1042.4000244141</ele>
        <time>2017-10-12T07:35:08.000Z</time>
      </trkpt>
      <trkpt lat="46.16746" lon="6.86225">
        <ele>1045.5999755859</ele>
        <time>2017-10-12T07:35:21.000Z</time>
      </trkpt>
      <trkpt lat="46.16729" lon="6.86216">
        <ele>1046.5999755859</ele>
        <time>2017-10-12T07:35:34.000Z</time>
      </trkpt>
      <trkpt lat="46.16713" lon="6.86203">
        <ele>1050.1999511719</ele>
        <time>2017-10-12T07:35:46.000Z</time>
      </trkpt>
      <trkpt lat="46.16699" lon="6.86184">
        <ele>1057.4000244141</ele>
        <time>2017-10-12T07:36:00.000Z</time>
      </trkpt>
      <trkpt lat="46.16688" lon="6.86163">
        <ele>1066</ele>
        <time>2017-10-12T07:36:15.000Z</time>
      </trkpt>
      <trkpt lat="46.16687" lon="6.86161">
        <ele>1066.5999755859</ele>
        <time>2017-10-12T07:36:17.000Z</time>
      </trkpt>
      <trkpt lat="46.16684" lon="6.86157">
        <ele>1068.1999511719</ele>
        <time>2017-10-12T07:36:21.000Z</time>
      </trkpt>
      <trkpt lat="46.16675" lon="6.86133">
        <ele>1072.4000244141</ele>
        <time>2017-10-12T07:36:32.000Z</time>
      </trkpt>
      <trkpt lat="46.16662" lon="6.86117">
        <ele>1074</ele>
        <time>2017-10-12T07:36:44.000Z</time>
      </trkpt>
      <trkpt lat="46.16647" lon="6.86131">
        <ele>1068.8000488281</ele>
        <time>2017-10-12T07:36:55.000Z</time>
      </trkpt>
      <trkpt lat="46.1663" lon="6.86142">
        <ele>1064.1999511719</ele>
        <time>2017-10-12T07:37:07.000Z</time>
      </trkpt>
      <trkpt lat="46.16612" lon="6.86145">
        <ele>1067.1999511719</ele>
        <time>2017-10-12T07:37:18.000Z</time>
      </trkpt>
      <trkpt lat="46.16596" lon="6.86136">
        <ele>1069.1999511719</ele>
        <time>2017-10-12T07:37:30.000Z</time>
      </trkpt>
      <trkpt lat="46.16582" lon="6.86118">
        <ele>1070</ele>
        <time>2017-10-12T07:37:43.000Z</time>
      </trkpt>
      <trkpt lat="46.16566" lon="6.86103">
        <ele>1071.4000244141</ele>
        <time>2017-10-12T07:37:56.000Z</time>
      </trkpt>
      <trkpt lat="46.16549" lon="6.86106">
        <ele>1072.1999511719</ele>
        <time>2017-10-12T07:38:05.000Z</time>
      </trkpt>
      <trkpt lat="46.1653" lon="6.86105">
        <ele>1072</ele>
        <time>2017-10-12T07:38:16.000Z</time>
      </trkpt>
      <trkpt lat="46.16513" lon="6.86095">
        <ele>1071</ele>
        <time>2017-10-12T07:38:26.000Z</time>
      </trkpt>
      <trkpt lat="46.16496" lon="6.86083">
        <ele>1070</ele>
        <time>2017-10-12T07:38:33.000Z</time>
      </trkpt>
      <trkpt lat="46.16476" lon="6.86076">
        <ele>1069.8000488281</ele>
        <time>2017-10-12T07:38:40.000Z</time>
      </trkpt>
      <trkpt lat="46.16457" lon="6.86079">
        <ele>1069.1999511719</ele>
        <time>2017-10-12T07:38:46.000Z</time>
      </trkpt>
      <trkpt lat="46.16437" lon="6.86084">
        <ele>1069.4000244141</ele>
        <time>2017-10-12T07:38:53.000Z</time>
      </trkpt>
      <trkpt lat="46.16418" lon="6.86086">
        <ele>1068.8000488281</ele>
        <time>2017-10-12T07:39:00.000Z</time>
      </trkpt>
      <trkpt lat="46.16401" lon="6.8609">
        <ele>1067.1999511719</ele>
        <time>2017-10-12T07:39:07.000Z</time>
      </trkpt>
      <trkpt lat="46.16384" lon="6.86105">
        <ele>1067.1999511719</ele>
        <time>2017-10-12T07:39:14.000Z</time>
      </trkpt>
      <trkpt lat="46.16368" lon="6.86119">
        <ele>1068</ele>
        <time>2017-10-12T07:39:25.000Z</time>
      </trkpt>
      <trkpt lat="46.16351" lon="6.86109">
        <ele>1066.4000244141</ele>
        <time>2017-10-12T07:39:37.000Z</time>
      </trkpt>
      <trkpt lat="46.16338" lon="6.86092">
        <ele>1064</ele>
        <time>2017-10-12T07:39:49.000Z</time>
      </trkpt>
      <trkpt lat="46.16325" lon="6.86107">
        <ele>1063.1999511719</ele>
        <time>2017-10-12T07:40:02.000Z</time>
      </trkpt>
      <trkpt lat="46.16317" lon="6.86121">
        <ele>1062.4000244141</ele>
        <time>2017-10-12T07:40:14.000Z</time>
      </trkpt>
      <trkpt lat="46.16317" lon="6.86119">
        <ele>1062.4000244141</ele>
        <time>2017-10-12T07:40:19.000Z</time>
      </trkpt>
      <trkpt lat="46.16316" lon="6.8612">
        <ele>1062.1999511719</ele>
        <time>2017-10-12T07:40:24.000Z</time>
      </trkpt>
      <trkpt lat="46.16316" lon="6.86121">
        <ele>1062.1999511719</ele>
        <time>2017-10-12T07:40:27.000Z</time>
      </trkpt>
      <trkpt lat="46.16313" lon="6.86112">
        <ele>1061.5999755859</ele>
        <time>2017-10-12T07:41:00.000Z</time>
      </trkpt>
      <trkpt lat="46.16301" lon="6.86107">
        <ele>1061.5999755859</ele>
        <time>2017-10-12T07:41:10.000Z</time>
      </trkpt>
      <trkpt lat="46.16303" lon="6.86112">
        <ele>1061.5999755859</ele>
        <time>2017-10-12T07:41:15.000Z</time>
      </trkpt>
      <trkpt lat="46.16313" lon="6.86126">
        <ele>1061.8000488281</ele>
        <time>2017-10-12T07:41:29.000Z</time>
      </trkpt>
      <trkpt lat="46.16314" lon="6.86126">
        <ele>1062</ele>
        <time>2017-10-12T07:41:31.000Z</time>
      </trkpt>
      <trkpt lat="46.16297" lon="6.86114">
        <ele>1061.8000488281</ele>
        <time>2017-10-12T07:41:50.000Z</time>
      </trkpt>
      <trkpt lat="46.16282" lon="6.86102">
        <ele>1062</ele>
        <time>2017-10-12T07:42:01.000Z</time>
      </trkpt>
      <trkpt lat="46.16266" lon="6.86088">
        <ele>1062.1999511719</ele>
        <time>2017-10-12T07:42:09.000Z</time>
      </trkpt>
      <trkpt lat="46.1625" lon="6.8607">
        <ele>1062.5999755859</ele>
        <time>2017-10-12T07:42:17.000Z</time>
      </trkpt>
      <trkpt lat="46.16235" lon="6.86052">
        <ele>1063.5999755859</ele>
        <time>2017-10-12T07:42:25.000Z</time>
      </trkpt>
      <trkpt lat="46.16222" lon="6.86033">
        <ele>1064.5999755859</ele>
        <time>2017-10-12T07:42:32.000Z</time>
      </trkpt>
      <trkpt lat="46.16208" lon="6.86013">
        <ele>1065.5999755859</ele>
        <time>2017-10-12T07:42:40.000Z</time>
      </trkpt>
      <trkpt lat="46.16194" lon="6.85994">
        <ele>1066.5999755859</ele>
        <time>2017-10-12T07:42:50.000Z</time>
      </trkpt>
      <trkpt lat="46.16184" lon="6.85971">
        <ele>1068</ele>
        <time>2017-10-12T07:43:04.000Z</time>
      </trkpt>
      <trkpt lat="46.16183" lon="6.85965">
        <ele>1068.1999511719</ele>
        <time>2017-10-12T07:43:08.000Z</time>
      </trkpt>
      <trkpt lat="46.16175" lon="6.85939">
        <ele>1069.5999755859</ele>
        <time>2017-10-12T07:43:18.000Z</time>
      </trkpt>
      <trkpt lat="46.16167" lon="6.85914">
        <ele>1071</ele>
        <time>2017-10-12T07:43:32.000Z</time>
      </trkpt>
      <trkpt lat="46.16165" lon="6.85906">
        <ele>1071.5999755859</ele>
        <time>2017-10-12T07:43:38.000Z</time>
      </trkpt>
      <trkpt lat="46.16157" lon="6.85883">
        <ele>1073.4000244141</ele>
        <time>2017-10-12T07:43:58.000Z</time>
      </trkpt>
      <trkpt lat="46.16142" lon="6.85868">
        <ele>1075.1999511719</ele>
        <time>2017-10-12T07:44:10.000Z</time>
      </trkpt>
      <trkpt lat="46.16127" lon="6.85852">
        <ele>1079.1999511719</ele>
        <time>2017-10-12T07:44:22.000Z</time>
      </trkpt>
      <trkpt lat="46.16112" lon="6.85836">
        <ele>1083.1999511719</ele>
        <time>2017-10-12T07:44:34.000Z</time>
      </trkpt>
      <trkpt lat="46.16097" lon="6.85818">
        <ele>1087.4000244141</ele>
        <time>2017-10-12T07:44:46.000Z</time>
      </trkpt>
      <trkpt lat="46.16083" lon="6.85803">
        <ele>1091.8000488281</ele>
        <time>2017-10-12T07:44:59.000Z</time>
      </trkpt>
      <trkpt lat="46.16067" lon="6.85787">
        <ele>1096.1999511719</ele>
        <time>2017-10-12T07:45:14.000Z</time>
      </trkpt>
      <trkpt lat="46.16051" lon="6.85774">
        <ele>1101.4000244141</ele>
        <time>2017-10-12T07:45:30.000Z</time>
      </trkpt>
      <trkpt lat="46.16042" lon="6.85766">
        <ele>1104.5999755859</ele>
        <time>2017-10-12T07:45:38.000Z</time>
      </trkpt>
      <trkpt lat="46.16025" lon="6.85753">
        <ele>1110.5999755859</ele>
        <time>2017-10-12T07:45:55.000Z</time>
      </trkpt>
      <trkpt lat="46.16012" lon="6.85736">
        <ele>1115.4000244141</ele>
        <time>2017-10-12T07:46:15.000Z</time>
      </trkpt>
      <trkpt lat="46.16002" lon="6.8572">
        <ele>1117.1999511719</ele>
        <time>2017-10-12T07:46:27.000Z</time>
      </trkpt>
      <trkpt lat="46.16001" lon="6.85695">
        <ele>1116</ele>
        <time>2017-10-12T07:46:40.000Z</time>
      </trkpt>
      <trkpt lat="46.15994" lon="6.8567">
        <ele>1116.5999755859</ele>
        <time>2017-10-12T07:46:52.000Z</time>
      </trkpt>
      <trkpt lat="46.15992" lon="6.85668">
        <ele>1117</ele>
        <time>2017-10-12T07:46:55.000Z</time>
      </trkpt>
      <trkpt lat="46.15992" lon="6.85671">
        <ele>1117</ele>
        <time>2017-10-12T07:46:58.000Z</time>
      </trkpt>
      <trkpt lat="46.15987" lon="6.85698">
        <ele>1120</ele>
        <time>2017-10-12T07:47:11.000Z</time>
      </trkpt>
      <trkpt lat="46.15983" lon="6.85723">
        <ele>1122.5999755859</ele>
        <time>2017-10-12T07:47:23.000Z</time>
      </trkpt>
      <trkpt lat="46.15979" lon="6.85747">
        <ele>1125</ele>
        <time>2017-10-12T07:47:36.000Z</time>
      </trkpt>
      <trkpt lat="46.15973" lon="6.85756">
        <ele>1127.8000488281</ele>
        <time>2017-10-12T07:47:46.000Z</time>
      </trkpt>
      <trkpt lat="46.15971" lon="6.85758">
        <ele>1129</ele>
        <time>2017-10-12T07:47:50.000Z</time>
      </trkpt>
      <trkpt lat="46.15964" lon="6.85771">
        <ele>1133</ele>
        <time>2017-10-12T07:48:00.000Z</time>
      </trkpt>
      <trkpt lat="46.15962" lon="6.8577">
        <ele>1134</ele>
        <time>2017-10-12T07:48:03.000Z</time>
      </trkpt>
      <trkpt lat="46.15957" lon="6.85768">
        <ele>1136.5999755859</ele>
        <time>2017-10-12T07:48:09.000Z</time>
      </trkpt>
      <trkpt lat="46.15953" lon="6.85764">
        <ele>1138.4000244141</ele>
        <time>2017-10-12T07:48:14.000Z</time>
      </trkpt>
      <trkpt lat="46.15949" lon="6.85763">
        <ele>1140.5999755859</ele>
        <time>2017-10-12T07:48:18.000Z</time>
      </trkpt>
      <trkpt lat="46.15947" lon="6.85766">
        <ele>1141.4000244141</ele>
        <time>2017-10-12T07:48:21.000Z</time>
      </trkpt>
      <trkpt lat="46.15946" lon="6.85783">
        <ele>1142.5999755859</ele>
        <time>2017-10-12T07:48:34.000Z</time>
      </trkpt>
      <trkpt lat="46.15935" lon="6.85764">
        <ele>1147.4000244141</ele>
        <time>2017-10-12T07:48:49.000Z</time>
      </trkpt>
      <trkpt lat="46.15925" lon="6.85757">
        <ele>1152.4000244141</ele>
        <time>2017-10-12T07:49:01.000Z</time>
      </trkpt>
      <trkpt lat="46.15924" lon="6.85775">
        <ele>1154.4000244141</ele>
        <time>2017-10-12T07:49:14.000Z</time>
      </trkpt>
      <trkpt lat="46.15923" lon="6.85775">
        <ele>1155</ele>
        <time>2017-10-12T07:49:16.000Z</time>
      </trkpt>
      <trkpt lat="46.15922" lon="6.85774">
        <ele>1155.5999755859</ele>
        <time>2017-10-12T07:49:18.000Z</time>
      </trkpt>
      <trkpt lat="46.1592" lon="6.85771">
        <ele>1156.8000488281</ele>
        <time>2017-10-12T07:49:21.000Z</time>
      </trkpt>
      <trkpt lat="46.15918" lon="6.8577">
        <ele>1157.5999755859</ele>
        <time>2017-10-12T07:49:23.000Z</time>
      </trkpt>
      <trkpt lat="46.15915" lon="6.85764">
        <ele>1158</ele>
        <time>2017-10-12T07:49:28.000Z</time>
      </trkpt>
      <trkpt lat="46.15915" lon="6.85762">
        <ele>1158</ele>
        <time>2017-10-12T07:49:30.000Z</time>
      </trkpt>
      <trkpt lat="46.15909" lon="6.8576">
        <ele>1161.8000488281</ele>
        <time>2017-10-12T07:49:36.000Z</time>
      </trkpt>
      <trkpt lat="46.15898" lon="6.85752">
        <ele>1167.1999511719</ele>
        <time>2017-10-12T07:49:48.000Z</time>
      </trkpt>
      <trkpt lat="46.15895" lon="6.85756">
        <ele>1170.5999755859</ele>
        <time>2017-10-12T07:49:58.000Z</time>
      </trkpt>
      <trkpt lat="46.15894" lon="6.85762">
        <ele>1172.5999755859</ele>
        <time>2017-10-12T07:50:02.000Z</time>
      </trkpt>
      <trkpt lat="46.15892" lon="6.85762">
        <ele>1173.5999755859</ele>
        <time>2017-10-12T07:50:04.000Z</time>
      </trkpt>
      <trkpt lat="46.1588" lon="6.85742">
        <ele>1175.1999511719</ele>
        <time>2017-10-12T07:50:21.000Z</time>
      </trkpt>
      <trkpt lat="46.15874" lon="6.8574">
        <ele>1177.5999755859</ele>
        <time>2017-10-12T07:50:28.000Z</time>
      </trkpt>
      <trkpt lat="46.15874" lon="6.85738">
        <ele>1177.4000244141</ele>
        <time>2017-10-12T07:50:32.000Z</time>
      </trkpt>
      <trkpt lat="46.15874" lon="6.8574">
        <ele>1177.5999755859</ele>
        <time>2017-10-12T07:50:38.000Z</time>
      </trkpt>
      <trkpt lat="46.15874" lon="6.85739">
        <ele>1177.5999755859</ele>
        <time>2017-10-12T07:50:41.000Z</time>
      </trkpt>
      <trkpt lat="46.15873" lon="6.85739">
        <ele>1177.8000488281</ele>
        <time>2017-10-12T07:50:43.000Z</time>
      </trkpt>
      <trkpt lat="46.15874" lon="6.85737">
        <ele>1177</ele>
        <time>2017-10-12T07:50:51.000Z</time>
      </trkpt>
      <trkpt lat="46.15874" lon="6.85737">
        <ele>1177</ele>
        <time>2017-10-12T07:50:55.000Z</time>
      </trkpt>
      <trkpt lat="46.15874" lon="6.85737">
        <ele>1177.1999511719</ele>
        <time>2017-10-12T07:50:57.000Z</time>
      </trkpt>
      <trkpt lat="46.15874" lon="6.85738">
        <ele>1177</ele>
        <time>2017-10-12T07:50:59.000Z</time>
      </trkpt>
      <trkpt lat="46.15876" lon="6.85738">
        <ele>1176.1999511719</ele>
        <time>2017-10-12T07:51:04.000Z</time>
      </trkpt>
      <trkpt lat="46.15876" lon="6.85738">
        <ele>1176.4000244141</ele>
        <time>2017-10-12T07:51:05.000Z</time>
      </trkpt>
      <trkpt lat="46.15874" lon="6.85741">
        <ele>1178</ele>
        <time>2017-10-12T07:51:56.000Z</time>
      </trkpt>
      <trkpt lat="46.15875" lon="6.85739">
        <ele>1177.1999511719</ele>
        <time>2017-10-12T07:52:00.000Z</time>
      </trkpt>
      <trkpt lat="46.15875" lon="6.8574">
        <ele>1177</ele>
        <time>2017-10-12T07:52:04.000Z</time>
      </trkpt>
      <trkpt lat="46.15875" lon="6.85739">
        <ele>1176.8000488281</ele>
        <time>2017-10-12T07:52:06.000Z</time>
      </trkpt>
      <trkpt lat="46.15876" lon="6.85741">
        <ele>1176.8000488281</ele>
        <time>2017-10-12T07:52:10.000Z</time>
      </trkpt>
      <trkpt lat="46.15876" lon="6.8574">
        <ele>1176.8000488281</ele>
        <time>2017-10-12T07:52:14.000Z</time>
      </trkpt>
      <trkpt lat="46.15876" lon="6.85741">
        <ele>1177</ele>
        <time>2017-10-12T07:52:16.000Z</time>
      </trkpt>
      <trkpt lat="46.15876" lon="6.8574">
        <ele>1176.8000488281</ele>
        <time>2017-10-12T07:52:19.000Z</time>
      </trkpt>
      <trkpt lat="46.15876" lon="6.8574">
        <ele>1176.8000488281</ele>
        <time>2017-10-12T07:52:21.000Z</time>
      </trkpt>
      <trkpt lat="46.15875" lon="6.8574">
        <ele>1177</ele>
        <time>2017-10-12T07:52:23.000Z</time>
      </trkpt>
      <trkpt lat="46.15876" lon="6.85744">
        <ele>1177.8000488281</ele>
        <time>2017-10-12T07:52:26.000Z</time>
      </trkpt>
      <trkpt lat="46.15876" lon="6.85745">
        <ele>1178</ele>
        <time>2017-10-12T07:52:28.000Z</time>
      </trkpt>
      <trkpt lat="46.15876" lon="6.85746">
        <ele>1178</ele>
        <time>2017-10-12T07:52:30.000Z</time>
      </trkpt>
      <trkpt lat="46.15882" lon="6.85764">
        <ele>1179.5999755859</ele>
        <time>2017-10-12T07:52:59.000Z</time>
      </trkpt>
      <trkpt lat="46.15881" lon="6.85792">
        <ele>1186.5999755859</ele>
        <time>2017-10-12T07:53:15.000Z</time>
      </trkpt>
      <trkpt lat="46.15887" lon="6.85817">
        <ele>1189.5999755859</ele>
        <time>2017-10-12T07:53:31.000Z</time>
      </trkpt>
      <trkpt lat="46.1589" lon="6.85832">
        <ele>1191</ele>
        <time>2017-10-12T07:53:42.000Z</time>
      </trkpt>
      <trkpt lat="46.15887" lon="6.85833">
        <ele>1193</ele>
        <time>2017-10-12T07:53:48.000Z</time>
      </trkpt>
      <trkpt lat="46.15884" lon="6.8583">
        <ele>1193.8000488281</ele>
        <time>2017-10-12T07:53:51.000Z</time>
      </trkpt>
      <trkpt lat="46.15868" lon="6.85815">
        <ele>1199</ele>
        <time>2017-10-12T07:54:06.000Z</time>
      </trkpt>
      <trkpt lat="46.15853" lon="6.858">
        <ele>1203.1999511719</ele>
        <time>2017-10-12T07:54:20.000Z</time>
      </trkpt>
      <trkpt lat="46.1584" lon="6.85782">
        <ele>1205.5999755859</ele>
        <time>2017-10-12T07:54:35.000Z</time>
      </trkpt>
      <trkpt lat="46.15825" lon="6.85767">
        <ele>1209.5999755859</ele>
        <time>2017-10-12T07:54:48.000Z</time>
      </trkpt>
      <trkpt lat="46.15812" lon="6.8575">
        <ele>1212.4000244141</ele>
        <time>2017-10-12T07:55:01.000Z</time>
      </trkpt>
      <trkpt lat="46.15797" lon="6.85736">
        <ele>1216.4000244141</ele>
        <time>2017-10-12T07:55:15.000Z</time>
      </trkpt>
      <trkpt lat="46.15779" lon="6.8573">
        <ele>1224.1999511719</ele>
        <time>2017-10-12T07:55:30.000Z</time>
      </trkpt>
      <trkpt lat="46.15763" lon="6.85715">
        <ele>1228.4000244141</ele>
        <time>2017-10-12T07:55:43.000Z</time>
      </trkpt>
      <trkpt lat="46.15747" lon="6.85699">
        <ele>1232</ele>
        <time>2017-10-12T07:55:57.000Z</time>
      </trkpt>
      <trkpt lat="46.1573" lon="6.85688">
        <ele>1237.8000488281</ele>
        <time>2017-10-12T07:56:14.000Z</time>
      </trkpt>
      <trkpt lat="46.15728" lon="6.85689">
        <ele>1239.4000244141</ele>
        <time>2017-10-12T07:56:18.000Z</time>
      </trkpt>
      <trkpt lat="46.15727" lon="6.85691">
        <ele>1240.4000244141</ele>
        <time>2017-10-12T07:56:20.000Z</time>
      </trkpt>
      <trkpt lat="46.15729" lon="6.85695">
        <ele>1240.4000244141</ele>
        <time>2017-10-12T07:56:26.000Z</time>
      </trkpt>
      <trkpt lat="46.1573" lon="6.85699">
        <ele>1240.8000488281</ele>
        <time>2017-10-12T07:56:30.000Z</time>
      </trkpt>
      <trkpt lat="46.15734" lon="6.85709">
        <ele>1242.1999511719</ele>
        <time>2017-10-12T07:56:39.000Z</time>
      </trkpt>
      <trkpt lat="46.15738" lon="6.85724">
        <ele>1244.5999755859</ele>
        <time>2017-10-12T07:56:51.000Z</time>
      </trkpt>
      <trkpt lat="46.15737" lon="6.85733">
        <ele>1248</ele>
        <time>2017-10-12T07:56:57.000Z</time>
      </trkpt>
      <trkpt lat="46.15745" lon="6.85748">
        <ele>1248</ele>
        <time>2017-10-12T07:57:10.000Z</time>
      </trkpt>
      <trkpt lat="46.1574" lon="6.85751">
        <ele>1251</ele>
        <time>2017-10-12T07:57:18.000Z</time>
      </trkpt>
      <trkpt lat="46.15734" lon="6.85749">
        <ele>1254.1999511719</ele>
        <time>2017-10-12T07:57:26.000Z</time>
      </trkpt>
      <trkpt lat="46.15732" lon="6.85748">
        <ele>1254.8000488281</ele>
        <time>2017-10-12T07:57:28.000Z</time>
      </trkpt>
      <trkpt lat="46.15731" lon="6.85747">
        <ele>1255.1999511719</ele>
        <time>2017-10-12T07:57:30.000Z</time>
      </trkpt>
      <trkpt lat="46.15729" lon="6.85746">
        <ele>1256.4000244141</ele>
        <time>2017-10-12T07:57:32.000Z</time>
      </trkpt>
      <trkpt lat="46.15726" lon="6.85744">
        <ele>1257.1999511719</ele>
        <time>2017-10-12T07:57:35.000Z</time>
      </trkpt>
      <trkpt lat="46.15726" lon="6.85757">
        <ele>1261.8000488281</ele>
        <time>2017-10-12T07:58:00.000Z</time>
      </trkpt>
      <trkpt lat="46.15737" lon="6.85779">
        <ele>1262.4000244141</ele>
        <time>2017-10-12T07:58:15.000Z</time>
      </trkpt>
      <trkpt lat="46.1574" lon="6.85798">
        <ele>1266.4000244141</ele>
        <time>2017-10-12T07:58:30.000Z</time>
      </trkpt>
      <trkpt lat="46.15737" lon="6.85796">
        <ele>1268</ele>
        <time>2017-10-12T07:58:34.000Z</time>
      </trkpt>
      <trkpt lat="46.15726" lon="6.85792">
        <ele>1272.8000488281</ele>
        <time>2017-10-12T07:58:43.000Z</time>
      </trkpt>
      <trkpt lat="46.15709" lon="6.85786">
        <ele>1279.5999755859</ele>
        <time>2017-10-12T07:58:59.000Z</time>
      </trkpt>
      <trkpt lat="46.15699" lon="6.85783">
        <ele>1283.4000244141</ele>
        <time>2017-10-12T07:59:10.000Z</time>
      </trkpt>
      <trkpt lat="46.15697" lon="6.85783">
        <ele>1284.4000244141</ele>
        <time>2017-10-12T07:59:12.000Z</time>
      </trkpt>
      <trkpt lat="46.15689" lon="6.8578">
        <ele>1287.8000488281</ele>
        <time>2017-10-12T07:59:20.000Z</time>
      </trkpt>
      <trkpt lat="46.15673" lon="6.85767">
        <ele>1291.4000244141</ele>
        <time>2017-10-12T07:59:37.000Z</time>
      </trkpt>
      <trkpt lat="46.15669" lon="6.85762">
        <ele>1292</ele>
        <time>2017-10-12T07:59:43.000Z</time>
      </trkpt>
      <trkpt lat="46.15668" lon="6.8576">
        <ele>1291.5999755859</ele>
        <time>2017-10-12T07:59:45.000Z</time>
      </trkpt>
      <trkpt lat="46.15666" lon="6.85757">
        <ele>1291.5999755859</ele>
        <time>2017-10-12T07:59:49.000Z</time>
      </trkpt>
      <trkpt lat="46.15666" lon="6.85757">
        <ele>1292</ele>
        <time>2017-10-12T07:59:52.000Z</time>
      </trkpt>
      <trkpt lat="46.15666" lon="6.8576">
        <ele>1292.8000488281</ele>
        <time>2017-10-12T07:59:55.000Z</time>
      </trkpt>
      <trkpt lat="46.15667" lon="6.85766">
        <ele>1294.4000244141</ele>
        <time>2017-10-12T08:00:00.000Z</time>
      </trkpt>
      <trkpt lat="46.15668" lon="6.85768">
        <ele>1295</ele>
        <time>2017-10-12T08:00:02.000Z</time>
      </trkpt>
      <trkpt lat="46.15671" lon="6.85783">
        <ele>1298.8000488281</ele>
        <time>2017-10-12T08:00:13.000Z</time>
      </trkpt>
      <trkpt lat="46.15671" lon="6.85786">
        <ele>1300.4000244141</ele>
        <time>2017-10-12T08:00:15.000Z</time>
      </trkpt>
      <trkpt lat="46.15674" lon="6.85792">
        <ele>1301</ele>
        <time>2017-10-12T08:00:21.000Z</time>
      </trkpt>
      <trkpt lat="46.15677" lon="6.85792">
        <ele>1299.4000244141</ele>
        <time>2017-10-12T08:00:25.000Z</time>
      </trkpt>
      <trkpt lat="46.15677" lon="6.85792">
        <ele>1299.1999511719</ele>
        <time>2017-10-12T08:00:26.000Z</time>
      </trkpt>
      <trkpt lat="46.15678" lon="6.85797">
        <ele>1300.5999755859</ele>
        <time>2017-10-12T08:00:30.000Z</time>
      </trkpt>
      <trkpt lat="46.15682" lon="6.85806">
        <ele>1302</ele>
        <time>2017-10-12T08:00:39.000Z</time>
      </trkpt>
      <trkpt lat="46.15683" lon="6.85808">
        <ele>1302.1999511719</ele>
        <time>2017-10-12T08:00:42.000Z</time>
      </trkpt>
      <trkpt lat="46.15684" lon="6.85811">
        <ele>1302.8000488281</ele>
        <time>2017-10-12T08:00:44.000Z</time>
      </trkpt>
      <trkpt lat="46.15684" lon="6.85817">
        <ele>1305.1999511719</ele>
        <time>2017-10-12T08:00:48.000Z</time>
      </trkpt>
      <trkpt lat="46.15678" lon="6.85815">
        <ele>1308.1999511719</ele>
        <time>2017-10-12T08:00:55.000Z</time>
      </trkpt>
      <trkpt lat="46.1566" lon="6.85808">
        <ele>1315.4000244141</ele>
        <time>2017-10-12T08:01:10.000Z</time>
      </trkpt>
      <trkpt lat="46.15653" lon="6.85807">
        <ele>1319.8000488281</ele>
        <time>2017-10-12T08:01:20.000Z</time>
      </trkpt>
      <trkpt lat="46.15656" lon="6.85815">
        <ele>1321</ele>
        <time>2017-10-12T08:01:26.000Z</time>
      </trkpt>
      <trkpt lat="46.15671" lon="6.85833">
        <ele>1318.5999755859</ele>
        <time>2017-10-12T08:01:40.000Z</time>
      </trkpt>
      <trkpt lat="46.15682" lon="6.85856">
        <ele>1320</ele>
        <time>2017-10-12T08:01:54.000Z</time>
      </trkpt>
      <trkpt lat="46.15691" lon="6.8588">
        <ele>1323.1999511719</ele>
        <time>2017-10-12T08:02:07.000Z</time>
      </trkpt>
      <trkpt lat="46.15703" lon="6.85901">
        <ele>1323.8000488281</ele>
        <time>2017-10-12T08:02:18.000Z</time>
      </trkpt>
      <trkpt lat="46.15711" lon="6.85924">
        <ele>1324.1999511719</ele>
        <time>2017-10-12T08:02:30.000Z</time>
      </trkpt>
      <trkpt lat="46.15717" lon="6.8595">
        <ele>1325.4000244141</ele>
        <time>2017-10-12T08:02:44.000Z</time>
      </trkpt>
      <trkpt lat="46.15727" lon="6.85973">
        <ele>1324.1999511719</ele>
        <time>2017-10-12T08:02:57.000Z</time>
      </trkpt>
      <trkpt lat="46.15737" lon="6.85997">
        <ele>1319.8000488281</ele>
        <time>2017-10-12T08:03:09.000Z</time>
      </trkpt>
      <trkpt lat="46.15737" lon="6.86023">
        <ele>1319.4000244141</ele>
        <time>2017-10-12T08:03:21.000Z</time>
      </trkpt>
      <trkpt lat="46.15732" lon="6.86049">
        <ele>1323.4000244141</ele>
        <time>2017-10-12T08:03:35.000Z</time>
      </trkpt>
      <trkpt lat="46.15724" lon="6.86072">
        <ele>1329.8000488281</ele>
        <time>2017-10-12T08:03:48.000Z</time>
      </trkpt>
      <trkpt lat="46.15722" lon="6.86072">
        <ele>1331.8000488281</ele>
        <time>2017-10-12T08:03:49.000Z</time>
      </trkpt>
      <trkpt lat="46.15712" lon="6.86049">
        <ele>1338</ele>
        <time>2017-10-12T08:04:05.000Z</time>
      </trkpt>
      <trkpt lat="46.15705" lon="6.86025">
        <ele>1343.1999511719</ele>
        <time>2017-10-12T08:04:20.000Z</time>
      </trkpt>
      <trkpt lat="46.15703" lon="6.86024">
        <ele>1344.4000244141</ele>
        <time>2017-10-12T08:04:23.000Z</time>
      </trkpt>
      <trkpt lat="46.15706" lon="6.86051">
        <ele>1342.8000488281</ele>
        <time>2017-10-12T08:04:42.000Z</time>
      </trkpt>
      <trkpt lat="46.1571" lon="6.86069">
        <ele>1342.1999511719</ele>
        <time>2017-10-12T08:04:56.000Z</time>
      </trkpt>
      <trkpt lat="46.1571" lon="6.86071">
        <ele>1342.4000244141</ele>
        <time>2017-10-12T08:04:58.000Z</time>
      </trkpt>
      <trkpt lat="46.15709" lon="6.86076">
        <ele>1343.8000488281</ele>
        <time>2017-10-12T08:05:03.000Z</time>
      </trkpt>
      <trkpt lat="46.15706" lon="6.86075">
        <ele>1346.8000488281</ele>
        <time>2017-10-12T08:05:05.000Z</time>
      </trkpt>
      <trkpt lat="46.15687" lon="6.86069">
        <ele>1362</ele>
        <time>2017-10-12T08:05:20.000Z</time>
      </trkpt>
      <trkpt lat="46.15685" lon="6.86067">
        <ele>1364.1999511719</ele>
        <time>2017-10-12T08:05:24.000Z</time>
      </trkpt>
      <trkpt lat="46.15682" lon="6.86065">
        <ele>1366</ele>
        <time>2017-10-12T08:05:27.000Z</time>
      </trkpt>
      <trkpt lat="46.1567" lon="6.86045">
        <ele>1373.8000488281</ele>
        <time>2017-10-12T08:05:49.000Z</time>
      </trkpt>
      <trkpt lat="46.15666" lon="6.8604">
        <ele>1375.8000488281</ele>
        <time>2017-10-12T08:05:54.000Z</time>
      </trkpt>
      <trkpt lat="46.15665" lon="6.86038">
        <ele>1376.5999755859</ele>
        <time>2017-10-12T08:05:56.000Z</time>
      </trkpt>
      <trkpt lat="46.15661" lon="6.86014">
        <ele>1376.5999755859</ele>
        <time>2017-10-12T08:06:10.000Z</time>
      </trkpt>
      <trkpt lat="46.1566" lon="6.86013">
        <ele>1377.1999511719</ele>
        <time>2017-10-12T08:06:13.000Z</time>
      </trkpt>
      <trkpt lat="46.15658" lon="6.86013">
        <ele>1378.4000244141</ele>
        <time>2017-10-12T08:06:15.000Z</time>
      </trkpt>
      <trkpt lat="46.15656" lon="6.86013">
        <ele>1380.4000244141</ele>
        <time>2017-10-12T08:06:17.000Z</time>
      </trkpt>
      <trkpt lat="46.15654" lon="6.8601">
        <ele>1382.1999511719</ele>
        <time>2017-10-12T08:06:20.000Z</time>
      </trkpt>
      <trkpt lat="46.15646" lon="6.85994">
        <ele>1386.5999755859</ele>
        <time>2017-10-12T08:06:36.000Z</time>
      </trkpt>
      <trkpt lat="46.15647" lon="6.85996">
        <ele>1385.4000244141</ele>
        <time>2017-10-12T08:06:40.000Z</time>
      </trkpt>
      <trkpt lat="46.15647" lon="6.85994">
        <ele>1385.5999755859</ele>
        <time>2017-10-12T08:06:44.000Z</time>
      </trkpt>
      <trkpt lat="46.15646" lon="6.8599">
        <ele>1385.4000244141</ele>
        <time>2017-10-12T08:06:47.000Z</time>
      </trkpt>
      <trkpt lat="46.15644" lon="6.85986">
        <ele>1386.1999511719</ele>
        <time>2017-10-12T08:06:51.000Z</time>
      </trkpt>
      <trkpt lat="46.15641" lon="6.85983">
        <ele>1387</ele>
        <time>2017-10-12T08:06:54.000Z</time>
      </trkpt>
      <trkpt lat="46.1564" lon="6.85981">
        <ele>1387.4000244141</ele>
        <time>2017-10-12T08:06:57.000Z</time>
      </trkpt>
      <trkpt lat="46.15636" lon="6.85978">
        <ele>1388.5999755859</ele>
        <time>2017-10-12T08:07:02.000Z</time>
      </trkpt>
      <trkpt lat="46.15634" lon="6.85975">
        <ele>1388.8000488281</ele>
        <time>2017-10-12T08:07:04.000Z</time>
      </trkpt>
      <trkpt lat="46.15629" lon="6.85967">
        <ele>1390</ele>
        <time>2017-10-12T08:07:11.000Z</time>
      </trkpt>
      <trkpt lat="46.15625" lon="6.85965">
        <ele>1391.5999755859</ele>
        <time>2017-10-12T08:07:15.000Z</time>
      </trkpt>
      <trkpt lat="46.15624" lon="6.85967">
        <ele>1392.8000488281</ele>
        <time>2017-10-12T08:07:18.000Z</time>
      </trkpt>
      <trkpt lat="46.15629" lon="6.85993">
        <ele>1399.8000488281</ele>
        <time>2017-10-12T08:07:35.000Z</time>
      </trkpt>
      <trkpt lat="46.15629" lon="6.85999">
        <ele>1401</ele>
        <time>2017-10-12T08:07:39.000Z</time>
      </trkpt>
      <trkpt lat="46.15626" lon="6.86025">
        <ele>1407.1999511719</ele>
        <time>2017-10-12T08:07:51.000Z</time>
      </trkpt>
      <trkpt lat="46.15627" lon="6.86052">
        <ele>1410.5999755859</ele>
        <time>2017-10-12T08:08:05.000Z</time>
      </trkpt>
      <trkpt lat="46.15631" lon="6.86078">
        <ele>1415</ele>
        <time>2017-10-12T08:08:17.000Z</time>
      </trkpt>
      <trkpt lat="46.15634" lon="6.86104">
        <ele>1420.5999755859</ele>
        <time>2017-10-12T08:08:30.000Z</time>
      </trkpt>
      <trkpt lat="46.15635" lon="6.86132">
        <ele>1428</ele>
        <time>2017-10-12T08:08:43.000Z</time>
      </trkpt>
      <trkpt lat="46.1564" lon="6.86158">
        <ele>1430.5999755859</ele>
        <time>2017-10-12T08:08:55.000Z</time>
      </trkpt>
      <trkpt lat="46.15647" lon="6.86184">
        <ele>1426</ele>
        <time>2017-10-12T08:09:10.000Z</time>
      </trkpt>
      <trkpt lat="46.15651" lon="6.8621">
        <ele>1423.5999755859</ele>
        <time>2017-10-12T08:09:24.000Z</time>
      </trkpt>
      <trkpt lat="46.15652" lon="6.86237">
        <ele>1424.5999755859</ele>
        <time>2017-10-12T08:09:37.000Z</time>
      </trkpt>
      <trkpt lat="46.15652" lon="6.86263">
        <ele>1423.4000244141</ele>
        <time>2017-10-12T08:09:52.000Z</time>
      </trkpt>
      <trkpt lat="46.15646" lon="6.86288">
        <ele>1428.1999511719</ele>
        <time>2017-10-12T08:10:04.000Z</time>
      </trkpt>
      <trkpt lat="46.15644" lon="6.86314">
        <ele>1429.4000244141</ele>
        <time>2017-10-12T08:10:17.000Z</time>
      </trkpt>
      <trkpt lat="46.15643" lon="6.86342">
        <ele>1428.5999755859</ele>
        <time>2017-10-12T08:10:31.000Z</time>
      </trkpt>
      <trkpt lat="46.15639" lon="6.86367">
        <ele>1429.1999511719</ele>
        <time>2017-10-12T08:10:44.000Z</time>
      </trkpt>
      <trkpt lat="46.15637" lon="6.86396">
        <ele>1428.5999755859</ele>
        <time>2017-10-12T08:10:58.000Z</time>
      </trkpt>
      <trkpt lat="46.1564" lon="6.86425">
        <ele>1422.1999511719</ele>
        <time>2017-10-12T08:11:13.000Z</time>
      </trkpt>
      <trkpt lat="46.15628" lon="6.86447">
        <ele>1428.1999511719</ele>
        <time>2017-10-12T08:11:26.000Z</time>
      </trkpt>
      <trkpt lat="46.15614" lon="6.86465">
        <ele>1435.4000244141</ele>
        <time>2017-10-12T08:11:38.000Z</time>
      </trkpt>
      <trkpt lat="46.15601" lon="6.86483">
        <ele>1440.5999755859</ele>
        <time>2017-10-12T08:11:51.000Z</time>
      </trkpt>
      <trkpt lat="46.15586" lon="6.86497">
        <ele>1446.8000488281</ele>
        <time>2017-10-12T08:12:05.000Z</time>
      </trkpt>
      <trkpt lat="46.1557" lon="6.8651">
        <ele>1453</ele>
        <time>2017-10-12T08:12:18.000Z</time>
      </trkpt>
      <trkpt lat="46.15554" lon="6.86522">
        <ele>1460.4000244141</ele>
        <time>2017-10-12T08:12:30.000Z</time>
      </trkpt>
      <trkpt lat="46.15538" lon="6.86535">
        <ele>1469.4000244141</ele>
        <time>2017-10-12T08:12:45.000Z</time>
      </trkpt>
      <trkpt lat="46.15544" lon="6.8652">
        <ele>1469.8000488281</ele>
        <time>2017-10-12T08:13:01.000Z</time>
      </trkpt>
      <trkpt lat="46.15559" lon="6.86502">
        <ele>1464</ele>
        <time>2017-10-12T08:13:15.000Z</time>
      </trkpt>
      <trkpt lat="46.15569" lon="6.86481">
        <ele>1463.4000244141</ele>
        <time>2017-10-12T08:13:33.000Z</time>
      </trkpt>
      <trkpt lat="46.1558" lon="6.86459">
        <ele>1461.1999511719</ele>
        <time>2017-10-12T08:13:46.000Z</time>
      </trkpt>
      <trkpt lat="46.15582" lon="6.86435">
        <ele>1465.5999755859</ele>
        <time>2017-10-12T08:13:59.000Z</time>
      </trkpt>
      <trkpt lat="46.15582" lon="6.86432">
        <ele>1466.8000488281</ele>
        <time>2017-10-12T08:14:02.000Z</time>
      </trkpt>
      <trkpt lat="46.15582" lon="6.86428">
        <ele>1467.8000488281</ele>
        <time>2017-10-12T08:14:06.000Z</time>
      </trkpt>
      <trkpt lat="46.1558" lon="6.86402">
        <ele>1473.5999755859</ele>
        <time>2017-10-12T08:14:23.000Z</time>
      </trkpt>
      <trkpt lat="46.15579" lon="6.8638">
        <ele>1475.8000488281</ele>
        <time>2017-10-12T08:14:35.000Z</time>
      </trkpt>
      <trkpt lat="46.15578" lon="6.86376">
        <ele>1477.4000244141</ele>
        <time>2017-10-12T08:14:38.000Z</time>
      </trkpt>
      <trkpt lat="46.15575" lon="6.86369">
        <ele>1480.1999511719</ele>
        <time>2017-10-12T08:14:43.000Z</time>
      </trkpt>
      <trkpt lat="46.15575" lon="6.86363">
        <ele>1481.1999511719</ele>
        <time>2017-10-12T08:14:48.000Z</time>
      </trkpt>
      <trkpt lat="46.15574" lon="6.86362">
        <ele>1481.8000488281</ele>
        <time>2017-10-12T08:14:49.000Z</time>
      </trkpt>
      <trkpt lat="46.15569" lon="6.86341">
        <ele>1487.5999755859</ele>
        <time>2017-10-12T08:15:04.000Z</time>
      </trkpt>
      <trkpt lat="46.15564" lon="6.86317">
        <ele>1493.5999755859</ele>
        <time>2017-10-12T08:15:21.000Z</time>
      </trkpt>
      <trkpt lat="46.15563" lon="6.86317">
        <ele>1494</ele>
        <time>2017-10-12T08:15:26.000Z</time>
      </trkpt>
      <trkpt lat="46.15563" lon="6.86319">
        <ele>1494.1999511719</ele>
        <time>2017-10-12T08:15:28.000Z</time>
      </trkpt>
      <trkpt lat="46.15567" lon="6.86329">
        <ele>1490.8000488281</ele>
        <time>2017-10-12T08:15:39.000Z</time>
      </trkpt>
      <trkpt lat="46.15563" lon="6.86356">
        <ele>1491</ele>
        <time>2017-10-12T08:15:58.000Z</time>
      </trkpt>
      <trkpt lat="46.15561" lon="6.86363">
        <ele>1492.1999511719</ele>
        <time>2017-10-12T08:16:05.000Z</time>
      </trkpt>
      <trkpt lat="46.1556" lon="6.86362">
        <ele>1492.8000488281</ele>
        <time>2017-10-12T08:16:07.000Z</time>
      </trkpt>
      <trkpt lat="46.15558" lon="6.86359">
        <ele>1495</ele>
        <time>2017-10-12T08:16:10.000Z</time>
      </trkpt>
      <trkpt lat="46.15556" lon="6.86357">
        <ele>1497</ele>
        <time>2017-10-12T08:16:13.000Z</time>
      </trkpt>
      <trkpt lat="46.15554" lon="6.86355">
        <ele>1499.5999755859</ele>
        <time>2017-10-12T08:16:16.000Z</time>
      </trkpt>
      <trkpt lat="46.15553" lon="6.8635">
        <ele>1501</ele>
        <time>2017-10-12T08:16:20.000Z</time>
      </trkpt>
      <trkpt lat="46.15552" lon="6.86341">
        <ele>1502.1999511719</ele>
        <time>2017-10-12T08:16:26.000Z</time>
      </trkpt>
      <trkpt lat="46.1555" lon="6.86342">
        <ele>1504.5999755859</ele>
        <time>2017-10-12T08:16:31.000Z</time>
      </trkpt>
      <trkpt lat="46.15547" lon="6.86349">
        <ele>1506.4000244141</ele>
        <time>2017-10-12T08:16:39.000Z</time>
      </trkpt>
      <trkpt lat="46.15547" lon="6.86352">
        <ele>1505.8000488281</ele>
        <time>2017-10-12T08:16:41.000Z</time>
      </trkpt>
      <trkpt lat="46.15547" lon="6.86361">
        <ele>1504.8000488281</ele>
        <time>2017-10-12T08:16:50.000Z</time>
      </trkpt>
      <trkpt lat="46.15547" lon="6.86363">
        <ele>1504.8000488281</ele>
        <time>2017-10-12T08:16:52.000Z</time>
      </trkpt>
      <trkpt lat="46.15548" lon="6.86367">
        <ele>1503.8000488281</ele>
        <time>2017-10-12T08:16:56.000Z</time>
      </trkpt>
      <trkpt lat="46.15548" lon="6.86369">
        <ele>1503.1999511719</ele>
        <time>2017-10-12T08:16:58.000Z</time>
      </trkpt>
      <trkpt lat="46.15547" lon="6.86373">
        <ele>1503.4000244141</ele>
        <time>2017-10-12T08:17:02.000Z</time>
      </trkpt>
      <trkpt lat="46.15546" lon="6.86377">
        <ele>1504.1999511719</ele>
        <time>2017-10-12T08:17:05.000Z</time>
      </trkpt>
      <trkpt lat="46.15542" lon="6.86404">
        <ele>1509.8000488281</ele>
        <time>2017-10-12T08:17:17.000Z</time>
      </trkpt>
      <trkpt lat="46.15539" lon="6.8641">
        <ele>1512.1999511719</ele>
        <time>2017-10-12T08:17:21.000Z</time>
      </trkpt>
      <trkpt lat="46.15541" lon="6.86424">
        <ele>1506.4000244141</ele>
        <time>2017-10-12T08:17:30.000Z</time>
      </trkpt>
      <trkpt lat="46.15542" lon="6.86437">
        <ele>1501.5999755859</ele>
        <time>2017-10-12T08:17:37.000Z</time>
      </trkpt>
      <trkpt lat="46.1554" lon="6.86441">
        <ele>1503.5999755859</ele>
        <time>2017-10-12T08:17:39.000Z</time>
      </trkpt>
      <trkpt lat="46.15525" lon="6.86457">
        <ele>1516</ele>
        <time>2017-10-12T08:17:50.000Z</time>
      </trkpt>
      <trkpt lat="46.15509" lon="6.86476">
        <ele>1519.5999755859</ele>
        <time>2017-10-12T08:18:00.000Z</time>
      </trkpt>
      <trkpt lat="46.15505" lon="6.8649">
        <ele>1516.1999511719</ele>
        <time>2017-10-12T08:18:06.000Z</time>
      </trkpt>
      <trkpt lat="46.1549" lon="6.86508">
        <ele>1523.5999755859</ele>
        <time>2017-10-12T08:18:15.000Z</time>
      </trkpt>
      <trkpt lat="46.15485" lon="6.86514">
        <ele>1529.4000244141</ele>
        <time>2017-10-12T08:18:19.000Z</time>
      </trkpt>
      <trkpt lat="46.1548" lon="6.86526">
        <ele>1534.5999755859</ele>
        <time>2017-10-12T08:18:27.000Z</time>
      </trkpt>
      <trkpt lat="46.15479" lon="6.8653">
        <ele>1535.4000244141</ele>
        <time>2017-10-12T08:18:29.000Z</time>
      </trkpt>
      <trkpt lat="46.15478" lon="6.86533">
        <ele>1536</ele>
        <time>2017-10-12T08:18:31.000Z</time>
      </trkpt>
      <trkpt lat="46.15467" lon="6.86555">
        <ele>1538.1999511719</ele>
        <time>2017-10-12T08:18:41.000Z</time>
      </trkpt>
      <trkpt lat="46.15448" lon="6.86553">
        <ele>1540</ele>
        <time>2017-10-12T08:18:54.000Z</time>
      </trkpt>
      <trkpt lat="46.15443" lon="6.86554">
        <ele>1539</ele>
        <time>2017-10-12T08:18:59.000Z</time>
      </trkpt>
      <trkpt lat="46.15424" lon="6.86551">
        <ele>1539</ele>
        <time>2017-10-12T08:19:13.000Z</time>
      </trkpt>
      <trkpt lat="46.15405" lon="6.86542">
        <ele>1541.4000244141</ele>
        <time>2017-10-12T08:19:22.000Z</time>
      </trkpt>
      <trkpt lat="46.15386" lon="6.86537">
        <ele>1541.8000488281</ele>
        <time>2017-10-12T08:19:30.000Z</time>
      </trkpt>
      <trkpt lat="46.15367" lon="6.86533">
        <ele>1542.1999511719</ele>
        <time>2017-10-12T08:19:40.000Z</time>
      </trkpt>
      <trkpt lat="46.15349" lon="6.86525">
        <ele>1544.4000244141</ele>
        <time>2017-10-12T08:19:49.000Z</time>
      </trkpt>
      <trkpt lat="46.15334" lon="6.86509">
        <ele>1550.4000244141</ele>
        <time>2017-10-12T08:19:59.000Z</time>
      </trkpt>
      <trkpt lat="46.15316" lon="6.86502">
        <ele>1551.4000244141</ele>
        <time>2017-10-12T08:20:15.000Z</time>
      </trkpt>
      <trkpt lat="46.15297" lon="6.865">
        <ele>1552</ele>
        <time>2017-10-12T08:20:24.000Z</time>
      </trkpt>
      <trkpt lat="46.15279" lon="6.86509">
        <ele>1548.4000244141</ele>
        <time>2017-10-12T08:20:32.000Z</time>
      </trkpt>
      <trkpt lat="46.15271" lon="6.86509">
        <ele>1548.5999755859</ele>
        <time>2017-10-12T08:20:52.000Z</time>
      </trkpt>
      <trkpt lat="46.15253" lon="6.86514">
        <ele>1546.4000244141</ele>
        <time>2017-10-12T08:21:06.000Z</time>
      </trkpt>
      <trkpt lat="46.15235" lon="6.86513">
        <ele>1549.1999511719</ele>
        <time>2017-10-12T08:21:14.000Z</time>
      </trkpt>
      <trkpt lat="46.15216" lon="6.86514">
        <ele>1551.5999755859</ele>
        <time>2017-10-12T08:21:22.000Z</time>
      </trkpt>
      <trkpt lat="46.15198" lon="6.86522">
        <ele>1551.1999511719</ele>
        <time>2017-10-12T08:21:31.000Z</time>
      </trkpt>
      <trkpt lat="46.15178" lon="6.86525">
        <ele>1552.4000244141</ele>
        <time>2017-10-12T08:21:39.000Z</time>
      </trkpt>
      <trkpt lat="46.15161" lon="6.86538">
        <ele>1542.4000244141</ele>
        <time>2017-10-12T08:21:47.000Z</time>
      </trkpt>
      <trkpt lat="46.15145" lon="6.86554">
        <ele>1530</ele>
        <time>2017-10-12T08:21:55.000Z</time>
      </trkpt>
      <trkpt lat="46.15129" lon="6.86573">
        <ele>1522.1999511719</ele>
        <time>2017-10-12T08:22:03.000Z</time>
      </trkpt>
      <trkpt lat="46.15116" lon="6.86591">
        <ele>1525.1999511719</ele>
        <time>2017-10-12T08:22:15.000Z</time>
      </trkpt>
      <trkpt lat="46.15103" lon="6.86609">
        <ele>1527.8000488281</ele>
        <time>2017-10-12T08:22:28.000Z</time>
      </trkpt>
      <trkpt lat="46.15086" lon="6.8662">
        <ele>1531.5999755859</ele>
        <time>2017-10-12T08:22:41.000Z</time>
      </trkpt>
      <trkpt lat="46.15069" lon="6.86628">
        <ele>1535.5999755859</ele>
        <time>2017-10-12T08:22:53.000Z</time>
      </trkpt>
      <trkpt lat="46.15051" lon="6.86623">
        <ele>1541.5999755859</ele>
        <time>2017-10-12T08:23:05.000Z</time>
      </trkpt>
      <trkpt lat="46.15032" lon="6.86625">
        <ele>1547.8000488281</ele>
        <time>2017-10-12T08:23:13.000Z</time>
      </trkpt>
      <trkpt lat="46.15014" lon="6.86631">
        <ele>1550.5999755859</ele>
        <time>2017-10-12T08:23:20.000Z</time>
      </trkpt>
      <trkpt lat="46.14995" lon="6.86634">
        <ele>1554.1999511719</ele>
        <time>2017-10-12T08:23:28.000Z</time>
      </trkpt>
      <trkpt lat="46.14982" lon="6.86623">
        <ele>1559</ele>
        <time>2017-10-12T08:23:35.000Z</time>
      </trkpt>
      <trkpt lat="46.14966" lon="6.86635">
        <ele>1559.1999511719</ele>
        <time>2017-10-12T08:23:43.000Z</time>
      </trkpt>
      <trkpt lat="46.14948" lon="6.86645">
        <ele>1557</ele>
        <time>2017-10-12T08:23:54.000Z</time>
      </trkpt>
      <trkpt lat="46.14929" lon="6.86653">
        <ele>1553.8000488281</ele>
        <time>2017-10-12T08:24:07.000Z</time>
      </trkpt>
      <trkpt lat="46.14911" lon="6.86657">
        <ele>1552</ele>
        <time>2017-10-12T08:24:18.000Z</time>
      </trkpt>
      <trkpt lat="46.14895" lon="6.86669">
        <ele>1548.5999755859</ele>
        <time>2017-10-12T08:24:27.000Z</time>
      </trkpt>
      <trkpt lat="46.14883" lon="6.86689">
        <ele>1546.8000488281</ele>
        <time>2017-10-12T08:24:34.000Z</time>
      </trkpt>
      <trkpt lat="46.1487" lon="6.86706">
        <ele>1546.1999511719</ele>
        <time>2017-10-12T08:24:46.000Z</time>
      </trkpt>
      <trkpt lat="46.14866" lon="6.86712">
        <ele>1546</ele>
        <time>2017-10-12T08:24:50.000Z</time>
      </trkpt>
      <trkpt lat="46.14865" lon="6.86722">
        <ele>1543.8000488281</ele>
        <time>2017-10-12T08:24:57.000Z</time>
      </trkpt>
      <trkpt lat="46.14864" lon="6.86724">
        <ele>1543.5999755859</ele>
        <time>2017-10-12T08:25:00.000Z</time>
      </trkpt>
      <trkpt lat="46.14856" lon="6.86748">
        <ele>1541</ele>
        <time>2017-10-12T08:25:15.000Z</time>
      </trkpt>
      <trkpt lat="46.14842" lon="6.86767">
        <ele>1542.5999755859</ele>
        <time>2017-10-12T08:25:24.000Z</time>
      </trkpt>
      <trkpt lat="46.14834" lon="6.86789">
        <ele>1542.1999511719</ele>
        <time>2017-10-12T08:25:32.000Z</time>
      </trkpt>
      <trkpt lat="46.14821" lon="6.86804">
        <ele>1544.1999511719</ele>
        <time>2017-10-12T08:25:45.000Z</time>
      </trkpt>
      <trkpt lat="46.14815" lon="6.86814">
        <ele>1545</ele>
        <time>2017-10-12T08:25:52.000Z</time>
      </trkpt>
      <trkpt lat="46.14816" lon="6.86816">
        <ele>1544.4000244141</ele>
        <time>2017-10-12T08:25:54.000Z</time>
      </trkpt>
      <trkpt lat="46.14816" lon="6.86819">
        <ele>1543.8000488281</ele>
        <time>2017-10-12T08:25:56.000Z</time>
      </trkpt>
      <trkpt lat="46.14798" lon="6.86825">
        <ele>1544</ele>
        <time>2017-10-12T08:26:04.000Z</time>
      </trkpt>
      <trkpt lat="46.14781" lon="6.86817">
        <ele>1545.5999755859</ele>
        <time>2017-10-12T08:26:11.000Z</time>
      </trkpt>
      <trkpt lat="46.14763" lon="6.86825">
        <ele>1542.8000488281</ele>
        <time>2017-10-12T08:26:18.000Z</time>
      </trkpt>
      <trkpt lat="46.14748" lon="6.86839">
        <ele>1538.1999511719</ele>
        <time>2017-10-12T08:26:25.000Z</time>
      </trkpt>
      <trkpt lat="46.14733" lon="6.86854">
        <ele>1533.1999511719</ele>
        <time>2017-10-12T08:26:32.000Z</time>
      </trkpt>
      <trkpt lat="46.14715" lon="6.86863">
        <ele>1534</ele>
        <time>2017-10-12T08:26:40.000Z</time>
      </trkpt>
      <trkpt lat="46.14697" lon="6.86865">
        <ele>1537.8000488281</ele>
        <time>2017-10-12T08:26:48.000Z</time>
      </trkpt>
      <trkpt lat="46.14683" lon="6.86847">
        <ele>1546.8000488281</ele>
        <time>2017-10-12T08:26:56.000Z</time>
      </trkpt>
      <trkpt lat="46.14679" lon="6.86843">
        <ele>1549</ele>
        <time>2017-10-12T08:27:01.000Z</time>
      </trkpt>
      <trkpt lat="46.14662" lon="6.86836">
        <ele>1555.4000244141</ele>
        <time>2017-10-12T08:27:26.000Z</time>
      </trkpt>
      <trkpt lat="46.14659" lon="6.86835">
        <ele>1556.4000244141</ele>
        <time>2017-10-12T08:27:27.000Z</time>
      </trkpt>
      <trkpt lat="46.14651" lon="6.86833">
        <ele>1559</ele>
        <time>2017-10-12T08:27:34.000Z</time>
      </trkpt>
      <trkpt lat="46.14648" lon="6.86859">
        <ele>1550.5999755859</ele>
        <time>2017-10-12T08:27:47.000Z</time>
      </trkpt>
      <trkpt lat="46.14636" lon="6.86878">
        <ele>1546</ele>
        <time>2017-10-12T08:27:55.000Z</time>
      </trkpt>
      <trkpt lat="46.14629" lon="6.86902">
        <ele>1538.8000488281</ele>
        <time>2017-10-12T08:28:03.000Z</time>
      </trkpt>
      <trkpt lat="46.14615" lon="6.86919">
        <ele>1534.1999511719</ele>
        <time>2017-10-12T08:28:11.000Z</time>
      </trkpt>
      <trkpt lat="46.14598" lon="6.86929">
        <ele>1532</ele>
        <time>2017-10-12T08:28:18.000Z</time>
      </trkpt>
      <trkpt lat="46.14582" lon="6.86946">
        <ele>1527.8000488281</ele>
        <time>2017-10-12T08:28:26.000Z</time>
      </trkpt>
      <trkpt lat="46.14567" lon="6.86962">
        <ele>1524</ele>
        <time>2017-10-12T08:28:34.000Z</time>
      </trkpt>
      <trkpt lat="46.1455" lon="6.86972">
        <ele>1522.5999755859</ele>
        <time>2017-10-12T08:28:41.000Z</time>
      </trkpt>
      <trkpt lat="46.14533" lon="6.86985">
        <ele>1523.4000244141</ele>
        <time>2017-10-12T08:28:48.000Z</time>
      </trkpt>
      <trkpt lat="46.14518" lon="6.86981">
        <ele>1529.5999755859</ele>
        <time>2017-10-12T08:28:59.000Z</time>
      </trkpt>
      <trkpt lat="46.14506" lon="6.86974">
        <ele>1535.1999511719</ele>
        <time>2017-10-12T08:29:10.000Z</time>
      </trkpt>
      <trkpt lat="46.14491" lon="6.86957">
        <ele>1544.5999755859</ele>
        <time>2017-10-12T08:29:23.000Z</time>
      </trkpt>
      <trkpt lat="46.14489" lon="6.86955">
        <ele>1545.8000488281</ele>
        <time>2017-10-12T08:29:25.000Z</time>
      </trkpt>
      <trkpt lat="46.14487" lon="6.86959">
        <ele>1545.5999755859</ele>
        <time>2017-10-12T08:29:28.000Z</time>
      </trkpt>
      <trkpt lat="46.14475" lon="6.86976">
        <ele>1545.5999755859</ele>
        <time>2017-10-12T08:29:37.000Z</time>
      </trkpt>
      <trkpt lat="46.14465" lon="6.86977">
        <ele>1550.1999511719</ele>
        <time>2017-10-12T08:29:42.000Z</time>
      </trkpt>
      <trkpt lat="46.14466" lon="6.87001">
        <ele>1542.1999511719</ele>
        <time>2017-10-12T08:29:51.000Z</time>
      </trkpt>
      <trkpt lat="46.14471" lon="6.87021">
        <ele>1535.8000488281</ele>
        <time>2017-10-12T08:30:06.000Z</time>
      </trkpt>
      <trkpt lat="46.1447" lon="6.87021">
        <ele>1536.1999511719</ele>
        <time>2017-10-12T08:30:10.000Z</time>
      </trkpt>
      <trkpt lat="46.14468" lon="6.87018">
        <ele>1537.5999755859</ele>
        <time>2017-10-12T08:30:13.000Z</time>
      </trkpt>
      <trkpt lat="46.14469" lon="6.87004">
        <ele>1540.4000244141</ele>
        <time>2017-10-12T08:30:26.000Z</time>
      </trkpt>
      <trkpt lat="46.14462" lon="6.87005">
        <ele>1542.5999755859</ele>
        <time>2017-10-12T08:30:35.000Z</time>
      </trkpt>
      <trkpt lat="46.14454" lon="6.87021">
        <ele>1541.5999755859</ele>
        <time>2017-10-12T08:30:52.000Z</time>
      </trkpt>
      <trkpt lat="46.14436" lon="6.87024">
        <ele>1547.4000244141</ele>
        <time>2017-10-12T08:31:10.000Z</time>
      </trkpt>
      <trkpt lat="46.14427" lon="6.87026">
        <ele>1550</ele>
        <time>2017-10-12T08:31:20.000Z</time>
      </trkpt>
      <trkpt lat="46.14426" lon="6.87023">
        <ele>1550.8000488281</ele>
        <time>2017-10-12T08:31:22.000Z</time>
      </trkpt>
      <trkpt lat="46.14427" lon="6.87021">
        <ele>1551.1999511719</ele>
        <time>2017-10-12T08:31:24.000Z</time>
      </trkpt>
      <trkpt lat="46.1443" lon="6.86994">
        <ele>1556.4000244141</ele>
        <time>2017-10-12T08:31:41.000Z</time>
      </trkpt>
      <trkpt lat="46.14428" lon="6.86984">
        <ele>1560.1999511719</ele>
        <time>2017-10-12T08:31:50.000Z</time>
      </trkpt>
      <trkpt lat="46.14426" lon="6.86988">
        <ele>1559.4000244141</ele>
        <time>2017-10-12T08:31:54.000Z</time>
      </trkpt>
      <trkpt lat="46.14423" lon="6.86991">
        <ele>1559.5999755859</ele>
        <time>2017-10-12T08:31:58.000Z</time>
      </trkpt>
      <trkpt lat="46.14416" lon="6.86989">
        <ele>1562.5999755859</ele>
        <time>2017-10-12T08:32:11.000Z</time>
      </trkpt>
      <trkpt lat="46.14418" lon="6.86963">
        <ele>1572.4000244141</ele>
        <time>2017-10-12T08:32:25.000Z</time>
      </trkpt>
      <trkpt lat="46.14413" lon="6.86954">
        <ele>1578</ele>
        <time>2017-10-12T08:32:39.000Z</time>
      </trkpt>
      <trkpt lat="46.14399" lon="6.86967">
        <ele>1577.5999755859</ele>
        <time>2017-10-12T08:32:55.000Z</time>
      </trkpt>
      <trkpt lat="46.14385" lon="6.86986">
        <ele>1581.8000488281</ele>
        <time>2017-10-12T08:33:10.000Z</time>
      </trkpt>
      <trkpt lat="46.14381" lon="6.87012">
        <ele>1580.5999755859</ele>
        <time>2017-10-12T08:33:23.000Z</time>
      </trkpt>
      <trkpt lat="46.14372" lon="6.87035">
        <ele>1586.5999755859</ele>
        <time>2017-10-12T08:33:39.000Z</time>
      </trkpt>
      <trkpt lat="46.14357" lon="6.87051">
        <ele>1594.5999755859</ele>
        <time>2017-10-12T08:33:53.000Z</time>
      </trkpt>
      <trkpt lat="46.14353" lon="6.87076">
        <ele>1584.4000244141</ele>
        <time>2017-10-12T08:34:08.000Z</time>
      </trkpt>
      <trkpt lat="46.14344" lon="6.87099">
        <ele>1585.5999755859</ele>
        <time>2017-10-12T08:34:22.000Z</time>
      </trkpt>
      <trkpt lat="46.14338" lon="6.87123">
        <ele>1582</ele>
        <time>2017-10-12T08:34:35.000Z</time>
      </trkpt>
      <trkpt lat="46.14336" lon="6.87132">
        <ele>1580</ele>
        <time>2017-10-12T08:34:41.000Z</time>
      </trkpt>
      <trkpt lat="46.14337" lon="6.87158">
        <ele>1570.1999511719</ele>
        <time>2017-10-12T08:34:56.000Z</time>
      </trkpt>
      <trkpt lat="46.14324" lon="6.87175">
        <ele>1576.4000244141</ele>
        <time>2017-10-12T08:35:10.000Z</time>
      </trkpt>
      <trkpt lat="46.14313" lon="6.87197">
        <ele>1577</ele>
        <time>2017-10-12T08:35:23.000Z</time>
      </trkpt>
      <trkpt lat="46.14302" lon="6.87218">
        <ele>1581.4000244141</ele>
        <time>2017-10-12T08:35:36.000Z</time>
      </trkpt>
      <trkpt lat="46.14296" lon="6.87226">
        <ele>1584.4000244141</ele>
        <time>2017-10-12T08:35:43.000Z</time>
      </trkpt>
      <trkpt lat="46.14287" lon="6.87226">
        <ele>1591.5999755859</ele>
        <time>2017-10-12T08:35:54.000Z</time>
      </trkpt>
      <trkpt lat="46.14277" lon="6.87239">
        <ele>1592.5999755859</ele>
        <time>2017-10-12T08:36:07.000Z</time>
      </trkpt>
      <trkpt lat="46.14276" lon="6.87241">
        <ele>1592.4000244141</ele>
        <time>2017-10-12T08:36:10.000Z</time>
      </trkpt>
      <trkpt lat="46.14275" lon="6.87245">
        <ele>1592.1999511719</ele>
        <time>2017-10-12T08:36:13.000Z</time>
      </trkpt>
      <trkpt lat="46.14263" lon="6.87264">
        <ele>1596.4000244141</ele>
        <time>2017-10-12T08:36:28.000Z</time>
      </trkpt>
      <trkpt lat="46.14256" lon="6.87274">
        <ele>1598.5999755859</ele>
        <time>2017-10-12T08:36:37.000Z</time>
      </trkpt>
      <trkpt lat="46.14255" lon="6.87276">
        <ele>1599</ele>
        <time>2017-10-12T08:36:41.000Z</time>
      </trkpt>
      <trkpt lat="46.14254" lon="6.87277">
        <ele>1599.1999511719</ele>
        <time>2017-10-12T08:36:43.000Z</time>
      </trkpt>
      <trkpt lat="46.14254" lon="6.87279">
        <ele>1599.1999511719</ele>
        <time>2017-10-12T08:36:45.000Z</time>
      </trkpt>
      <trkpt lat="46.1425" lon="6.87292">
        <ele>1597.5999755859</ele>
        <time>2017-10-12T08:36:56.000Z</time>
      </trkpt>
      <trkpt lat="46.14248" lon="6.87298">
        <ele>1597.4000244141</ele>
        <time>2017-10-12T08:37:02.000Z</time>
      </trkpt>
      <trkpt lat="46.14247" lon="6.87301">
        <ele>1597.4000244141</ele>
        <time>2017-10-12T08:37:05.000Z</time>
      </trkpt>
      <trkpt lat="46.14246" lon="6.87302">
        <ele>1597.8000488281</ele>
        <time>2017-10-12T08:37:07.000Z</time>
      </trkpt>
      <trkpt lat="46.14244" lon="6.87305">
        <ele>1597.8000488281</ele>
        <time>2017-10-12T08:37:11.000Z</time>
      </trkpt>
      <trkpt lat="46.14241" lon="6.87311">
        <ele>1598.1999511719</ele>
        <time>2017-10-12T08:37:16.000Z</time>
      </trkpt>
      <trkpt lat="46.14236" lon="6.87318">
        <ele>1600</ele>
        <time>2017-10-12T08:37:24.000Z</time>
      </trkpt>
      <trkpt lat="46.14233" lon="6.87319">
        <ele>1602</ele>
        <time>2017-10-12T08:37:29.000Z</time>
      </trkpt>
      <trkpt lat="46.14232" lon="6.87325">
        <ele>1601.4000244141</ele>
        <time>2017-10-12T08:37:34.000Z</time>
      </trkpt>
      <trkpt lat="46.14233" lon="6.87336">
        <ele>1596.4000244141</ele>
        <time>2017-10-12T08:37:42.000Z</time>
      </trkpt>
      <trkpt lat="46.14233" lon="6.87338">
        <ele>1595.4000244141</ele>
        <time>2017-10-12T08:37:47.000Z</time>
      </trkpt>
      <trkpt lat="46.14233" lon="6.87339">
        <ele>1594.5999755859</ele>
        <time>2017-10-12T08:37:48.000Z</time>
      </trkpt>
      <trkpt lat="46.14235" lon="6.87341">
        <ele>1593.1999511719</ele>
        <time>2017-10-12T08:37:50.000Z</time>
      </trkpt>
      <trkpt lat="46.14235" lon="6.87344">
        <ele>1591.5999755859</ele>
        <time>2017-10-12T08:37:53.000Z</time>
      </trkpt>
      <trkpt lat="46.1422" lon="6.87354">
        <ele>1609.8000488281</ele>
        <time>2017-10-12T08:38:12.000Z</time>
      </trkpt>
      <trkpt lat="46.14219" lon="6.87352">
        <ele>1615</ele>
        <time>2017-10-12T08:38:13.000Z</time>
      </trkpt>
      <trkpt lat="46.14217" lon="6.8735">
        <ele>1619.8000488281</ele>
        <time>2017-10-12T08:38:17.000Z</time>
      </trkpt>
      <trkpt lat="46.14211" lon="6.87356">
        <ele>1632.8000488281</ele>
        <time>2017-10-12T08:38:25.000Z</time>
      </trkpt>
      <trkpt lat="46.14211" lon="6.87356">
        <ele>1634.5999755859</ele>
        <time>2017-10-12T08:38:27.000Z</time>
      </trkpt>
      <trkpt lat="46.14208" lon="6.8738">
        <ele>1631.1999511719</ele>
        <time>2017-10-12T08:38:42.000Z</time>
      </trkpt>
      <trkpt lat="46.14209" lon="6.87405">
        <ele>1618.4000244141</ele>
        <time>2017-10-12T08:38:56.000Z</time>
      </trkpt>
      <trkpt lat="46.14213" lon="6.87431">
        <ele>1636.8000488281</ele>
        <time>2017-10-12T08:39:07.000Z</time>
      </trkpt>
      <trkpt lat="46.14211" lon="6.87459">
        <ele>1673</ele>
        <time>2017-10-12T08:39:17.000Z</time>
      </trkpt>
      <trkpt lat="46.14209" lon="6.87477">
        <ele>1691.5999755859</ele>
        <time>2017-10-12T08:39:25.000Z</time>
      </trkpt>
      <trkpt lat="46.1421" lon="6.87491">
        <ele>1686</ele>
        <time>2017-10-12T08:39:35.000Z</time>
      </trkpt>
      <trkpt lat="46.14213" lon="6.87496">
        <ele>1682</ele>
        <time>2017-10-12T08:39:40.000Z</time>
      </trkpt>
      <trkpt lat="46.14219" lon="6.87506">
        <ele>1671.5999755859</ele>
        <time>2017-10-12T08:39:48.000Z</time>
      </trkpt>
      <trkpt lat="46.14227" lon="6.8753">
        <ele>1657</ele>
        <time>2017-10-12T08:40:01.000Z</time>
      </trkpt>
      <trkpt lat="46.14235" lon="6.87537">
        <ele>1644.8000488281</ele>
        <time>2017-10-12T08:40:09.000Z</time>
      </trkpt>
      <trkpt lat="46.1423" lon="6.87552">
        <ele>1651</ele>
        <time>2017-10-12T08:40:30.000Z</time>
      </trkpt>
      <trkpt lat="46.14232" lon="6.8758">
        <ele>1645.4000244141</ele>
        <time>2017-10-12T08:40:47.000Z</time>
      </trkpt>
      <trkpt lat="46.14235" lon="6.87592">
        <ele>1640.5999755859</ele>
        <time>2017-10-12T08:40:55.000Z</time>
      </trkpt>
      <trkpt lat="46.14236" lon="6.87596">
        <ele>1638.1999511719</ele>
        <time>2017-10-12T08:40:58.000Z</time>
      </trkpt>
      <trkpt lat="46.14235" lon="6.87606">
        <ele>1638.4000244141</ele>
        <time>2017-10-12T08:41:04.000Z</time>
      </trkpt>
      <trkpt lat="46.14239" lon="6.87615">
        <ele>1633</ele>
        <time>2017-10-12T08:41:10.000Z</time>
      </trkpt>
      <trkpt lat="46.14244" lon="6.87641">
        <ele>1622.8000488281</ele>
        <time>2017-10-12T08:41:22.000Z</time>
      </trkpt>
      <trkpt lat="46.1424" lon="6.87651">
        <ele>1628</ele>
        <time>2017-10-12T08:41:28.000Z</time>
      </trkpt>
      <trkpt lat="46.14235" lon="6.87655">
        <ele>1635.1999511719</ele>
        <time>2017-10-12T08:41:33.000Z</time>
      </trkpt>
      <trkpt lat="46.14232" lon="6.87662">
        <ele>1640.1999511719</ele>
        <time>2017-10-12T08:41:39.000Z</time>
      </trkpt>
      <trkpt lat="46.14235" lon="6.87676">
        <ele>1635.8000488281</ele>
        <time>2017-10-12T08:41:46.000Z</time>
      </trkpt>
      <trkpt lat="46.14231" lon="6.87685">
        <ele>1640</ele>
        <time>2017-10-12T08:41:54.000Z</time>
      </trkpt>
      <trkpt lat="46.14231" lon="6.8769">
        <ele>1640.5999755859</ele>
        <time>2017-10-12T08:41:59.000Z</time>
      </trkpt>
      <trkpt lat="46.14231" lon="6.87695">
        <ele>1640.8000488281</ele>
        <time>2017-10-12T08:42:03.000Z</time>
      </trkpt>
      <trkpt lat="46.14231" lon="6.87697">
        <ele>1640.1999511719</ele>
        <time>2017-10-12T08:42:05.000Z</time>
      </trkpt>
      <trkpt lat="46.14229" lon="6.87714">
        <ele>1641.4000244141</ele>
        <time>2017-10-12T08:42:17.000Z</time>
      </trkpt>
      <trkpt lat="46.14231" lon="6.87721">
        <ele>1638.1999511719</ele>
        <time>2017-10-12T08:42:21.000Z</time>
      </trkpt>
      <trkpt lat="46.14233" lon="6.87729">
        <ele>1635.1999511719</ele>
        <time>2017-10-12T08:42:25.000Z</time>
      </trkpt>
      <trkpt lat="46.1423" lon="6.87742">
        <ele>1639.1999511719</ele>
        <time>2017-10-12T08:42:36.000Z</time>
      </trkpt>
      <trkpt lat="46.14229" lon="6.87748">
        <ele>1640.4000244141</ele>
        <time>2017-10-12T08:42:39.000Z</time>
      </trkpt>
      <trkpt lat="46.14228" lon="6.87774">
        <ele>1640.4000244141</ele>
        <time>2017-10-12T08:42:52.000Z</time>
      </trkpt>
      <trkpt lat="46.14229" lon="6.87779">
        <ele>1639.1999511719</ele>
        <time>2017-10-12T08:42:56.000Z</time>
      </trkpt>
      <trkpt lat="46.14228" lon="6.87784">
        <ele>1639.4000244141</ele>
        <time>2017-10-12T08:43:01.000Z</time>
      </trkpt>
      <trkpt lat="46.14225" lon="6.87786">
        <ele>1643.8000488281</ele>
        <time>2017-10-12T08:43:06.000Z</time>
      </trkpt>
      <trkpt lat="46.14223" lon="6.87785">
        <ele>1646.4000244141</ele>
        <time>2017-10-12T08:43:10.000Z</time>
      </trkpt>
      <trkpt lat="46.14222" lon="6.87785">
        <ele>1647.4000244141</ele>
        <time>2017-10-12T08:43:11.000Z</time>
      </trkpt>
      <trkpt lat="46.14219" lon="6.87787">
        <ele>1651</ele>
        <time>2017-10-12T08:43:16.000Z</time>
      </trkpt>
      <trkpt lat="46.1422" lon="6.87788">
        <ele>1650</ele>
        <time>2017-10-12T08:43:17.000Z</time>
      </trkpt>
      <trkpt lat="46.1422" lon="6.8779">
        <ele>1649.8000488281</ele>
        <time>2017-10-12T08:43:19.000Z</time>
      </trkpt>
      <trkpt lat="46.1422" lon="6.87793">
        <ele>1649.5999755859</ele>
        <time>2017-10-12T08:43:23.000Z</time>
      </trkpt>
      <trkpt lat="46.14221" lon="6.87793">
        <ele>1649.1999511719</ele>
        <time>2017-10-12T08:43:25.000Z</time>
      </trkpt>
      <trkpt lat="46.14221" lon="6.87807">
        <ele>1648.4000244141</ele>
        <time>2017-10-12T08:44:06.000Z</time>
      </trkpt>
      <trkpt lat="46.14219" lon="6.87813">
        <ele>1650.1999511719</ele>
        <time>2017-10-12T08:44:18.000Z</time>
      </trkpt>
      <trkpt lat="46.14221" lon="6.87815">
        <ele>1648</ele>
        <time>2017-10-12T08:44:21.000Z</time>
      </trkpt>
      <trkpt lat="46.14221" lon="6.87818">
        <ele>1647.1999511719</ele>
        <time>2017-10-12T08:44:24.000Z</time>
      </trkpt>
      <trkpt lat="46.14221" lon="6.87819">
        <ele>1646.8000488281</ele>
        <time>2017-10-12T08:44:26.000Z</time>
      </trkpt>
      <trkpt lat="46.14221" lon="6.87823">
        <ele>1647.1999511719</ele>
        <time>2017-10-12T08:44:30.000Z</time>
      </trkpt>
      <trkpt lat="46.14219" lon="6.87825">
        <ele>1650</ele>
        <time>2017-10-12T08:44:34.000Z</time>
      </trkpt>
      <trkpt lat="46.14216" lon="6.87827">
        <ele>1653</ele>
        <time>2017-10-12T08:44:39.000Z</time>
      </trkpt>
      <trkpt lat="46.14216" lon="6.87828">
        <ele>1653.4000244141</ele>
        <time>2017-10-12T08:44:40.000Z</time>
      </trkpt>
      <trkpt lat="46.1421" lon="6.87835">
        <ele>1661.8000488281</ele>
        <time>2017-10-12T08:44:56.000Z</time>
      </trkpt>
      <trkpt lat="46.14208" lon="6.87838">
        <ele>1664.1999511719</ele>
        <time>2017-10-12T08:44:59.000Z</time>
      </trkpt>
      <trkpt lat="46.14206" lon="6.87841">
        <ele>1666.8000488281</ele>
        <time>2017-10-12T08:45:02.000Z</time>
      </trkpt>
      <trkpt lat="46.14205" lon="6.87844">
        <ele>1668.4000244141</ele>
        <time>2017-10-12T08:45:05.000Z</time>
      </trkpt>
      <trkpt lat="46.14203" lon="6.87848">
        <ele>1670.4000244141</ele>
        <time>2017-10-12T08:45:09.000Z</time>
      </trkpt>
      <trkpt lat="46.14202" lon="6.87847">
        <ele>1672</ele>
        <time>2017-10-12T08:45:12.000Z</time>
      </trkpt>
      <trkpt lat="46.142" lon="6.87847">
        <ele>1674.1999511719</ele>
        <time>2017-10-12T08:45:14.000Z</time>
      </trkpt>
      <trkpt lat="46.14198" lon="6.87851">
        <ele>1677.1999511719</ele>
        <time>2017-10-12T08:45:18.000Z</time>
      </trkpt>
      <trkpt lat="46.14197" lon="6.87853">
        <ele>1678.4000244141</ele>
        <time>2017-10-12T08:45:20.000Z</time>
      </trkpt>
      <trkpt lat="46.14196" lon="6.87855">
        <ele>1679.8000488281</ele>
        <time>2017-10-12T08:45:23.000Z</time>
      </trkpt>
      <trkpt lat="46.14196" lon="6.87857">
        <ele>1680.8000488281</ele>
        <time>2017-10-12T08:45:25.000Z</time>
      </trkpt>
      <trkpt lat="46.14193" lon="6.87858">
        <ele>1683.8000488281</ele>
        <time>2017-10-12T08:45:29.000Z</time>
      </trkpt>
      <trkpt lat="46.14192" lon="6.87859">
        <ele>1685.1999511719</ele>
        <time>2017-10-12T08:45:31.000Z</time>
      </trkpt>
      <trkpt lat="46.14191" lon="6.8786">
        <ele>1686.8000488281</ele>
        <time>2017-10-12T08:45:34.000Z</time>
      </trkpt>
      <trkpt lat="46.14191" lon="6.87876">
        <ele>1686.8000488281</ele>
        <time>2017-10-12T08:45:52.000Z</time>
      </trkpt>
      <trkpt lat="46.14191" lon="6.87878">
        <ele>1686.8000488281</ele>
        <time>2017-10-12T08:45:54.000Z</time>
      </trkpt>
      <trkpt lat="46.14184" lon="6.87902">
        <ele>1692.4000244141</ele>
        <time>2017-10-12T08:46:14.000Z</time>
      </trkpt>
      <trkpt lat="46.14187" lon="6.87909">
        <ele>1690</ele>
        <time>2017-10-12T08:46:18.000Z</time>
      </trkpt>
      <trkpt lat="46.14187" lon="6.87911">
        <ele>1690.1999511719</ele>
        <time>2017-10-12T08:46:20.000Z</time>
      </trkpt>
      <trkpt lat="46.14184" lon="6.87937">
        <ele>1703.4000244141</ele>
        <time>2017-10-12T08:46:42.000Z</time>
      </trkpt>
      <trkpt lat="46.14176" lon="6.87961">
        <ele>1716.1999511719</ele>
        <time>2017-10-12T08:47:11.000Z</time>
      </trkpt>
      <trkpt lat="46.1417" lon="6.87984">
        <ele>1725.4000244141</ele>
        <time>2017-10-12T08:47:30.000Z</time>
      </trkpt>
      <trkpt lat="46.14159" lon="6.88004">
        <ele>1747.5999755859</ele>
        <time>2017-10-12T08:48:02.000Z</time>
      </trkpt>
      <trkpt lat="46.14152" lon="6.88016">
        <ele>1759.8000488281</ele>
        <time>2017-10-12T08:48:36.000Z</time>
      </trkpt>
      <trkpt lat="46.14148" lon="6.8801">
        <ele>1759.5999755859</ele>
        <time>2017-10-12T08:49:21.000Z</time>
      </trkpt>
      <trkpt lat="46.14137" lon="6.88028">
        <ele>1778.5999755859</ele>
        <time>2017-10-12T08:50:11.000Z</time>
      </trkpt>
      <trkpt lat="46.14123" lon="6.88044">
        <ele>1799</ele>
        <time>2017-10-12T08:50:47.000Z</time>
      </trkpt>
      <trkpt lat="46.1411" lon="6.88056">
        <ele>1811.4000244141</ele>
        <time>2017-10-12T08:51:18.000Z</time>
      </trkpt>
      <trkpt lat="46.14099" lon="6.88067">
        <ele>1820</ele>
        <time>2017-10-12T08:51:35.000Z</time>
      </trkpt>
      <trkpt lat="46.14081" lon="6.88074">
        <ele>1831.5999755859</ele>
        <time>2017-10-12T08:51:46.000Z</time>
      </trkpt>
      <trkpt lat="46.14065" lon="6.88088">
        <ele>1848.8000488281</ele>
        <time>2017-10-12T08:52:02.000Z</time>
      </trkpt>
      <trkpt lat="46.14046" lon="6.88088">
        <ele>1853.4000244141</ele>
        <time>2017-10-12T08:52:21.000Z</time>
      </trkpt>
      <trkpt lat="46.14027" lon="6.88087">
        <ele>1858.1999511719</ele>
        <time>2017-10-12T08:52:39.000Z</time>
      </trkpt>
      <trkpt lat="46.14009" lon="6.88095">
        <ele>1868</ele>
        <time>2017-10-12T08:52:53.000Z</time>
      </trkpt>
      <trkpt lat="46.14003" lon="6.88114">
        <ele>1876.5999755859</ele>
        <time>2017-10-12T08:53:03.000Z</time>
      </trkpt>
      <trkpt lat="46.14008" lon="6.88135">
        <ele>1883.1999511719</ele>
        <time>2017-10-12T08:53:10.000Z</time>
      </trkpt>
      <trkpt lat="46.14011" lon="6.88146">
        <ele>1886.5999755859</ele>
        <time>2017-10-12T08:53:14.000Z</time>
      </trkpt>
      <trkpt lat="46.1401" lon="6.88149">
        <ele>1887.5999755859</ele>
        <time>2017-10-12T08:53:17.000Z</time>
      </trkpt>
      <trkpt lat="46.14014" lon="6.88141">
        <ele>1885.4000244141</ele>
        <time>2017-10-12T08:53:30.000Z</time>
      </trkpt>
      <trkpt lat="46.13999" lon="6.88154">
        <ele>1888</ele>
        <time>2017-10-12T08:53:49.000Z</time>
      </trkpt>
      <trkpt lat="46.13993" lon="6.88157">
        <ele>1888.5999755859</ele>
        <time>2017-10-12T08:53:58.000Z</time>
      </trkpt>
      <trkpt lat="46.13986" lon="6.88155">
        <ele>1887.1999511719</ele>
        <time>2017-10-12T08:54:01.000Z</time>
      </trkpt>
      <trkpt lat="46.13976" lon="6.88149">
        <ele>1885</ele>
        <time>2017-10-12T08:54:05.000Z</time>
      </trkpt>
      <trkpt lat="46.13971" lon="6.88143">
        <ele>1883.1999511719</ele>
        <time>2017-10-12T08:54:10.000Z</time>
      </trkpt>
      <trkpt lat="46.13967" lon="6.88138">
        <ele>1881.8000488281</ele>
        <time>2017-10-12T08:54:13.000Z</time>
      </trkpt>
      <trkpt lat="46.13962" lon="6.88136">
        <ele>1881.1999511719</ele>
        <time>2017-10-12T08:54:16.000Z</time>
      </trkpt>
      <trkpt lat="46.13958" lon="6.88137">
        <ele>1881.5999755859</ele>
        <time>2017-10-12T08:54:20.000Z</time>
      </trkpt>
      <trkpt lat="46.13958" lon="6.88139">
        <ele>1881.4000244141</ele>
        <time>2017-10-12T08:54:24.000Z</time>
      </trkpt>
      <trkpt lat="46.1396" lon="6.88144">
        <ele>1882.1999511719</ele>
        <time>2017-10-12T08:54:29.000Z</time>
      </trkpt>
      <trkpt lat="46.1396" lon="6.88145">
        <ele>1882</ele>
        <time>2017-10-12T08:54:31.000Z</time>
      </trkpt>
      <trkpt lat="46.13958" lon="6.88143">
        <ele>1881.4000244141</ele>
        <time>2017-10-12T08:54:34.000Z</time>
      </trkpt>
      <trkpt lat="46.13957" lon="6.88143">
        <ele>1881</ele>
        <time>2017-10-12T08:54:36.000Z</time>
      </trkpt>
      <trkpt lat="46.13944" lon="6.88159">
        <ele>1877.8000488281</ele>
        <time>2017-10-12T08:55:03.000Z</time>
      </trkpt>
      <trkpt lat="46.13932" lon="6.88178">
        <ele>1883</ele>
        <time>2017-10-12T08:55:24.000Z</time>
      </trkpt>
      <trkpt lat="46.13927" lon="6.88204">
        <ele>1889.1999511719</ele>
        <time>2017-10-12T08:55:38.000Z</time>
      </trkpt>
      <trkpt lat="46.1391" lon="6.88219">
        <ele>1882.8000488281</ele>
        <time>2017-10-12T08:55:55.000Z</time>
      </trkpt>
      <trkpt lat="46.13899" lon="6.8824">
        <ele>1880.5999755859</ele>
        <time>2017-10-12T08:56:13.000Z</time>
      </trkpt>
      <trkpt lat="46.13884" lon="6.88255">
        <ele>1875.1999511719</ele>
        <time>2017-10-12T08:56:35.000Z</time>
      </trkpt>
      <trkpt lat="46.13868" lon="6.88268">
        <ele>1868.1999511719</ele>
        <time>2017-10-12T08:56:46.000Z</time>
      </trkpt>
      <trkpt lat="46.13865" lon="6.88272">
        <ele>1867.8000488281</ele>
        <time>2017-10-12T08:56:50.000Z</time>
      </trkpt>
      <trkpt lat="46.13864" lon="6.88278">
        <ele>1868.4000244141</ele>
        <time>2017-10-12T08:56:55.000Z</time>
      </trkpt>
      <trkpt lat="46.13863" lon="6.8828">
        <ele>1868.4000244141</ele>
        <time>2017-10-12T08:56:57.000Z</time>
      </trkpt>
      <trkpt lat="46.13862" lon="6.88282">
        <ele>1868.4000244141</ele>
        <time>2017-10-12T08:56:59.000Z</time>
      </trkpt>
      <trkpt lat="46.13855" lon="6.88304">
        <ele>1865</ele>
        <time>2017-10-12T08:57:25.000Z</time>
      </trkpt>
      <trkpt lat="46.1385" lon="6.88329">
        <ele>1862.5999755859</ele>
        <time>2017-10-12T08:57:40.000Z</time>
      </trkpt>
      <trkpt lat="46.13844" lon="6.88335">
        <ele>1858.8000488281</ele>
        <time>2017-10-12T08:57:48.000Z</time>
      </trkpt>
      <trkpt lat="46.13832" lon="6.88356">
        <ele>1859</ele>
        <time>2017-10-12T08:58:01.000Z</time>
      </trkpt>
      <trkpt lat="46.13827" lon="6.88365">
        <ele>1862</ele>
        <time>2017-10-12T08:58:11.000Z</time>
      </trkpt>
      <trkpt lat="46.13825" lon="6.88373">
        <ele>1867</ele>
        <time>2017-10-12T08:58:19.000Z</time>
      </trkpt>
      <trkpt lat="46.13822" lon="6.88379">
        <ele>1869.8000488281</ele>
        <time>2017-10-12T08:58:24.000Z</time>
      </trkpt>
      <trkpt lat="46.13814" lon="6.88394">
        <ele>1875</ele>
        <time>2017-10-12T08:58:33.000Z</time>
      </trkpt>
      <trkpt lat="46.13811" lon="6.88415">
        <ele>1886.5999755859</ele>
        <time>2017-10-12T08:58:50.000Z</time>
      </trkpt>
      <trkpt lat="46.138" lon="6.88429">
        <ele>1888</ele>
        <time>2017-10-12T08:59:07.000Z</time>
      </trkpt>
      <trkpt lat="46.13797" lon="6.88432">
        <ele>1887.5999755859</ele>
        <time>2017-10-12T08:59:11.000Z</time>
      </trkpt>
      <trkpt lat="46.13791" lon="6.88436">
        <ele>1886</ele>
        <time>2017-10-12T08:59:19.000Z</time>
      </trkpt>
      <trkpt lat="46.13788" lon="6.88437">
        <ele>1885.4000244141</ele>
        <time>2017-10-12T08:59:22.000Z</time>
      </trkpt>
      <trkpt lat="46.13786" lon="6.88441">
        <ele>1886</ele>
        <time>2017-10-12T08:59:25.000Z</time>
      </trkpt>
      <trkpt lat="46.13778" lon="6.88446">
        <ele>1884.5999755859</ele>
        <time>2017-10-12T08:59:33.000Z</time>
      </trkpt>
      <trkpt lat="46.13771" lon="6.88462">
        <ele>1890.8000488281</ele>
        <time>2017-10-12T08:59:45.000Z</time>
      </trkpt>
      <trkpt lat="46.13761" lon="6.88464">
        <ele>1888.4000244141</ele>
        <time>2017-10-12T08:59:54.000Z</time>
      </trkpt>
      <trkpt lat="46.13756" lon="6.88466">
        <ele>1887.5999755859</ele>
        <time>2017-10-12T08:59:58.000Z</time>
      </trkpt>
      <trkpt lat="46.1375" lon="6.88467">
        <ele>1886.5999755859</ele>
        <time>2017-10-12T09:00:05.000Z</time>
      </trkpt>
      <trkpt lat="46.13748" lon="6.88468">
        <ele>1886.1999511719</ele>
        <time>2017-10-12T09:00:07.000Z</time>
      </trkpt>
      <trkpt lat="46.13746" lon="6.8847">
        <ele>1886.8000488281</ele>
        <time>2017-10-12T09:00:11.000Z</time>
      </trkpt>
      <trkpt lat="46.13747" lon="6.88471">
        <ele>1888</ele>
        <time>2017-10-12T09:00:14.000Z</time>
      </trkpt>
      <trkpt lat="46.13754" lon="6.88474">
        <ele>1893</ele>
        <time>2017-10-12T09:00:21.000Z</time>
      </trkpt>
      <trkpt lat="46.13737" lon="6.88482">
        <ele>1892.4000244141</ele>
        <time>2017-10-12T09:00:39.000Z</time>
      </trkpt>
      <trkpt lat="46.13736" lon="6.88483">
        <ele>1892.8000488281</ele>
        <time>2017-10-12T09:00:41.000Z</time>
      </trkpt>
      <trkpt lat="46.13732" lon="6.8849">
        <ele>1895.8000488281</ele>
        <time>2017-10-12T09:00:49.000Z</time>
      </trkpt>
      <trkpt lat="46.13734" lon="6.88491">
        <ele>1897.1999511719</ele>
        <time>2017-10-12T09:00:51.000Z</time>
      </trkpt>
      <trkpt lat="46.13735" lon="6.88492">
        <ele>1898.4000244141</ele>
        <time>2017-10-12T09:00:53.000Z</time>
      </trkpt>
      <trkpt lat="46.13738" lon="6.88494">
        <ele>1900.5999755859</ele>
        <time>2017-10-12T09:01:00.000Z</time>
      </trkpt>
      <trkpt lat="46.13734" lon="6.88496">
        <ele>1899.8000488281</ele>
        <time>2017-10-12T09:01:03.000Z</time>
      </trkpt>
      <trkpt lat="46.13725" lon="6.88505">
        <ele>1901.5999755859</ele>
        <time>2017-10-12T09:01:13.000Z</time>
      </trkpt>
      <trkpt lat="46.13723" lon="6.88506">
        <ele>1902.1999511719</ele>
        <time>2017-10-12T09:01:16.000Z</time>
      </trkpt>
      <trkpt lat="46.13722" lon="6.88507">
        <ele>1902.4000244141</ele>
        <time>2017-10-12T09:01:18.000Z</time>
      </trkpt>
      <trkpt lat="46.13721" lon="6.88509">
        <ele>1903.5999755859</ele>
        <time>2017-10-12T09:01:21.000Z</time>
      </trkpt>
      <trkpt lat="46.13722" lon="6.88513">
        <ele>1905.5999755859</ele>
        <time>2017-10-12T09:01:25.000Z</time>
      </trkpt>
      <trkpt lat="46.13725" lon="6.88517">
        <ele>1908</ele>
        <time>2017-10-12T09:01:29.000Z</time>
      </trkpt>
      <trkpt lat="46.13727" lon="6.88519">
        <ele>1909.5999755859</ele>
        <time>2017-10-12T09:01:32.000Z</time>
      </trkpt>
      <trkpt lat="46.13732" lon="6.88519">
        <ele>1911.5999755859</ele>
        <time>2017-10-12T09:01:39.000Z</time>
      </trkpt>
      <trkpt lat="46.13737" lon="6.8852">
        <ele>1913.5999755859</ele>
        <time>2017-10-12T09:01:45.000Z</time>
      </trkpt>
      <trkpt lat="46.13742" lon="6.88519">
        <ele>1915</ele>
        <time>2017-10-12T09:01:51.000Z</time>
      </trkpt>
      <trkpt lat="46.1374" lon="6.88523">
        <ele>1916.4000244141</ele>
        <time>2017-10-12T09:01:56.000Z</time>
      </trkpt>
      <trkpt lat="46.13741" lon="6.88525">
        <ele>1917.8000488281</ele>
        <time>2017-10-12T09:01:58.000Z</time>
      </trkpt>
      <trkpt lat="46.13743" lon="6.88524">
        <ele>1918.4000244141</ele>
        <time>2017-10-12T09:02:01.000Z</time>
      </trkpt>
      <trkpt lat="46.13761" lon="6.88525">
        <ele>1925.5999755859</ele>
        <time>2017-10-12T09:02:19.000Z</time>
      </trkpt>
      <trkpt lat="46.13772" lon="6.88536">
        <ele>1935.5999755859</ele>
        <time>2017-10-12T09:02:30.000Z</time>
      </trkpt>
      <trkpt lat="46.13768" lon="6.88538">
        <ele>1935.1999511719</ele>
        <time>2017-10-12T09:02:36.000Z</time>
      </trkpt>
      <trkpt lat="46.1376" lon="6.8854">
        <ele>1933.4000244141</ele>
        <time>2017-10-12T09:02:43.000Z</time>
      </trkpt>
      <trkpt lat="46.13757" lon="6.88548">
        <ele>1936.4000244141</ele>
        <time>2017-10-12T09:02:50.000Z</time>
      </trkpt>
      <trkpt lat="46.13744" lon="6.88562">
        <ele>1939</ele>
        <time>2017-10-12T09:03:07.000Z</time>
      </trkpt>
      <trkpt lat="46.13741" lon="6.88564">
        <ele>1939.4000244141</ele>
        <time>2017-10-12T09:03:11.000Z</time>
      </trkpt>
      <trkpt lat="46.13738" lon="6.88565">
        <ele>1938.5999755859</ele>
        <time>2017-10-12T09:03:14.000Z</time>
      </trkpt>
      <trkpt lat="46.13736" lon="6.88568">
        <ele>1939.8000488281</ele>
        <time>2017-10-12T09:03:17.000Z</time>
      </trkpt>
      <trkpt lat="46.13735" lon="6.88572">
        <ele>1941.5999755859</ele>
        <time>2017-10-12T09:03:20.000Z</time>
      </trkpt>
      <trkpt lat="46.13735" lon="6.88576">
        <ele>1942.8000488281</ele>
        <time>2017-10-12T09:03:23.000Z</time>
      </trkpt>
      <trkpt lat="46.13731" lon="6.8858">
        <ele>1943.1999511719</ele>
        <time>2017-10-12T09:03:29.000Z</time>
      </trkpt>
      <trkpt lat="46.13729" lon="6.88585">
        <ele>1944.5999755859</ele>
        <time>2017-10-12T09:03:33.000Z</time>
      </trkpt>
      <trkpt lat="46.13728" lon="6.8859">
        <ele>1946.4000244141</ele>
        <time>2017-10-12T09:03:36.000Z</time>
      </trkpt>
      <trkpt lat="46.13723" lon="6.88601">
        <ele>1950</ele>
        <time>2017-10-12T09:03:44.000Z</time>
      </trkpt>
      <trkpt lat="46.13723" lon="6.88609">
        <ele>1952.8000488281</ele>
        <time>2017-10-12T09:03:52.000Z</time>
      </trkpt>
      <trkpt lat="46.13723" lon="6.88611">
        <ele>1954</ele>
        <time>2017-10-12T09:03:56.000Z</time>
      </trkpt>
      <trkpt lat="46.13721" lon="6.88614">
        <ele>1954.8000488281</ele>
        <time>2017-10-12T09:03:59.000Z</time>
      </trkpt>
      <trkpt lat="46.13719" lon="6.88615">
        <ele>1955</ele>
        <time>2017-10-12T09:04:01.000Z</time>
      </trkpt>
      <trkpt lat="46.13715" lon="6.88612">
        <ele>1953.1999511719</ele>
        <time>2017-10-12T09:04:05.000Z</time>
      </trkpt>
      <trkpt lat="46.13713" lon="6.88613">
        <ele>1953.1999511719</ele>
        <time>2017-10-12T09:04:08.000Z</time>
      </trkpt>
      <trkpt lat="46.13709" lon="6.88604">
        <ele>1949.1999511719</ele>
        <time>2017-10-12T09:04:13.000Z</time>
      </trkpt>
      <trkpt lat="46.13709" lon="6.88607">
        <ele>1950.4000244141</ele>
        <time>2017-10-12T09:04:15.000Z</time>
      </trkpt>
      <trkpt lat="46.13708" lon="6.88609">
        <ele>1951.1999511719</ele>
        <time>2017-10-12T09:04:17.000Z</time>
      </trkpt>
      <trkpt lat="46.13704" lon="6.88613">
        <ele>1952.4000244141</ele>
        <time>2017-10-12T09:04:21.000Z</time>
      </trkpt>
      <trkpt lat="46.13703" lon="6.88617">
        <ele>1953.5999755859</ele>
        <time>2017-10-12T09:04:24.000Z</time>
      </trkpt>
      <trkpt lat="46.13702" lon="6.8862">
        <ele>1954.8000488281</ele>
        <time>2017-10-12T09:04:27.000Z</time>
      </trkpt>
      <trkpt lat="46.13698" lon="6.8863">
        <ele>1957.8000488281</ele>
        <time>2017-10-12T09:04:37.000Z</time>
      </trkpt>
      <trkpt lat="46.13695" lon="6.88634">
        <ele>1958</ele>
        <time>2017-10-12T09:04:42.000Z</time>
      </trkpt>
      <trkpt lat="46.13694" lon="6.88635">
        <ele>1958</ele>
        <time>2017-10-12T09:04:44.000Z</time>
      </trkpt>
      <trkpt lat="46.13693" lon="6.88635">
        <ele>1957.5999755859</ele>
        <time>2017-10-12T09:04:47.000Z</time>
      </trkpt>
      <trkpt lat="46.13692" lon="6.88636">
        <ele>1957.5999755859</ele>
        <time>2017-10-12T09:04:49.000Z</time>
      </trkpt>
      <trkpt lat="46.13682" lon="6.88646">
        <ele>1957.1999511719</ele>
        <time>2017-10-12T09:05:03.000Z</time>
      </trkpt>
      <trkpt lat="46.1368" lon="6.88645">
        <ele>1956.4000244141</ele>
        <time>2017-10-12T09:05:06.000Z</time>
      </trkpt>
      <trkpt lat="46.13678" lon="6.88649">
        <ele>1956.8000488281</ele>
        <time>2017-10-12T09:05:11.000Z</time>
      </trkpt>
      <trkpt lat="46.13677" lon="6.88652">
        <ele>1957.1999511719</ele>
        <time>2017-10-12T09:05:13.000Z</time>
      </trkpt>
      <trkpt lat="46.13677" lon="6.88655">
        <ele>1958.1999511719</ele>
        <time>2017-10-12T09:05:17.000Z</time>
      </trkpt>
      <trkpt lat="46.13675" lon="6.88663">
        <ele>1959</ele>
        <time>2017-10-12T09:05:25.000Z</time>
      </trkpt>
      <trkpt lat="46.13674" lon="6.88688">
        <ele>1964</ele>
        <time>2017-10-12T09:05:43.000Z</time>
      </trkpt>
      <trkpt lat="46.13673" lon="6.88714">
        <ele>1967.8000488281</ele>
        <time>2017-10-12T09:06:02.000Z</time>
      </trkpt>
      <trkpt lat="46.13675" lon="6.8874">
        <ele>1972.5999755859</ele>
        <time>2017-10-12T09:06:18.000Z</time>
      </trkpt>
      <trkpt lat="46.13672" lon="6.88765">
        <ele>1974.8000488281</ele>
        <time>2017-10-12T09:06:34.000Z</time>
      </trkpt>
      <trkpt lat="46.13672" lon="6.8877">
        <ele>1975.4000244141</ele>
        <time>2017-10-12T09:06:39.000Z</time>
      </trkpt>
      <trkpt lat="46.13672" lon="6.88771">
        <ele>1975.1999511719</ele>
        <time>2017-10-12T09:06:41.000Z</time>
      </trkpt>
      <trkpt lat="46.1367" lon="6.88773">
        <ele>1974.8000488281</ele>
        <time>2017-10-12T09:06:43.000Z</time>
      </trkpt>
      <trkpt lat="46.13669" lon="6.88776">
        <ele>1974.4000244141</ele>
        <time>2017-10-12T09:06:45.000Z</time>
      </trkpt>
      <trkpt lat="46.13669" lon="6.88783">
        <ele>1974.8000488281</ele>
        <time>2017-10-12T09:06:50.000Z</time>
      </trkpt>
      <trkpt lat="46.13666" lon="6.88803">
        <ele>1974.8000488281</ele>
        <time>2017-10-12T09:07:08.000Z</time>
      </trkpt>
      <trkpt lat="46.13667" lon="6.88806">
        <ele>1975.4000244141</ele>
        <time>2017-10-12T09:07:10.000Z</time>
      </trkpt>
      <trkpt lat="46.13668" lon="6.88808">
        <ele>1976</ele>
        <time>2017-10-12T09:07:12.000Z</time>
      </trkpt>
      <trkpt lat="46.13671" lon="6.88828">
        <ele>1978</ele>
        <time>2017-10-12T09:07:24.000Z</time>
      </trkpt>
      <trkpt lat="46.13671" lon="6.88854">
        <ele>1978.1999511719</ele>
        <time>2017-10-12T09:07:40.000Z</time>
      </trkpt>
      <trkpt lat="46.13672" lon="6.88857">
        <ele>1979</ele>
        <time>2017-10-12T09:07:43.000Z</time>
      </trkpt>
      <trkpt lat="46.13676" lon="6.8886">
        <ele>1980.4000244141</ele>
        <time>2017-10-12T09:07:47.000Z</time>
      </trkpt>
      <trkpt lat="46.13676" lon="6.88863">
        <ele>1980.5999755859</ele>
        <time>2017-10-12T09:07:51.000Z</time>
      </trkpt>
      <trkpt lat="46.13676" lon="6.88863">
        <ele>1980.5999755859</ele>
        <time>2017-10-12T09:07:53.000Z</time>
      </trkpt>
      <trkpt lat="46.13673" lon="6.88881">
        <ele>1979.4000244141</ele>
        <time>2017-10-12T09:09:04.000Z</time>
      </trkpt>
      <trkpt lat="46.13674" lon="6.88889">
        <ele>1980</ele>
        <time>2017-10-12T09:10:13.000Z</time>
      </trkpt>
      <trkpt lat="46.13684" lon="6.88911">
        <ele>1984.4000244141</ele>
        <time>2017-10-12T09:10:28.000Z</time>
      </trkpt>
      <trkpt lat="46.13687" lon="6.8893">
        <ele>1986.4000244141</ele>
        <time>2017-10-12T09:10:43.000Z</time>
      </trkpt>
      <trkpt lat="46.1369" lon="6.88937">
        <ele>1988</ele>
        <time>2017-10-12T09:10:50.000Z</time>
      </trkpt>
      <trkpt lat="46.13691" lon="6.8894">
        <ele>1988.1999511719</ele>
        <time>2017-10-12T09:10:52.000Z</time>
      </trkpt>
      <trkpt lat="46.13692" lon="6.88966">
        <ele>1989.5999755859</ele>
        <time>2017-10-12T09:11:13.000Z</time>
      </trkpt>
      <trkpt lat="46.13692" lon="6.88992">
        <ele>1990.1999511719</ele>
        <time>2017-10-12T09:11:29.000Z</time>
      </trkpt>
      <trkpt lat="46.13694" lon="6.89018">
        <ele>1991</ele>
        <time>2017-10-12T09:11:44.000Z</time>
      </trkpt>
      <trkpt lat="46.137" lon="6.89043">
        <ele>1993.5999755859</ele>
        <time>2017-10-12T09:11:59.000Z</time>
      </trkpt>
      <trkpt lat="46.13708" lon="6.89068">
        <ele>1998.4000244141</ele>
        <time>2017-10-12T09:12:14.000Z</time>
      </trkpt>
      <trkpt lat="46.13717" lon="6.89091">
        <ele>2002.5999755859</ele>
        <time>2017-10-12T09:12:28.000Z</time>
      </trkpt>
      <trkpt lat="46.13725" lon="6.89113">
        <ele>2006</ele>
        <time>2017-10-12T09:12:45.000Z</time>
      </trkpt>
      <trkpt lat="46.13725" lon="6.89117">
        <ele>2006.4000244141</ele>
        <time>2017-10-12T09:12:48.000Z</time>
      </trkpt>
      <trkpt lat="46.13727" lon="6.89143">
        <ele>2008.1999511719</ele>
        <time>2017-10-12T09:13:05.000Z</time>
      </trkpt>
      <trkpt lat="46.13732" lon="6.89157">
        <ele>2011</ele>
        <time>2017-10-12T09:13:16.000Z</time>
      </trkpt>
      <trkpt lat="46.13737" lon="6.8917">
        <ele>2013.1999511719</ele>
        <time>2017-10-12T09:13:26.000Z</time>
      </trkpt>
      <trkpt lat="46.13739" lon="6.89173">
        <ele>2013.8000488281</ele>
        <time>2017-10-12T09:13:28.000Z</time>
      </trkpt>
      <trkpt lat="46.1374" lon="6.89199">
        <ele>2015.4000244141</ele>
        <time>2017-10-12T09:13:51.000Z</time>
      </trkpt>
      <trkpt lat="46.13744" lon="6.89225">
        <ele>2018.1999511719</ele>
        <time>2017-10-12T09:14:10.000Z</time>
      </trkpt>
      <trkpt lat="46.13749" lon="6.8925">
        <ele>2021</ele>
        <time>2017-10-12T09:14:30.000Z</time>
      </trkpt>
      <trkpt lat="46.13753" lon="6.89276">
        <ele>2024</ele>
        <time>2017-10-12T09:14:52.000Z</time>
      </trkpt>
      <trkpt lat="46.13753" lon="6.89302">
        <ele>2027.1999511719</ele>
        <time>2017-10-12T09:15:11.000Z</time>
      </trkpt>
      <trkpt lat="46.1376" lon="6.89327">
        <ele>2031.8000488281</ele>
        <time>2017-10-12T09:15:31.000Z</time>
      </trkpt>
      <trkpt lat="46.13758" lon="6.89331">
        <ele>2032</ele>
        <time>2017-10-12T09:15:36.000Z</time>
      </trkpt>
      <trkpt lat="46.13759" lon="6.89333">
        <ele>2032.1999511719</ele>
        <time>2017-10-12T09:15:38.000Z</time>
      </trkpt>
      <trkpt lat="46.13764" lon="6.89349">
        <ele>2035</ele>
        <time>2017-10-12T09:15:54.000Z</time>
      </trkpt>
      <trkpt lat="46.13769" lon="6.89362">
        <ele>2037.8000488281</ele>
        <time>2017-10-12T09:16:09.000Z</time>
      </trkpt>
      <trkpt lat="46.13771" lon="6.89366">
        <ele>2038.8000488281</ele>
        <time>2017-10-12T09:16:15.000Z</time>
      </trkpt>
      <trkpt lat="46.13779" lon="6.8939">
        <ele>2043.4000244141</ele>
        <time>2017-10-12T09:16:33.000Z</time>
      </trkpt>
      <trkpt lat="46.13789" lon="6.89408">
        <ele>2048.3999023438</ele>
        <time>2017-10-12T09:16:53.000Z</time>
      </trkpt>
      <trkpt lat="46.13802" lon="6.89425">
        <ele>2054</ele>
        <time>2017-10-12T09:17:16.000Z</time>
      </trkpt>
      <trkpt lat="46.13811" lon="6.89426">
        <ele>2056</ele>
        <time>2017-10-12T09:17:24.000Z</time>
      </trkpt>
      <trkpt lat="46.13826" lon="6.89431">
        <ele>2058.6000976562</ele>
        <time>2017-10-12T09:17:39.000Z</time>
      </trkpt>
      <trkpt lat="46.13831" lon="6.89434">
        <ele>2059.6000976562</ele>
        <time>2017-10-12T09:17:45.000Z</time>
      </trkpt>
      <trkpt lat="46.13839" lon="6.89445">
        <ele>2062.3999023438</ele>
        <time>2017-10-12T09:17:59.000Z</time>
      </trkpt>
      <trkpt lat="46.13847" lon="6.89468">
        <ele>2067</ele>
        <time>2017-10-12T09:18:18.000Z</time>
      </trkpt>
      <trkpt lat="46.13853" lon="6.89493">
        <ele>2071.1999511719</ele>
        <time>2017-10-12T09:18:36.000Z</time>
      </trkpt>
      <trkpt lat="46.13854" lon="6.8952">
        <ele>2072.1999511719</ele>
        <time>2017-10-12T09:18:54.000Z</time>
      </trkpt>
      <trkpt lat="46.13857" lon="6.89545">
        <ele>2072.6000976562</ele>
        <time>2017-10-12T09:19:12.000Z</time>
      </trkpt>
      <trkpt lat="46.13867" lon="6.89567">
        <ele>2073.3999023438</ele>
        <time>2017-10-12T09:19:28.000Z</time>
      </trkpt>
      <trkpt lat="46.13866" lon="6.89574">
        <ele>2072.8000488281</ele>
        <time>2017-10-12T09:19:32.000Z</time>
      </trkpt>
      <trkpt lat="46.13867" lon="6.89577">
        <ele>2073</ele>
        <time>2017-10-12T09:19:34.000Z</time>
      </trkpt>
      <trkpt lat="46.13879" lon="6.89595">
        <ele>2077</ele>
        <time>2017-10-12T09:19:50.000Z</time>
      </trkpt>
      <trkpt lat="46.13888" lon="6.89618">
        <ele>2080.3999023438</ele>
        <time>2017-10-12T09:20:08.000Z</time>
      </trkpt>
      <trkpt lat="46.13889" lon="6.89627">
        <ele>2081.1999511719</ele>
        <time>2017-10-12T09:20:14.000Z</time>
      </trkpt>
      <trkpt lat="46.13893" lon="6.89648">
        <ele>2083.1999511719</ele>
        <time>2017-10-12T09:20:26.000Z</time>
      </trkpt>
      <trkpt lat="46.13902" lon="6.8967">
        <ele>2086.6000976562</ele>
        <time>2017-10-12T09:20:39.000Z</time>
      </trkpt>
      <trkpt lat="46.13912" lon="6.89693">
        <ele>2090</ele>
        <time>2017-10-12T09:20:54.000Z</time>
      </trkpt>
      <trkpt lat="46.13916" lon="6.89703">
        <ele>2091.3999023438</ele>
        <time>2017-10-12T09:21:01.000Z</time>
      </trkpt>
      <trkpt lat="46.13919" lon="6.89707">
        <ele>2092.3999023438</ele>
        <time>2017-10-12T09:21:05.000Z</time>
      </trkpt>
      <trkpt lat="46.13928" lon="6.8973">
        <ele>2095.8000488281</ele>
        <time>2017-10-12T09:21:20.000Z</time>
      </trkpt>
      <trkpt lat="46.13939" lon="6.89753">
        <ele>2099.3999023438</ele>
        <time>2017-10-12T09:21:34.000Z</time>
      </trkpt>
      <trkpt lat="46.13944" lon="6.89772">
        <ele>2101.3999023438</ele>
        <time>2017-10-12T09:21:48.000Z</time>
      </trkpt>
      <trkpt lat="46.13943" lon="6.89776">
        <ele>2101.3999023438</ele>
        <time>2017-10-12T09:21:51.000Z</time>
      </trkpt>
      <trkpt lat="46.13944" lon="6.8978">
        <ele>2101.6000976562</ele>
        <time>2017-10-12T09:21:55.000Z</time>
      </trkpt>
      <trkpt lat="46.13958" lon="6.89797">
        <ele>2105.3999023438</ele>
        <time>2017-10-12T09:22:10.000Z</time>
      </trkpt>
      <trkpt lat="46.13961" lon="6.89821">
        <ele>2106.6000976562</ele>
        <time>2017-10-12T09:22:26.000Z</time>
      </trkpt>
      <trkpt lat="46.1395" lon="6.89844">
        <ele>2104.6000976562</ele>
        <time>2017-10-12T09:22:43.000Z</time>
      </trkpt>
      <trkpt lat="46.13946" lon="6.89851">
        <ele>2103.8000488281</ele>
        <time>2017-10-12T09:22:51.000Z</time>
      </trkpt>
      <trkpt lat="46.13947" lon="6.89856">
        <ele>2104.1999511719</ele>
        <time>2017-10-12T09:22:54.000Z</time>
      </trkpt>
      <trkpt lat="46.13952" lon="6.8987">
        <ele>2106</ele>
        <time>2017-10-12T09:23:05.000Z</time>
      </trkpt>
      <trkpt lat="46.13954" lon="6.89877">
        <ele>2106.6000976562</ele>
        <time>2017-10-12T09:23:10.000Z</time>
      </trkpt>
      <trkpt lat="46.13955" lon="6.89878">
        <ele>2107</ele>
        <time>2017-10-12T09:23:12.000Z</time>
      </trkpt>
      <trkpt lat="46.13957" lon="6.89879">
        <ele>2107.6000976562</ele>
        <time>2017-10-12T09:23:14.000Z</time>
      </trkpt>
      <trkpt lat="46.13968" lon="6.89886">
        <ele>2110.6000976562</ele>
        <time>2017-10-12T09:23:30.000Z</time>
      </trkpt>
      <trkpt lat="46.13979" lon="6.89907">
        <ele>2114.3999023438</ele>
        <time>2017-10-12T09:23:44.000Z</time>
      </trkpt>
      <trkpt lat="46.13981" lon="6.89908">
        <ele>2115</ele>
        <time>2017-10-12T09:23:45.000Z</time>
      </trkpt>
      <trkpt lat="46.13982" lon="6.89908">
        <ele>2115.3999023438</ele>
        <time>2017-10-12T09:23:48.000Z</time>
      </trkpt>
      <trkpt lat="46.13984" lon="6.89909">
        <ele>2115.8000488281</ele>
        <time>2017-10-12T09:23:50.000Z</time>
      </trkpt>
      <trkpt lat="46.13999" lon="6.89922">
        <ele>2120</ele>
        <time>2017-10-12T09:24:12.000Z</time>
      </trkpt>
      <trkpt lat="46.14009" lon="6.89935">
        <ele>2122.8000488281</ele>
        <time>2017-10-12T09:24:25.000Z</time>
      </trkpt>
      <trkpt lat="46.14025" lon="6.89947">
        <ele>2127.3999023438</ele>
        <time>2017-10-12T09:24:45.000Z</time>
      </trkpt>
      <trkpt lat="46.14031" lon="6.89956">
        <ele>2129</ele>
        <time>2017-10-12T09:24:57.000Z</time>
      </trkpt>
      <trkpt lat="46.14036" lon="6.89961">
        <ele>2130.1999511719</ele>
        <time>2017-10-12T09:25:07.000Z</time>
      </trkpt>
      <trkpt lat="46.14049" lon="6.89981">
        <ele>2133.8000488281</ele>
        <time>2017-10-12T09:25:26.000Z</time>
      </trkpt>
      <trkpt lat="46.14061" lon="6.9">
        <ele>2136.6000976562</ele>
        <time>2017-10-12T09:25:45.000Z</time>
      </trkpt>
      <trkpt lat="46.14076" lon="6.90014">
        <ele>2139.8000488281</ele>
        <time>2017-10-12T09:26:04.000Z</time>
      </trkpt>
      <trkpt lat="46.14082" lon="6.90023">
        <ele>2141</ele>
        <time>2017-10-12T09:26:15.000Z</time>
      </trkpt>
      <trkpt lat="46.14093" lon="6.90043">
        <ele>2143</ele>
        <time>2017-10-12T09:26:33.000Z</time>
      </trkpt>
      <trkpt lat="46.14101" lon="6.90067">
        <ele>2143.8000488281</ele>
        <time>2017-10-12T09:26:51.000Z</time>
      </trkpt>
      <trkpt lat="46.14114" lon="6.90086">
        <ele>2147.3999023438</ele>
        <time>2017-10-12T09:27:06.000Z</time>
      </trkpt>
      <trkpt lat="46.14118" lon="6.90095">
        <ele>2148.6000976562</ele>
        <time>2017-10-12T09:27:16.000Z</time>
      </trkpt>
      <trkpt lat="46.14127" lon="6.90109">
        <ele>2151.6000976562</ele>
        <time>2017-10-12T09:27:31.000Z</time>
      </trkpt>
      <trkpt lat="46.14127" lon="6.90113">
        <ele>2151.8000488281</ele>
        <time>2017-10-12T09:27:33.000Z</time>
      </trkpt>
      <trkpt lat="46.14127" lon="6.90117">
        <ele>2152</ele>
        <time>2017-10-12T09:27:36.000Z</time>
      </trkpt>
      <trkpt lat="46.14128" lon="6.9012">
        <ele>2152.3999023438</ele>
        <time>2017-10-12T09:27:39.000Z</time>
      </trkpt>
      <trkpt lat="46.14141" lon="6.90139">
        <ele>2156.3999023438</ele>
        <time>2017-10-12T09:27:58.000Z</time>
      </trkpt>
      <trkpt lat="46.14156" lon="6.90154">
        <ele>2162</ele>
        <time>2017-10-12T09:28:16.000Z</time>
      </trkpt>
      <trkpt lat="46.14168" lon="6.90172">
        <ele>2167.3999023438</ele>
        <time>2017-10-12T09:28:32.000Z</time>
      </trkpt>
      <trkpt lat="46.14178" lon="6.90193">
        <ele>2172</ele>
        <time>2017-10-12T09:28:49.000Z</time>
      </trkpt>
      <trkpt lat="46.14185" lon="6.90214">
        <ele>2175.3999023438</ele>
        <time>2017-10-12T09:29:15.000Z</time>
      </trkpt>
      <trkpt lat="46.14191" lon="6.90239">
        <ele>2177.6000976562</ele>
        <time>2017-10-12T09:29:33.000Z</time>
      </trkpt>
      <trkpt lat="46.14194" lon="6.90242">
        <ele>2179.1999511719</ele>
        <time>2017-10-12T09:29:37.000Z</time>
      </trkpt>
      <trkpt lat="46.14201" lon="6.90266">
        <ele>2185</ele>
        <time>2017-10-12T09:29:56.000Z</time>
      </trkpt>
      <trkpt lat="46.1421" lon="6.90289">
        <ele>2191.6000976562</ele>
        <time>2017-10-12T09:30:20.000Z</time>
      </trkpt>
      <trkpt lat="46.14216" lon="6.90304">
        <ele>2195.8000488281</ele>
        <time>2017-10-12T09:30:37.000Z</time>
      </trkpt>
      <trkpt lat="46.14218" lon="6.90306">
        <ele>2197.1999511719</ele>
        <time>2017-10-12T09:30:40.000Z</time>
      </trkpt>
      <trkpt lat="46.14219" lon="6.90306">
        <ele>2197.3999023438</ele>
        <time>2017-10-12T09:30:42.000Z</time>
      </trkpt>
      <trkpt lat="46.14232" lon="6.90317">
        <ele>2204.1999511719</ele>
        <time>2017-10-12T09:31:09.000Z</time>
      </trkpt>
      <trkpt lat="46.14247" lon="6.90322">
        <ele>2210.6000976562</ele>
        <time>2017-10-12T09:31:40.000Z</time>
      </trkpt>
      <trkpt lat="46.14264" lon="6.90324">
        <ele>2217.6000976562</ele>
        <time>2017-10-12T09:32:06.000Z</time>
      </trkpt>
      <trkpt lat="46.14279" lon="6.90329">
        <ele>2223.1999511719</ele>
        <time>2017-10-12T09:32:36.000Z</time>
      </trkpt>
      <trkpt lat="46.14277" lon="6.90343">
        <ele>2221.6000976562</ele>
        <time>2017-10-12T09:33:02.000Z</time>
      </trkpt>
      <trkpt lat="46.14288" lon="6.90356">
        <ele>2224.8000488281</ele>
        <time>2017-10-12T09:33:25.000Z</time>
      </trkpt>
      <trkpt lat="46.14291" lon="6.90359">
        <ele>2226</ele>
        <time>2017-10-12T09:33:30.000Z</time>
      </trkpt>
      <trkpt lat="46.14298" lon="6.90382">
        <ele>2227.3999023438</ele>
        <time>2017-10-12T09:33:54.000Z</time>
      </trkpt>
      <trkpt lat="46.14311" lon="6.904">
        <ele>2231.3999023438</ele>
        <time>2017-10-12T09:34:16.000Z</time>
      </trkpt>
      <trkpt lat="46.14313" lon="6.90418">
        <ele>2231.6000976562</ele>
        <time>2017-10-12T09:34:32.000Z</time>
      </trkpt>
      <trkpt lat="46.14317" lon="6.90436">
        <ele>2232</ele>
        <time>2017-10-12T09:34:49.000Z</time>
      </trkpt>
      <trkpt lat="46.14327" lon="6.90458">
        <ele>2235.1999511719</ele>
        <time>2017-10-12T09:35:10.000Z</time>
      </trkpt>
      <trkpt lat="46.1434" lon="6.90476">
        <ele>2239.8000488281</ele>
        <time>2017-10-12T09:35:31.000Z</time>
      </trkpt>
      <trkpt lat="46.14354" lon="6.90491">
        <ele>2244.6000976562</ele>
        <time>2017-10-12T09:35:49.000Z</time>
      </trkpt>
      <trkpt lat="46.14364" lon="6.90501">
        <ele>2249.6000976562</ele>
        <time>2017-10-12T09:36:05.000Z</time>
      </trkpt>
      <trkpt lat="46.14379" lon="6.90518">
        <ele>2256.3999023438</ele>
        <time>2017-10-12T09:36:22.000Z</time>
      </trkpt>
      <trkpt lat="46.14382" lon="6.90523">
        <ele>2258.1999511719</ele>
        <time>2017-10-12T09:36:27.000Z</time>
      </trkpt>
      <trkpt lat="46.1439" lon="6.90547">
        <ele>2262.8000488281</ele>
        <time>2017-10-12T09:36:44.000Z</time>
      </trkpt>
      <trkpt lat="46.14391" lon="6.90554">
        <ele>2263.6000976562</ele>
        <time>2017-10-12T09:36:51.000Z</time>
      </trkpt>
      <trkpt lat="46.14392" lon="6.90556">
        <ele>2264.1999511719</ele>
        <time>2017-10-12T09:36:53.000Z</time>
      </trkpt>
      <trkpt lat="46.14387" lon="6.90576">
        <ele>2262.6000976562</ele>
        <time>2017-10-12T09:37:12.000Z</time>
      </trkpt>
      <trkpt lat="46.14385" lon="6.90601">
        <ele>2262.1999511719</ele>
        <time>2017-10-12T09:37:31.000Z</time>
      </trkpt>
      <trkpt lat="46.14395" lon="6.90622">
        <ele>2267.8000488281</ele>
        <time>2017-10-12T09:37:47.000Z</time>
      </trkpt>
      <trkpt lat="46.14401" lon="6.90647">
        <ele>2270.8000488281</ele>
        <time>2017-10-12T09:38:05.000Z</time>
      </trkpt>
      <trkpt lat="46.14407" lon="6.90671">
        <ele>2271.3999023438</ele>
        <time>2017-10-12T09:38:24.000Z</time>
      </trkpt>
      <trkpt lat="46.14404" lon="6.90694">
        <ele>2267.8000488281</ele>
        <time>2017-10-12T09:38:44.000Z</time>
      </trkpt>
      <trkpt lat="46.14404" lon="6.90705">
        <ele>2266.6000976562</ele>
        <time>2017-10-12T09:38:56.000Z</time>
      </trkpt>
      <trkpt lat="46.14407" lon="6.90708">
        <ele>2267.3999023438</ele>
        <time>2017-10-12T09:39:00.000Z</time>
      </trkpt>
      <trkpt lat="46.14408" lon="6.9071">
        <ele>2267.6000976562</ele>
        <time>2017-10-12T09:39:02.000Z</time>
      </trkpt>
      <trkpt lat="46.14421" lon="6.90729">
        <ele>2270.8000488281</ele>
        <time>2017-10-12T09:39:30.000Z</time>
      </trkpt>
      <trkpt lat="46.14427" lon="6.90753">
        <ele>2270.6000976562</ele>
        <time>2017-10-12T09:39:48.000Z</time>
      </trkpt>
      <trkpt lat="46.14428" lon="6.90756">
        <ele>2270.6000976562</ele>
        <time>2017-10-12T09:39:52.000Z</time>
      </trkpt>
      <trkpt lat="46.14438" lon="6.90778">
        <ele>2272</ele>
        <time>2017-10-12T09:40:15.000Z</time>
      </trkpt>
      <trkpt lat="46.14452" lon="6.90796">
        <ele>2275.1999511719</ele>
        <time>2017-10-12T09:40:32.000Z</time>
      </trkpt>
      <trkpt lat="46.14459" lon="6.90802">
        <ele>2277.1999511719</ele>
        <time>2017-10-12T09:40:40.000Z</time>
      </trkpt>
      <trkpt lat="46.14473" lon="6.90817">
        <ele>2281</ele>
        <time>2017-10-12T09:40:59.000Z</time>
      </trkpt>
      <trkpt lat="46.14485" lon="6.90838">
        <ele>2283.6000976562</ele>
        <time>2017-10-12T09:41:14.000Z</time>
      </trkpt>
      <trkpt lat="46.14494" lon="6.90853">
        <ele>2285.6000976562</ele>
        <time>2017-10-12T09:41:25.000Z</time>
      </trkpt>
      <trkpt lat="46.14506" lon="6.9087">
        <ele>2288.6000976562</ele>
        <time>2017-10-12T09:41:43.000Z</time>
      </trkpt>
      <trkpt lat="46.14508" lon="6.90872">
        <ele>2289</ele>
        <time>2017-10-12T09:41:45.000Z</time>
      </trkpt>
      <trkpt lat="46.14517" lon="6.90895">
        <ele>2290.3999023438</ele>
        <time>2017-10-12T09:42:04.000Z</time>
      </trkpt>
      <trkpt lat="46.14523" lon="6.90906">
        <ele>2292</ele>
        <time>2017-10-12T09:42:20.000Z</time>
      </trkpt>
      <trkpt lat="46.14533" lon="6.90929">
        <ele>2294.6000976562</ele>
        <time>2017-10-12T09:42:42.000Z</time>
      </trkpt>
      <trkpt lat="46.14546" lon="6.90949">
        <ele>2298.6000976562</ele>
        <time>2017-10-12T09:42:56.000Z</time>
      </trkpt>
      <trkpt lat="46.14553" lon="6.90974">
        <ele>2300.8000488281</ele>
        <time>2017-10-12T09:43:10.000Z</time>
      </trkpt>
      <trkpt lat="46.14563" lon="6.90996">
        <ele>2303.6000976562</ele>
        <time>2017-10-12T09:43:24.000Z</time>
      </trkpt>
      <trkpt lat="46.14571" lon="6.91021">
        <ele>2306</ele>
        <time>2017-10-12T09:43:38.000Z</time>
      </trkpt>
      <trkpt lat="46.14582" lon="6.91041">
        <ele>2308.6000976562</ele>
        <time>2017-10-12T09:43:54.000Z</time>
      </trkpt>
      <trkpt lat="46.14594" lon="6.9106">
        <ele>2311.6000976562</ele>
        <time>2017-10-12T09:44:07.000Z</time>
      </trkpt>
      <trkpt lat="46.14601" lon="6.91084">
        <ele>2314.3999023438</ele>
        <time>2017-10-12T09:44:24.000Z</time>
      </trkpt>
      <trkpt lat="46.1461" lon="6.91108">
        <ele>2318</ele>
        <time>2017-10-12T09:44:39.000Z</time>
      </trkpt>
      <trkpt lat="46.14613" lon="6.91112">
        <ele>2318.8000488281</ele>
        <time>2017-10-12T09:44:43.000Z</time>
      </trkpt>
      <trkpt lat="46.14615" lon="6.91115">
        <ele>2319.3999023438</ele>
        <time>2017-10-12T09:44:46.000Z</time>
      </trkpt>
      <trkpt lat="46.14613" lon="6.91121">
        <ele>2319.8000488281</ele>
        <time>2017-10-12T09:44:51.000Z</time>
      </trkpt>
      <trkpt lat="46.14615" lon="6.91141">
        <ele>2322.3999023438</ele>
        <time>2017-10-12T09:45:11.000Z</time>
      </trkpt>
      <trkpt lat="46.1462" lon="6.91163">
        <ele>2325.6000976562</ele>
        <time>2017-10-12T09:45:42.000Z</time>
      </trkpt>
      <trkpt lat="46.14624" lon="6.91182">
        <ele>2328.1999511719</ele>
        <time>2017-10-12T09:46:06.000Z</time>
      </trkpt>
      <trkpt lat="46.14631" lon="6.91205">
        <ele>2331.3999023438</ele>
        <time>2017-10-12T09:46:31.000Z</time>
      </trkpt>
      <trkpt lat="46.14641" lon="6.91227">
        <ele>2335.1999511719</ele>
        <time>2017-10-12T09:46:49.000Z</time>
      </trkpt>
      <trkpt lat="46.14654" lon="6.91246">
        <ele>2338.8000488281</ele>
        <time>2017-10-12T09:47:06.000Z</time>
      </trkpt>
      <trkpt lat="46.14665" lon="6.91266">
        <ele>2342.6000976562</ele>
        <time>2017-10-12T09:47:22.000Z</time>
      </trkpt>
      <trkpt lat="46.14678" lon="6.91286">
        <ele>2346.1999511719</ele>
        <time>2017-10-12T09:47:40.000Z</time>
      </trkpt>
      <trkpt lat="46.14686" lon="6.9131">
        <ele>2349.6000976562</ele>
        <time>2017-10-12T09:47:54.000Z</time>
      </trkpt>
      <trkpt lat="46.14693" lon="6.91334">
        <ele>2353.6000976562</ele>
        <time>2017-10-12T09:48:10.000Z</time>
      </trkpt>
      <trkpt lat="46.14704" lon="6.91355">
        <ele>2358.6000976562</ele>
        <time>2017-10-12T09:48:27.000Z</time>
      </trkpt>
      <trkpt lat="46.14715" lon="6.91377">
        <ele>2363.3999023438</ele>
        <time>2017-10-12T09:48:47.000Z</time>
      </trkpt>
      <trkpt lat="46.14722" lon="6.91401">
        <ele>2368.1999511719</ele>
        <time>2017-10-12T09:49:03.000Z</time>
      </trkpt>
      <trkpt lat="46.1473" lon="6.91425">
        <ele>2373.1999511719</ele>
        <time>2017-10-12T09:49:18.000Z</time>
      </trkpt>
      <trkpt lat="46.14736" lon="6.91451">
        <ele>2378.1999511719</ele>
        <time>2017-10-12T09:49:34.000Z</time>
      </trkpt>
      <trkpt lat="46.14741" lon="6.9146">
        <ele>2380.1999511719</ele>
        <time>2017-10-12T09:49:42.000Z</time>
      </trkpt>
      <trkpt lat="46.1474" lon="6.91463">
        <ele>2380.8000488281</ele>
        <time>2017-10-12T09:51:39.000Z</time>
      </trkpt>
      <trkpt lat="46.14739" lon="6.91458">
        <ele>2379.8000488281</ele>
        <time>2017-10-12T09:53:42.000Z</time>
      </trkpt>
      <trkpt lat="46.14742" lon="6.91458">
        <ele>2380.1999511719</ele>
        <time>2017-10-12T09:53:44.000Z</time>
      </trkpt>
      <trkpt lat="46.14754" lon="6.91465">
        <ele>2383</ele>
        <time>2017-10-12T09:53:58.000Z</time>
      </trkpt>
      <trkpt lat="46.14765" lon="6.91462">
        <ele>2384.6000976562</ele>
        <time>2017-10-12T09:54:15.000Z</time>
      </trkpt>
      <trkpt lat="46.14768" lon="6.91462">
        <ele>2384.8000488281</ele>
        <time>2017-10-12T09:54:18.000Z</time>
      </trkpt>
      <trkpt lat="46.14785" lon="6.91461">
        <ele>2387.6000976562</ele>
        <time>2017-10-12T09:54:44.000Z</time>
      </trkpt>
      <trkpt lat="46.14801" lon="6.91468">
        <ele>2391.8000488281</ele>
        <time>2017-10-12T09:55:16.000Z</time>
      </trkpt>
      <trkpt lat="46.14811" lon="6.9149">
        <ele>2396</ele>
        <time>2017-10-12T09:55:42.000Z</time>
      </trkpt>
      <trkpt lat="46.14821" lon="6.91511">
        <ele>2399.8000488281</ele>
        <time>2017-10-12T09:56:02.000Z</time>
      </trkpt>
      <trkpt lat="46.14828" lon="6.91535">
        <ele>2403.3999023438</ele>
        <time>2017-10-12T09:56:22.000Z</time>
      </trkpt>
      <trkpt lat="46.14839" lon="6.91556">
        <ele>2407.3999023438</ele>
        <time>2017-10-12T09:56:43.000Z</time>
      </trkpt>
      <trkpt lat="46.14839" lon="6.91558">
        <ele>2407.6000976562</ele>
        <time>2017-10-12T09:56:44.000Z</time>
      </trkpt>
      <trkpt lat="46.14846" lon="6.91583">
        <ele>2411.6000976562</ele>
        <time>2017-10-12T09:57:03.000Z</time>
      </trkpt>
      <trkpt lat="46.14848" lon="6.91599">
        <ele>2414</ele>
        <time>2017-10-12T09:57:14.000Z</time>
      </trkpt>
      <trkpt lat="46.14857" lon="6.91622">
        <ele>2418.8000488281</ele>
        <time>2017-10-12T09:57:29.000Z</time>
      </trkpt>
      <trkpt lat="46.14869" lon="6.91642">
        <ele>2424.6000976562</ele>
        <time>2017-10-12T09:57:44.000Z</time>
      </trkpt>
      <trkpt lat="46.14874" lon="6.91659">
        <ele>2429</ele>
        <time>2017-10-12T09:57:56.000Z</time>
      </trkpt>
      <trkpt lat="46.14882" lon="6.91675">
        <ele>2432.8000488281</ele>
        <time>2017-10-12T09:58:09.000Z</time>
      </trkpt>
      <trkpt lat="46.14883" lon="6.91678">
        <ele>2433.6000976562</ele>
        <time>2017-10-12T09:58:12.000Z</time>
      </trkpt>
      <trkpt lat="46.14884" lon="6.91684">
        <ele>2434.8000488281</ele>
        <time>2017-10-12T09:58:17.000Z</time>
      </trkpt>
      <trkpt lat="46.14896" lon="6.91705">
        <ele>2439.8000488281</ele>
        <time>2017-10-12T09:58:35.000Z</time>
      </trkpt>
      <trkpt lat="46.14903" lon="6.91729">
        <ele>2445</ele>
        <time>2017-10-12T09:58:49.000Z</time>
      </trkpt>
      <trkpt lat="46.14906" lon="6.91736">
        <ele>2446.6000976562</ele>
        <time>2017-10-12T09:58:55.000Z</time>
      </trkpt>
      <trkpt lat="46.1491" lon="6.91739">
        <ele>2447.3999023438</ele>
        <time>2017-10-12T09:58:59.000Z</time>
      </trkpt>
      <trkpt lat="46.14912" lon="6.9175">
        <ele>2448</ele>
        <time>2017-10-12T09:59:05.000Z</time>
      </trkpt>
      <trkpt lat="46.14912" lon="6.91762">
        <ele>2449</ele>
        <time>2017-10-12T09:59:12.000Z</time>
      </trkpt>
      <trkpt lat="46.14904" lon="6.91775">
        <ele>2451</ele>
        <time>2017-10-12T09:59:23.000Z</time>
      </trkpt>
      <trkpt lat="46.14889" lon="6.91789">
        <ele>2453.6000976562</ele>
        <time>2017-10-12T09:59:39.000Z</time>
      </trkpt>
      <trkpt lat="46.14886" lon="6.91799">
        <ele>2455.3999023438</ele>
        <time>2017-10-12T09:59:49.000Z</time>
      </trkpt>
      <trkpt lat="46.1488" lon="6.91803">
        <ele>2456.1999511719</ele>
        <time>2017-10-12T09:59:55.000Z</time>
      </trkpt>
      <trkpt lat="46.14866" lon="6.91804">
        <ele>2457.6000976562</ele>
        <time>2017-10-12T10:00:10.000Z</time>
      </trkpt>
      <trkpt lat="46.14864" lon="6.91805">
        <ele>2458</ele>
        <time>2017-10-12T10:00:13.000Z</time>
      </trkpt>
      <trkpt lat="46.14863" lon="6.91807">
        <ele>2458.3999023438</ele>
        <time>2017-10-12T10:00:15.000Z</time>
      </trkpt>
      <trkpt lat="46.14858" lon="6.91812">
        <ele>2459.8000488281</ele>
        <time>2017-10-12T10:00:24.000Z</time>
      </trkpt>
      <trkpt lat="46.14854" lon="6.91815">
        <ele>2460.8000488281</ele>
        <time>2017-10-12T10:00:32.000Z</time>
      </trkpt>
      <trkpt lat="46.14848" lon="6.91821">
        <ele>2462.6000976562</ele>
        <time>2017-10-12T10:00:40.000Z</time>
      </trkpt>
      <trkpt lat="46.14847" lon="6.91843">
        <ele>2462.6000976562</ele>
        <time>2017-10-12T10:00:59.000Z</time>
      </trkpt>
      <trkpt lat="46.14845" lon="6.91848">
        <ele>2462.8000488281</ele>
        <time>2017-10-12T10:01:05.000Z</time>
      </trkpt>
      <trkpt lat="46.14835" lon="6.91857">
        <ele>2461.1999511719</ele>
        <time>2017-10-12T10:01:20.000Z</time>
      </trkpt>
      <trkpt lat="46.14832" lon="6.9188">
        <ele>2453.3999023438</ele>
        <time>2017-10-12T10:01:49.000Z</time>
      </trkpt>
      <trkpt lat="46.14846" lon="6.91892">
        <ele>2451.8000488281</ele>
        <time>2017-10-12T10:02:17.000Z</time>
      </trkpt>
      <trkpt lat="46.14843" lon="6.91912">
        <ele>2445.8000488281</ele>
        <time>2017-10-12T10:02:42.000Z</time>
      </trkpt>
      <trkpt lat="46.14839" lon="6.91937">
        <ele>2440.3999023438</ele>
        <time>2017-10-12T10:03:11.000Z</time>
      </trkpt>
      <trkpt lat="46.14834" lon="6.9196">
        <ele>2424.3999023438</ele>
        <time>2017-10-12T10:03:34.000Z</time>
      </trkpt>
      <trkpt lat="46.14835" lon="6.91986">
        <ele>2410.1999511719</ele>
        <time>2017-10-12T10:03:54.000Z</time>
      </trkpt>
      <trkpt lat="46.14841" lon="6.92001">
        <ele>2409.3999023438</ele>
        <time>2017-10-12T10:04:10.000Z</time>
      </trkpt>
      <trkpt lat="46.14852" lon="6.92023">
        <ele>2411.1999511719</ele>
        <time>2017-10-12T10:04:33.000Z</time>
      </trkpt>
      <trkpt lat="46.14866" lon="6.92035">
        <ele>2417.1999511719</ele>
        <time>2017-10-12T10:04:57.000Z</time>
      </trkpt>
      <trkpt lat="46.14883" lon="6.92043">
        <ele>2425.3999023438</ele>
        <time>2017-10-12T10:05:22.000Z</time>
      </trkpt>
      <trkpt lat="46.149" lon="6.92051">
        <ele>2434.1999511719</ele>
        <time>2017-10-12T10:05:46.000Z</time>
      </trkpt>
      <trkpt lat="46.14914" lon="6.92068">
        <ele>2441.3999023438</ele>
        <time>2017-10-12T10:06:03.000Z</time>
      </trkpt>
      <trkpt lat="46.14929" lon="6.92085">
        <ele>2450.6000976562</ele>
        <time>2017-10-12T10:06:20.000Z</time>
      </trkpt>
      <trkpt lat="46.14931" lon="6.92085">
        <ele>2452.3999023438</ele>
        <time>2017-10-12T10:06:25.000Z</time>
      </trkpt>
      <trkpt lat="46.14938" lon="6.92087">
        <ele>2457.1999511719</ele>
        <time>2017-10-12T10:08:36.000Z</time>
      </trkpt>
      <trkpt lat="46.14938" lon="6.92088">
        <ele>2457.6000976562</ele>
        <time>2017-10-12T10:08:37.000Z</time>
      </trkpt>
      <trkpt lat="46.14948" lon="6.92097">
        <ele>2464.1999511719</ele>
        <time>2017-10-12T10:08:51.000Z</time>
      </trkpt>
      <trkpt lat="46.14961" lon="6.92102">
        <ele>2473.8000488281</ele>
        <time>2017-10-12T10:09:07.000Z</time>
      </trkpt>
      <trkpt lat="46.14969" lon="6.92098">
        <ele>2479.6000976562</ele>
        <time>2017-10-12T10:09:21.000Z</time>
      </trkpt>
      <trkpt lat="46.14986" lon="6.92094">
        <ele>2490.6000976562</ele>
        <time>2017-10-12T10:09:53.000Z</time>
      </trkpt>
      <trkpt lat="46.15003" lon="6.92093">
        <ele>2500.6000976562</ele>
        <time>2017-10-12T10:10:17.000Z</time>
      </trkpt>
      <trkpt lat="46.15017" lon="6.92108">
        <ele>2509</ele>
        <time>2017-10-12T10:10:39.000Z</time>
      </trkpt>
      <trkpt lat="46.1503" lon="6.92124">
        <ele>2516.6000976562</ele>
        <time>2017-10-12T10:11:02.000Z</time>
      </trkpt>
      <trkpt lat="46.15045" lon="6.9214">
        <ele>2524.8000488281</ele>
        <time>2017-10-12T10:11:26.000Z</time>
      </trkpt>
      <trkpt lat="46.15056" lon="6.9216">
        <ele>2530.3999023438</ele>
        <time>2017-10-12T10:11:49.000Z</time>
      </trkpt>
      <trkpt lat="46.15068" lon="6.9218">
        <ele>2530.8000488281</ele>
        <time>2017-10-12T10:12:11.000Z</time>
      </trkpt>
      <trkpt lat="46.15084" lon="6.92193">
        <ele>2530.6000976562</ele>
        <time>2017-10-12T10:12:34.000Z</time>
      </trkpt>
      <trkpt lat="46.15095" lon="6.92215">
        <ele>2528.1999511719</ele>
        <time>2017-10-12T10:12:53.000Z</time>
      </trkpt>
      <trkpt lat="46.15104" lon="6.9223">
        <ele>2526.3999023438</ele>
        <time>2017-10-12T10:13:11.000Z</time>
      </trkpt>
      <trkpt lat="46.15105" lon="6.92231">
        <ele>2526.3999023438</ele>
        <time>2017-10-12T10:13:13.000Z</time>
      </trkpt>
      <trkpt lat="46.15118" lon="6.92236">
        <ele>2527.3999023438</ele>
        <time>2017-10-12T10:13:46.000Z</time>
      </trkpt>
      <trkpt lat="46.15135" lon="6.92242">
        <ele>2528.3999023438</ele>
        <time>2017-10-12T10:14:25.000Z</time>
      </trkpt>
      <trkpt lat="46.15149" lon="6.92256">
        <ele>2527.3999023438</ele>
        <time>2017-10-12T10:14:59.000Z</time>
      </trkpt>
      <trkpt lat="46.15163" lon="6.9227">
        <ele>2524.3999023438</ele>
        <time>2017-10-12T10:15:30.000Z</time>
      </trkpt>
      <trkpt lat="46.15172" lon="6.92292">
        <ele>2520.6000976562</ele>
        <time>2017-10-12T10:15:52.000Z</time>
      </trkpt>
      <trkpt lat="46.15174" lon="6.92298">
        <ele>2519.6000976562</ele>
        <time>2017-10-12T10:15:57.000Z</time>
      </trkpt>
      <trkpt lat="46.15181" lon="6.92311">
        <ele>2517.3999023438</ele>
        <time>2017-10-12T10:16:11.000Z</time>
      </trkpt>
      <trkpt lat="46.15182" lon="6.92312">
        <ele>2517</ele>
        <time>2017-10-12T10:16:13.000Z</time>
      </trkpt>
      <trkpt lat="46.15198" lon="6.92324">
        <ele>2514.6000976562</ele>
        <time>2017-10-12T10:16:47.000Z</time>
      </trkpt>
      <trkpt lat="46.15213" lon="6.92337">
        <ele>2519.3999023438</ele>
        <time>2017-10-12T10:17:24.000Z</time>
      </trkpt>
      <trkpt lat="46.15229" lon="6.92347">
        <ele>2523.6000976562</ele>
        <time>2017-10-12T10:18:02.000Z</time>
      </trkpt>
      <trkpt lat="46.15243" lon="6.92351">
        <ele>2531.6000976562</ele>
        <time>2017-10-12T10:18:44.000Z</time>
      </trkpt>
      <trkpt lat="46.15252" lon="6.92373">
        <ele>2545</ele>
        <time>2017-10-12T10:19:16.000Z</time>
      </trkpt>
      <trkpt lat="46.15263" lon="6.92394">
        <ele>2558.8000488281</ele>
        <time>2017-10-12T10:19:47.000Z</time>
      </trkpt>
      <trkpt lat="46.1527" lon="6.92417">
        <ele>2571.6000976562</ele>
        <time>2017-10-12T10:20:27.000Z</time>
      </trkpt>
      <trkpt lat="46.15281" lon="6.92426">
        <ele>2580</ele>
        <time>2017-10-12T10:21:15.000Z</time>
      </trkpt>
      <trkpt lat="46.15287" lon="6.9245">
        <ele>2592.1999511719</ele>
        <time>2017-10-12T10:21:43.000Z</time>
      </trkpt>
      <trkpt lat="46.15303" lon="6.92462">
        <ele>2604</ele>
        <time>2017-10-12T10:22:11.000Z</time>
      </trkpt>
      <trkpt lat="46.1531" lon="6.92482">
        <ele>2615.3999023438</ele>
        <time>2017-10-12T10:22:40.000Z</time>
      </trkpt>
      <trkpt lat="46.15323" lon="6.925">
        <ele>2625.3999023438</ele>
        <time>2017-10-12T10:23:07.000Z</time>
      </trkpt>
      <trkpt lat="46.15333" lon="6.92521">
        <ele>2631</ele>
        <time>2017-10-12T10:23:37.000Z</time>
      </trkpt>
      <trkpt lat="46.15346" lon="6.92539">
        <ele>2638</ele>
        <time>2017-10-12T10:24:19.000Z</time>
      </trkpt>
      <trkpt lat="46.15361" lon="6.92547">
        <ele>2645.8000488281</ele>
        <time>2017-10-12T10:25:06.000Z</time>
      </trkpt>
      <trkpt lat="46.15371" lon="6.92529">
        <ele>2651</ele>
        <time>2017-10-12T10:25:55.000Z</time>
      </trkpt>
      <trkpt lat="46.15382" lon="6.92545">
        <ele>2656.8000488281</ele>
        <time>2017-10-12T10:27:02.000Z</time>
      </trkpt>
      <trkpt lat="46.15385" lon="6.92548">
        <ele>2658.8000488281</ele>
        <time>2017-10-12T10:27:08.000Z</time>
      </trkpt>
      <trkpt lat="46.15401" lon="6.92554">
        <ele>2666.3999023438</ele>
        <time>2017-10-12T10:28:00.000Z</time>
      </trkpt>
      <trkpt lat="46.15412" lon="6.92567">
        <ele>2671</ele>
        <time>2017-10-12T10:28:41.000Z</time>
      </trkpt>
      <trkpt lat="46.15415" lon="6.92572">
        <ele>2672.6000976562</ele>
        <time>2017-10-12T10:28:47.000Z</time>
      </trkpt>
      <trkpt lat="46.15421" lon="6.92578">
        <ele>2673.6000976562</ele>
        <time>2017-10-12T10:28:58.000Z</time>
      </trkpt>
      <trkpt lat="46.15425" lon="6.92582">
        <ele>2673.3999023438</ele>
        <time>2017-10-12T10:29:05.000Z</time>
      </trkpt>
      <trkpt lat="46.15416" lon="6.92572">
        <ele>2672.8000488281</ele>
        <time>2017-10-12T10:29:37.000Z</time>
      </trkpt>
      <trkpt lat="46.15414" lon="6.9257">
        <ele>2672.1999511719</ele>
        <time>2017-10-12T10:29:39.000Z</time>
      </trkpt>
      <trkpt lat="46.15409" lon="6.92563">
        <ele>2669.8000488281</ele>
        <time>2017-10-12T10:29:48.000Z</time>
      </trkpt>
      <trkpt lat="46.15408" lon="6.9256">
        <ele>2669.6000976562</ele>
        <time>2017-10-12T10:29:52.000Z</time>
      </trkpt>
      <trkpt lat="46.15407" lon="6.92535">
        <ele>2669.6000976562</ele>
        <time>2017-10-12T10:30:28.000Z</time>
      </trkpt>
      <trkpt lat="46.15405" lon="6.92528">
        <ele>2668.8000488281</ele>
        <time>2017-10-12T10:30:36.000Z</time>
      </trkpt>
      <trkpt lat="46.15397" lon="6.92507">
        <ele>2665.8000488281</ele>
        <time>2017-10-12T10:31:21.000Z</time>
      </trkpt>
      <trkpt lat="46.15391" lon="6.92494">
        <ele>2663.3999023438</ele>
        <time>2017-10-12T10:31:35.000Z</time>
      </trkpt>
      <trkpt lat="46.15394" lon="6.92496">
        <ele>2665</ele>
        <time>2017-10-12T10:31:44.000Z</time>
      </trkpt>
      <trkpt lat="46.15395" lon="6.92497">
        <ele>2665.1999511719</ele>
        <time>2017-10-12T10:31:46.000Z</time>
      </trkpt>
      <trkpt lat="46.154" lon="6.92506">
        <ele>2667.1999511719</ele>
        <time>2017-10-12T10:32:10.000Z</time>
      </trkpt>
      <trkpt lat="46.15411" lon="6.92517">
        <ele>2672</ele>
        <time>2017-10-12T10:33:03.000Z</time>
      </trkpt>
      <trkpt lat="46.15419" lon="6.92512">
        <ele>2676.1999511719</ele>
        <time>2017-10-12T10:33:57.000Z</time>
      </trkpt>
      <trkpt lat="46.15423" lon="6.92493">
        <ele>2680</ele>
        <time>2017-10-12T10:34:29.000Z</time>
      </trkpt>
      <trkpt lat="46.15424" lon="6.92469">
        <ele>2671.8000488281</ele>
        <time>2017-10-12T10:35:05.000Z</time>
      </trkpt>
      <trkpt lat="46.15423" lon="6.92456">
        <ele>2666.3999023438</ele>
        <time>2017-10-12T10:35:17.000Z</time>
      </trkpt>
      <trkpt lat="46.15425" lon="6.92451">
        <ele>2665</ele>
        <time>2017-10-12T10:35:23.000Z</time>
      </trkpt>
      <trkpt lat="46.15425" lon="6.92439">
        <ele>2660.1999511719</ele>
        <time>2017-10-12T10:35:37.000Z</time>
      </trkpt>
      <trkpt lat="46.15425" lon="6.92432">
        <ele>2658</ele>
        <time>2017-10-12T10:35:45.000Z</time>
      </trkpt>
      <trkpt lat="46.15418" lon="6.92411">
        <ele>2646.6000976562</ele>
        <time>2017-10-12T10:36:04.000Z</time>
      </trkpt>
      <trkpt lat="46.15417" lon="6.92406">
        <ele>2643.3999023438</ele>
        <time>2017-10-12T10:36:09.000Z</time>
      </trkpt>
      <trkpt lat="46.15416" lon="6.92402">
        <ele>2640.6000976562</ele>
        <time>2017-10-12T10:36:12.000Z</time>
      </trkpt>
      <trkpt lat="46.15416" lon="6.92398">
        <ele>2637.8000488281</ele>
        <time>2017-10-12T10:36:16.000Z</time>
      </trkpt>
      <trkpt lat="46.15416" lon="6.92398">
        <ele>2637.8000488281</ele>
        <time>2017-10-12T10:36:17.000Z</time>
      </trkpt>
      <trkpt lat="46.15417" lon="6.92371">
        <ele>2620.8000488281</ele>
        <time>2017-10-12T10:36:57.000Z</time>
      </trkpt>
      <trkpt lat="46.15411" lon="6.92362">
        <ele>2610.3999023438</ele>
        <time>2017-10-12T10:37:15.000Z</time>
      </trkpt>
      <trkpt lat="46.1541" lon="6.92335">
        <ele>2592.1999511719</ele>
        <time>2017-10-12T10:37:54.000Z</time>
      </trkpt>
      <trkpt lat="46.15413" lon="6.92309">
        <ele>2592.6000976562</ele>
        <time>2017-10-12T10:38:43.000Z</time>
      </trkpt>
      <trkpt lat="46.15423" lon="6.92293">
        <ele>2606</ele>
        <time>2017-10-12T10:39:30.000Z</time>
      </trkpt>
      <trkpt lat="46.15434" lon="6.92285">
        <ele>2616</ele>
        <time>2017-10-12T10:40:10.000Z</time>
      </trkpt>
      <trkpt lat="46.15447" lon="6.92299">
        <ele>2615.8000488281</ele>
        <time>2017-10-12T10:40:49.000Z</time>
      </trkpt>
      <trkpt lat="46.15461" lon="6.92305">
        <ele>2621</ele>
        <time>2017-10-12T10:41:24.000Z</time>
      </trkpt>
      <trkpt lat="46.15476" lon="6.923">
        <ele>2632.6000976562</ele>
        <time>2017-10-12T10:42:03.000Z</time>
      </trkpt>
      <trkpt lat="46.15491" lon="6.92292">
        <ele>2644.1999511719</ele>
        <time>2017-10-12T10:42:46.000Z</time>
      </trkpt>
      <trkpt lat="46.15505" lon="6.92288">
        <ele>2652.3999023438</ele>
        <time>2017-10-12T10:43:19.000Z</time>
      </trkpt>
      <trkpt lat="46.15522" lon="6.92278">
        <ele>2666.1999511719</ele>
        <time>2017-10-12T10:43:55.000Z</time>
      </trkpt>
      <trkpt lat="46.15537" lon="6.92265">
        <ele>2679</ele>
        <time>2017-10-12T10:44:39.000Z</time>
      </trkpt>
      <trkpt lat="46.15555" lon="6.92263">
        <ele>2688.3999023438</ele>
        <time>2017-10-12T10:45:32.000Z</time>
      </trkpt>
      <trkpt lat="46.15572" lon="6.92261">
        <ele>2691.1999511719</ele>
        <time>2017-10-12T10:46:36.000Z</time>
      </trkpt>
      <trkpt lat="46.15591" lon="6.92262">
        <ele>2702.3999023438</ele>
        <time>2017-10-12T10:47:44.000Z</time>
      </trkpt>
      <trkpt lat="46.15605" lon="6.92258">
        <ele>2734.1999511719</ele>
        <time>2017-10-12T10:49:05.000Z</time>
      </trkpt>
      <trkpt lat="46.15599" lon="6.92259">
        <ele>2722.3999023438</ele>
        <time>2017-10-12T10:51:09.000Z</time>
      </trkpt>
      <trkpt lat="46.15581" lon="6.92262">
        <ele>2690.3999023438</ele>
        <time>2017-10-12T10:51:50.000Z</time>
      </trkpt>
      <trkpt lat="46.15563" lon="6.92265">
        <ele>2689.8000488281</ele>
        <time>2017-10-12T10:52:24.000Z</time>
      </trkpt>
      <trkpt lat="46.15545" lon="6.92265">
        <ele>2682.1999511719</ele>
        <time>2017-10-12T10:52:54.000Z</time>
      </trkpt>
      <trkpt lat="46.15535" lon="6.92268">
        <ele>2676.6000976562</ele>
        <time>2017-10-12T10:53:10.000Z</time>
      </trkpt>
      <trkpt lat="46.15529" lon="6.92272">
        <ele>2672.3999023438</ele>
        <time>2017-10-12T10:53:17.000Z</time>
      </trkpt>
      <trkpt lat="46.15523" lon="6.92277">
        <ele>2666.6000976562</ele>
        <time>2017-10-12T10:53:27.000Z</time>
      </trkpt>
      <trkpt lat="46.15523" lon="6.92278">
        <ele>2666.3999023438</ele>
        <time>2017-10-12T10:53:30.000Z</time>
      </trkpt>
      <trkpt lat="46.15523" lon="6.92279">
        <ele>2666</ele>
        <time>2017-10-12T10:53:32.000Z</time>
      </trkpt>
      <trkpt lat="46.15525" lon="6.92287">
        <ele>2662.3999023438</ele>
        <time>2017-10-12T10:53:41.000Z</time>
      </trkpt>
      <trkpt lat="46.15525" lon="6.92289">
        <ele>2661.6000976562</ele>
        <time>2017-10-12T10:53:43.000Z</time>
      </trkpt>
      <trkpt lat="46.15534" lon="6.92311">
        <ele>2654</ele>
        <time>2017-10-12T10:54:10.000Z</time>
      </trkpt>
      <trkpt lat="46.15545" lon="6.92305">
        <ele>2662.3999023438</ele>
        <time>2017-10-12T10:54:48.000Z</time>
      </trkpt>
      <trkpt lat="46.1556" lon="6.92295">
        <ele>2674</ele>
        <time>2017-10-12T10:55:30.000Z</time>
      </trkpt>
      <trkpt lat="46.15569" lon="6.92314">
        <ele>2664.8000488281</ele>
        <time>2017-10-12T10:56:10.000Z</time>
      </trkpt>
      <trkpt lat="46.15584" lon="6.92301">
        <ele>2670.6000976562</ele>
        <time>2017-10-12T10:56:57.000Z</time>
      </trkpt>
      <trkpt lat="46.15597" lon="6.92298">
        <ele>2671.6000976562</ele>
        <time>2017-10-12T10:57:41.000Z</time>
      </trkpt>
      <trkpt lat="46.15604" lon="6.92303">
        <ele>2668.6000976562</ele>
        <time>2017-10-12T10:58:35.000Z</time>
      </trkpt>
      <trkpt lat="46.15615" lon="6.92309">
        <ele>2665.3999023438</ele>
        <time>2017-10-12T10:59:19.000Z</time>
      </trkpt>
      <trkpt lat="46.15627" lon="6.92306">
        <ele>2666.3999023438</ele>
        <time>2017-10-12T11:00:08.000Z</time>
      </trkpt>
      <trkpt lat="46.15643" lon="6.923">
        <ele>2703.1999511719</ele>
        <time>2017-10-12T11:00:54.000Z</time>
      </trkpt>
      <trkpt lat="46.15645" lon="6.92323">
        <ele>2661</ele>
        <time>2017-10-12T11:01:34.000Z</time>
      </trkpt>
      <trkpt lat="46.15657" lon="6.92314">
        <ele>2717.8000488281</ele>
        <time>2017-10-12T11:03:36.000Z</time>
      </trkpt>
      <trkpt lat="46.15667" lon="6.92328">
        <ele>2727.3999023438</ele>
        <time>2017-10-12T11:04:24.000Z</time>
      </trkpt>
      <trkpt lat="46.15682" lon="6.92315">
        <ele>2790.3999023438</ele>
        <time>2017-10-12T11:05:14.000Z</time>
      </trkpt>
      <trkpt lat="46.15697" lon="6.92304">
        <ele>2861</ele>
        <time>2017-10-12T11:06:07.000Z</time>
      </trkpt>
      <trkpt lat="46.15714" lon="6.92292">
        <ele>2902.1999511719</ele>
        <time>2017-10-12T11:06:52.000Z</time>
      </trkpt>
      <trkpt lat="46.15732" lon="6.92284">
        <ele>2925.1999511719</ele>
        <time>2017-10-12T11:07:55.000Z</time>
      </trkpt>
      <trkpt lat="46.1574" lon="6.92296">
        <ele>2931</ele>
        <time>2017-10-12T11:08:32.000Z</time>
      </trkpt>
      <trkpt lat="46.15744" lon="6.92314">
        <ele>2930</ele>
        <time>2017-10-12T11:09:24.000Z</time>
      </trkpt>
      <trkpt lat="46.15758" lon="6.92312">
        <ele>2946</ele>
        <time>2017-10-12T11:10:01.000Z</time>
      </trkpt>
      <trkpt lat="46.15775" lon="6.92323">
        <ele>2960.1999511719</ele>
        <time>2017-10-12T11:10:20.000Z</time>
      </trkpt>
      <trkpt lat="46.15786" lon="6.92328">
        <ele>2970.6000976562</ele>
        <time>2017-10-12T11:14:48.000Z</time>
      </trkpt>
      <trkpt lat="46.15802" lon="6.92341">
        <ele>2983.3999023438</ele>
        <time>2017-10-12T11:15:01.000Z</time>
      </trkpt>
      <trkpt lat="46.15818" lon="6.92353">
        <ele>2994</ele>
        <time>2017-10-12T11:15:14.000Z</time>
      </trkpt>
      <trkpt lat="46.15837" lon="6.92355">
        <ele>3005.6000976562</ele>
        <time>2017-10-12T11:15:28.000Z</time>
      </trkpt>
      <trkpt lat="46.15846" lon="6.92357">
        <ele>3011.6000976562</ele>
        <time>2017-10-12T11:15:36.000Z</time>
      </trkpt>
      <trkpt lat="46.15852" lon="6.92356">
        <ele>3017.3999023438</ele>
        <time>2017-10-12T11:15:42.000Z</time>
      </trkpt>
      <trkpt lat="46.15861" lon="6.92353">
        <ele>3026.3999023438</ele>
        <time>2017-10-12T11:15:53.000Z</time>
      </trkpt>
      <trkpt lat="46.15864" lon="6.92353">
        <ele>3029.6000976562</ele>
        <time>2017-10-12T11:15:57.000Z</time>
      </trkpt>
      <trkpt lat="46.15866" lon="6.92354">
        <ele>3030.6000976562</ele>
        <time>2017-10-12T11:16:01.000Z</time>
      </trkpt>
      <trkpt lat="46.15868" lon="6.92354">
        <ele>3032</ele>
        <time>2017-10-12T11:16:03.000Z</time>
      </trkpt>
      <trkpt lat="46.1587" lon="6.92348">
        <ele>3037.1999511719</ele>
        <time>2017-10-12T11:16:10.000Z</time>
      </trkpt>
      <trkpt lat="46.1588" lon="6.92344">
        <ele>3048.3999023438</ele>
        <time>2017-10-12T11:16:46.000Z</time>
      </trkpt>
      <trkpt lat="46.15889" lon="6.92337">
        <ele>3059</ele>
        <time>2017-10-12T11:17:03.000Z</time>
      </trkpt>
      <trkpt lat="46.15898" lon="6.92343">
        <ele>3063</ele>
        <time>2017-10-12T11:17:43.000Z</time>
      </trkpt>
      <trkpt lat="46.15907" lon="6.92336">
        <ele>3071.6000976562</ele>
        <time>2017-10-12T11:18:18.000Z</time>
      </trkpt>
      <trkpt lat="46.15921" lon="6.92337">
        <ele>3081.3999023438</ele>
        <time>2017-10-12T11:19:07.000Z</time>
      </trkpt>
      <trkpt lat="46.15922" lon="6.92336">
        <ele>3082.1999511719</ele>
        <time>2017-10-12T11:19:09.000Z</time>
      </trkpt>
      <trkpt lat="46.15934" lon="6.92332">
        <ele>3094</ele>
        <time>2017-10-12T11:20:12.000Z</time>
      </trkpt>
      <trkpt lat="46.1595" lon="6.92326">
        <ele>3110.6000976562</ele>
        <time>2017-10-12T11:21:11.000Z</time>
      </trkpt>
      <trkpt lat="46.15965" lon="6.92328">
        <ele>3119.3999023438</ele>
        <time>2017-10-12T11:22:01.000Z</time>
      </trkpt>
      <trkpt lat="46.15966" lon="6.92342">
        <ele>3110.6000976562</ele>
        <time>2017-10-12T11:22:45.000Z</time>
      </trkpt>
      <trkpt lat="46.15981" lon="6.92342">
        <ele>3119.8000488281</ele>
        <time>2017-10-12T11:23:54.000Z</time>
      </trkpt>
      <trkpt lat="46.15998" lon="6.92337">
        <ele>3129</ele>
        <time>2017-10-12T11:25:13.000Z</time>
      </trkpt>
      <trkpt lat="46.16012" lon="6.92328">
        <ele>3142.1999511719</ele>
        <time>2017-10-12T11:26:04.000Z</time>
      </trkpt>
      <trkpt lat="46.16024" lon="6.92344">
        <ele>3134</ele>
        <time>2017-10-12T11:26:59.000Z</time>
      </trkpt>
      <trkpt lat="46.16024" lon="6.92345">
        <ele>3133.6000976562</ele>
        <time>2017-10-12T11:27:00.000Z</time>
      </trkpt>
      <trkpt lat="46.16033" lon="6.92361">
        <ele>3124.6000976562</ele>
        <time>2017-10-12T11:27:48.000Z</time>
      </trkpt>
      <trkpt lat="46.16044" lon="6.92363">
        <ele>3127.1999511719</ele>
        <time>2017-10-12T11:28:38.000Z</time>
      </trkpt>
      <trkpt lat="46.16058" lon="6.92348">
        <ele>3144.6000976562</ele>
        <time>2017-10-12T11:29:32.000Z</time>
      </trkpt>
      <trkpt lat="46.1607" lon="6.92343">
        <ele>3150.1999511719</ele>
        <time>2017-10-12T11:30:31.000Z</time>
      </trkpt>
      <trkpt lat="46.16086" lon="6.92334">
        <ele>3155.1999511719</ele>
        <time>2017-10-12T11:31:47.000Z</time>
      </trkpt>
      <trkpt lat="46.161" lon="6.92335">
        <ele>3152.1999511719</ele>
        <time>2017-10-12T11:33:02.000Z</time>
      </trkpt>
      <trkpt lat="46.16109" lon="6.92355">
        <ele>3138.3999023438</ele>
        <time>2017-10-12T11:34:08.000Z</time>
      </trkpt>
      <trkpt lat="46.16105" lon="6.92334">
        <ele>3152</ele>
        <time>2017-10-12T11:35:16.000Z</time>
      </trkpt>
      <trkpt lat="46.16107" lon="6.92327">
        <ele>3156</ele>
        <time>2017-10-12T11:35:28.000Z</time>
      </trkpt>
      <trkpt lat="46.16105" lon="6.92334">
        <ele>3151.6000976562</ele>
        <time>2017-10-12T11:37:14.000Z</time>
      </trkpt>
      <trkpt lat="46.16106" lon="6.92336">
        <ele>3150.8000488281</ele>
        <time>2017-10-12T11:41:42.000Z</time>
      </trkpt>
      <trkpt lat="46.16109" lon="6.92334">
        <ele>3151</ele>
        <time>2017-10-12T11:45:48.000Z</time>
      </trkpt>
      <trkpt lat="46.16106" lon="6.92339">
        <ele>3148.3999023438</ele>
        <time>2017-10-12T11:49:23.000Z</time>
      </trkpt>
      <trkpt lat="46.16105" lon="6.92335">
        <ele>3151.1999511719</ele>
        <time>2017-10-12T11:55:42.000Z</time>
      </trkpt>
      <trkpt lat="46.16095" lon="6.92328">
        <ele>3157</ele>
        <time>2017-10-12T11:57:03.000Z</time>
      </trkpt>
      <trkpt lat="46.16084" lon="6.92308">
        <ele>3168.6000976562</ele>
        <time>2017-10-12T11:57:47.000Z</time>
      </trkpt>
      <trkpt lat="46.16073" lon="6.92287">
        <ele>3179.6000976562</ele>
        <time>2017-10-12T11:58:25.000Z</time>
      </trkpt>
      <trkpt lat="46.16073" lon="6.92286">
        <ele>3180.1999511719</ele>
        <time>2017-10-12T11:58:26.000Z</time>
      </trkpt>
      <trkpt lat="46.16073" lon="6.92284">
        <ele>3181.1999511719</ele>
        <time>2017-10-12T11:58:28.000Z</time>
      </trkpt>
      <trkpt lat="46.16061" lon="6.92266">
        <ele>3191.1999511719</ele>
        <time>2017-10-12T11:59:07.000Z</time>
      </trkpt>
      <trkpt lat="46.16049" lon="6.92248">
        <ele>3195</ele>
        <time>2017-10-12T11:59:49.000Z</time>
      </trkpt>
      <trkpt lat="46.16039" lon="6.92231">
        <ele>3195</ele>
        <time>2017-10-12T12:00:20.000Z</time>
      </trkpt>
      <trkpt lat="46.16036" lon="6.92237">
        <ele>3193.8000488281</ele>
        <time>2017-10-12T12:00:26.000Z</time>
      </trkpt>
      <trkpt lat="46.16032" lon="6.92245">
        <ele>3190</ele>
        <time>2017-10-12T12:00:36.000Z</time>
      </trkpt>
      <trkpt lat="46.16031" lon="6.92248">
        <ele>3188</ele>
        <time>2017-10-12T12:00:40.000Z</time>
      </trkpt>
      <trkpt lat="46.16021" lon="6.92267">
        <ele>3176.3999023438</ele>
        <time>2017-10-12T12:01:17.000Z</time>
      </trkpt>
      <trkpt lat="46.1601" lon="6.92284">
        <ele>3164</ele>
        <time>2017-10-12T12:01:37.000Z</time>
      </trkpt>
      <trkpt lat="46.16008" lon="6.92286">
        <ele>3162.1999511719</ele>
        <time>2017-10-12T12:01:40.000Z</time>
      </trkpt>
      <trkpt lat="46.16006" lon="6.92287">
        <ele>3161.1999511719</ele>
        <time>2017-10-12T12:01:43.000Z</time>
      </trkpt>
      <trkpt lat="46.16006" lon="6.92288">
        <ele>3160.3999023438</ele>
        <time>2017-10-12T12:01:45.000Z</time>
      </trkpt>
      <trkpt lat="46.15991" lon="6.92302">
        <ele>3147.6000976562</ele>
        <time>2017-10-12T12:02:09.000Z</time>
      </trkpt>
      <trkpt lat="46.15982" lon="6.92319">
        <ele>3135.8000488281</ele>
        <time>2017-10-12T12:02:59.000Z</time>
      </trkpt>
      <trkpt lat="46.15966" lon="6.92328">
        <ele>3120.6000976562</ele>
        <time>2017-10-12T12:03:52.000Z</time>
      </trkpt>
      <trkpt lat="46.15964" lon="6.92323">
        <ele>3122.1999511719</ele>
        <time>2017-10-12T12:06:42.000Z</time>
      </trkpt>
      <trkpt lat="46.15947" lon="6.92329">
        <ele>3105.6000976562</ele>
        <time>2017-10-12T12:07:18.000Z</time>
      </trkpt>
      <trkpt lat="46.15933" lon="6.9234">
        <ele>3088</ele>
        <time>2017-10-12T12:08:15.000Z</time>
      </trkpt>
      <trkpt lat="46.15924" lon="6.92336">
        <ele>3083.6000976562</ele>
        <time>2017-10-12T12:09:01.000Z</time>
      </trkpt>
      <trkpt lat="46.15912" lon="6.92337">
        <ele>3074.6000976562</ele>
        <time>2017-10-12T12:10:08.000Z</time>
      </trkpt>
      <trkpt lat="46.15898" lon="6.92349">
        <ele>3060</ele>
        <time>2017-10-12T12:10:52.000Z</time>
      </trkpt>
      <trkpt lat="46.15893" lon="6.92337">
        <ele>3062.6000976562</ele>
        <time>2017-10-12T12:11:34.000Z</time>
      </trkpt>
      <trkpt lat="46.15883" lon="6.92347">
        <ele>3049.1999511719</ele>
        <time>2017-10-12T12:11:51.000Z</time>
      </trkpt>
      <trkpt lat="46.15881" lon="6.92349">
        <ele>3046.6000976562</ele>
        <time>2017-10-12T12:11:54.000Z</time>
      </trkpt>
      <trkpt lat="46.15871" lon="6.92352">
        <ele>3036.1999511719</ele>
        <time>2017-10-12T12:12:24.000Z</time>
      </trkpt>
      <trkpt lat="46.15855" lon="6.92357">
        <ele>3019.6000976562</ele>
        <time>2017-10-12T12:12:46.000Z</time>
      </trkpt>
      <trkpt lat="46.15836" lon="6.92355">
        <ele>3005.1999511719</ele>
        <time>2017-10-12T12:12:57.000Z</time>
      </trkpt>
      <trkpt lat="46.15817" lon="6.92354">
        <ele>2993</ele>
        <time>2017-10-12T12:13:07.000Z</time>
      </trkpt>
      <trkpt lat="46.15801" lon="6.92342">
        <ele>2982</ele>
        <time>2017-10-12T12:13:23.000Z</time>
      </trkpt>
      <trkpt lat="46.15785" lon="6.92329">
        <ele>2968.8000488281</ele>
        <time>2017-10-12T12:13:41.000Z</time>
      </trkpt>
      <trkpt lat="46.15768" lon="6.92322">
        <ele>2953.1999511719</ele>
        <time>2017-10-12T12:13:59.000Z</time>
      </trkpt>
      <trkpt lat="46.15755" lon="6.92313">
        <ele>2942.8000488281</ele>
        <time>2017-10-12T12:14:15.000Z</time>
      </trkpt>
      <trkpt lat="46.15748" lon="6.92312">
        <ele>2935</ele>
        <time>2017-10-12T12:16:27.000Z</time>
      </trkpt>
      <trkpt lat="46.15738" lon="6.92316">
        <ele>2924</ele>
        <time>2017-10-12T12:16:45.000Z</time>
      </trkpt>
      <trkpt lat="46.15738" lon="6.92311">
        <ele>2925.1999511719</ele>
        <time>2017-10-12T12:16:49.000Z</time>
      </trkpt>
      <trkpt lat="46.15739" lon="6.92285">
        <ele>2932.8000488281</ele>
        <time>2017-10-12T12:17:18.000Z</time>
      </trkpt>
      <trkpt lat="46.15725" lon="6.92288">
        <ele>2916.6000976562</ele>
        <time>2017-10-12T12:17:51.000Z</time>
      </trkpt>
      <trkpt lat="46.15708" lon="6.92297">
        <ele>2893.6000976562</ele>
        <time>2017-10-12T12:18:19.000Z</time>
      </trkpt>
      <trkpt lat="46.15692" lon="6.9231">
        <ele>2830.1999511719</ele>
        <time>2017-10-12T12:18:49.000Z</time>
      </trkpt>
      <trkpt lat="46.15677" lon="6.92322">
        <ele>2761.6000976562</ele>
        <time>2017-10-12T12:19:45.000Z</time>
      </trkpt>
      <trkpt lat="46.15669" lon="6.92327">
        <ele>2733.3999023438</ele>
        <time>2017-10-12T12:19:57.000Z</time>
      </trkpt>
      <trkpt lat="46.15661" lon="6.92318">
        <ele>2721.3999023438</ele>
        <time>2017-10-12T12:20:16.000Z</time>
      </trkpt>
      <trkpt lat="46.15647" lon="6.92322">
        <ele>2670.6000976562</ele>
        <time>2017-10-12T12:20:41.000Z</time>
      </trkpt>
      <trkpt lat="46.15646" lon="6.92324">
        <ele>2662.8000488281</ele>
        <time>2017-10-12T12:20:43.000Z</time>
      </trkpt>
      <trkpt lat="46.15644" lon="6.92321">
        <ele>2661.8000488281</ele>
        <time>2017-10-12T12:20:47.000Z</time>
      </trkpt>
      <trkpt lat="46.1564" lon="6.92304">
        <ele>2692.1999511719</ele>
        <time>2017-10-12T12:21:07.000Z</time>
      </trkpt>
      <trkpt lat="46.15641" lon="6.92301">
        <ele>2698.6000976562</ele>
        <time>2017-10-12T12:21:10.000Z</time>
      </trkpt>
      <trkpt lat="46.15625" lon="6.9231">
        <ele>2664.8000488281</ele>
        <time>2017-10-12T12:21:40.000Z</time>
      </trkpt>
      <trkpt lat="46.15619" lon="6.92315">
        <ele>2662.1999511719</ele>
        <time>2017-10-12T12:21:50.000Z</time>
      </trkpt>
      <trkpt lat="46.15614" lon="6.9231">
        <ele>2665</ele>
        <time>2017-10-12T12:22:08.000Z</time>
      </trkpt>
      <trkpt lat="46.15606" lon="6.92315">
        <ele>2663</ele>
        <time>2017-10-12T12:22:20.000Z</time>
      </trkpt>
      <trkpt lat="46.15605" lon="6.92313">
        <ele>2663.8000488281</ele>
        <time>2017-10-12T12:22:24.000Z</time>
      </trkpt>
      <trkpt lat="46.156" lon="6.92298">
        <ele>2671.8000488281</ele>
        <time>2017-10-12T12:23:08.000Z</time>
      </trkpt>
      <trkpt lat="46.15584" lon="6.92304">
        <ele>2668.8000488281</ele>
        <time>2017-10-12T12:23:39.000Z</time>
      </trkpt>
      <trkpt lat="46.15568" lon="6.92314">
        <ele>2664.6000976562</ele>
        <time>2017-10-12T12:24:09.000Z</time>
      </trkpt>
      <trkpt lat="46.15563" lon="6.923">
        <ele>2672</ele>
        <time>2017-10-12T12:24:25.000Z</time>
      </trkpt>
      <trkpt lat="46.15563" lon="6.92298">
        <ele>2672.8000488281</ele>
        <time>2017-10-12T12:24:27.000Z</time>
      </trkpt>
      <trkpt lat="46.15554" lon="6.92301">
        <ele>2668.3999023438</ele>
        <time>2017-10-12T12:24:43.000Z</time>
      </trkpt>
      <trkpt lat="46.15551" lon="6.92303">
        <ele>2666</ele>
        <time>2017-10-12T12:24:47.000Z</time>
      </trkpt>
      <trkpt lat="46.15542" lon="6.92311">
        <ele>2658.1999511719</ele>
        <time>2017-10-12T12:25:05.000Z</time>
      </trkpt>
      <trkpt lat="46.15538" lon="6.9232">
        <ele>2651.1999511719</ele>
        <time>2017-10-12T12:25:13.000Z</time>
      </trkpt>
      <trkpt lat="46.15536" lon="6.92319">
        <ele>2651</ele>
        <time>2017-10-12T12:25:16.000Z</time>
      </trkpt>
      <trkpt lat="46.15535" lon="6.92315">
        <ele>2652.8000488281</ele>
        <time>2017-10-12T12:25:20.000Z</time>
      </trkpt>
      <trkpt lat="46.15528" lon="6.92292">
        <ele>2661.1999511719</ele>
        <time>2017-10-12T12:25:47.000Z</time>
      </trkpt>
      <trkpt lat="46.15522" lon="6.92279">
        <ele>2665.1999511719</ele>
        <time>2017-10-12T12:26:05.000Z</time>
      </trkpt>
      <trkpt lat="46.1552" lon="6.92281">
        <ele>2663.1999511719</ele>
        <time>2017-10-12T12:26:08.000Z</time>
      </trkpt>
      <trkpt lat="46.15503" lon="6.92291">
        <ele>2650.3999023438</ele>
        <time>2017-10-12T12:26:30.000Z</time>
      </trkpt>
      <trkpt lat="46.15499" lon="6.92294">
        <ele>2646.6000976562</ele>
        <time>2017-10-12T12:26:36.000Z</time>
      </trkpt>
      <trkpt lat="46.15492" lon="6.92296">
        <ele>2642.3999023438</ele>
        <time>2017-10-12T12:26:46.000Z</time>
      </trkpt>
      <trkpt lat="46.15488" lon="6.92298">
        <ele>2639.6000976562</ele>
        <time>2017-10-12T12:26:52.000Z</time>
      </trkpt>
      <trkpt lat="46.15484" lon="6.923">
        <ele>2636.6000976562</ele>
        <time>2017-10-12T12:26:58.000Z</time>
      </trkpt>
      <trkpt lat="46.15478" lon="6.92304">
        <ele>2631.8000488281</ele>
        <time>2017-10-12T12:27:08.000Z</time>
      </trkpt>
      <trkpt lat="46.15463" lon="6.9231">
        <ele>2619.8000488281</ele>
        <time>2017-10-12T12:27:42.000Z</time>
      </trkpt>
      <trkpt lat="46.15448" lon="6.92301">
        <ele>2616</ele>
        <time>2017-10-12T12:28:09.000Z</time>
      </trkpt>
      <trkpt lat="46.15447" lon="6.92301">
        <ele>2615</ele>
        <time>2017-10-12T12:28:11.000Z</time>
      </trkpt>
      <trkpt lat="46.15442" lon="6.92296">
        <ele>2615.1999511719</ele>
        <time>2017-10-12T12:28:19.000Z</time>
      </trkpt>
      <trkpt lat="46.1543" lon="6.92292">
        <ele>2610.1999511719</ele>
        <time>2017-10-12T12:28:48.000Z</time>
      </trkpt>
      <trkpt lat="46.15424" lon="6.92293">
        <ele>2607</ele>
        <time>2017-10-12T12:29:03.000Z</time>
      </trkpt>
      <trkpt lat="46.15416" lon="6.92309">
        <ele>2594.3999023438</ele>
        <time>2017-10-12T12:29:28.000Z</time>
      </trkpt>
      <trkpt lat="46.15411" lon="6.92332">
        <ele>2590.3999023438</ele>
        <time>2017-10-12T12:29:55.000Z</time>
      </trkpt>
      <trkpt lat="46.15409" lon="6.92352">
        <ele>2602.8000488281</ele>
        <time>2017-10-12T12:30:11.000Z</time>
      </trkpt>
      <trkpt lat="46.15414" lon="6.92366">
        <ele>2615</ele>
        <time>2017-10-12T12:30:27.000Z</time>
      </trkpt>
      <trkpt lat="46.15418" lon="6.92386">
        <ele>2631.1999511719</ele>
        <time>2017-10-12T12:30:56.000Z</time>
      </trkpt>
      <trkpt lat="46.15419" lon="6.92406">
        <ele>2645</ele>
        <time>2017-10-12T12:32:01.000Z</time>
      </trkpt>
      <trkpt lat="46.15424" lon="6.92431">
        <ele>2656.6000976562</ele>
        <time>2017-10-12T12:32:16.000Z</time>
      </trkpt>
      <trkpt lat="46.15424" lon="6.92443">
        <ele>2661.6000976562</ele>
        <time>2017-10-12T12:32:26.000Z</time>
      </trkpt>
      <trkpt lat="46.15424" lon="6.92446">
        <ele>2662.1999511719</ele>
        <time>2017-10-12T12:32:28.000Z</time>
      </trkpt>
      <trkpt lat="46.15424" lon="6.92448">
        <ele>2663.1999511719</ele>
        <time>2017-10-12T12:32:31.000Z</time>
      </trkpt>
      <trkpt lat="46.15422" lon="6.92473">
        <ele>2672.8000488281</ele>
        <time>2017-10-12T12:32:51.000Z</time>
      </trkpt>
      <trkpt lat="46.15423" lon="6.92487">
        <ele>2679</ele>
        <time>2017-10-12T12:33:01.000Z</time>
      </trkpt>
      <trkpt lat="46.15422" lon="6.92492">
        <ele>2679.8000488281</ele>
        <time>2017-10-12T12:33:05.000Z</time>
      </trkpt>
      <trkpt lat="46.1542" lon="6.92513">
        <ele>2676.3999023438</ele>
        <time>2017-10-12T12:33:23.000Z</time>
      </trkpt>
      <trkpt lat="46.15418" lon="6.92513">
        <ele>2675.3999023438</ele>
        <time>2017-10-12T12:33:27.000Z</time>
      </trkpt>
      <trkpt lat="46.15417" lon="6.92515">
        <ele>2674.8000488281</ele>
        <time>2017-10-12T12:33:30.000Z</time>
      </trkpt>
      <trkpt lat="46.15416" lon="6.92521">
        <ele>2674.1999511719</ele>
        <time>2017-10-12T12:33:37.000Z</time>
      </trkpt>
      <trkpt lat="46.15408" lon="6.92514">
        <ele>2670.8000488281</ele>
        <time>2017-10-12T12:34:01.000Z</time>
      </trkpt>
      <trkpt lat="46.15405" lon="6.92507">
        <ele>2669.3999023438</ele>
        <time>2017-10-12T12:34:10.000Z</time>
      </trkpt>
      <trkpt lat="46.154" lon="6.9251">
        <ele>2667</ele>
        <time>2017-10-12T12:34:59.000Z</time>
      </trkpt>
      <trkpt lat="46.15398" lon="6.92506">
        <ele>2666.3999023438</ele>
        <time>2017-10-12T12:35:02.000Z</time>
      </trkpt>
      <trkpt lat="46.15392" lon="6.92498">
        <ele>2663.3999023438</ele>
        <time>2017-10-12T12:35:12.000Z</time>
      </trkpt>
      <trkpt lat="46.15388" lon="6.92519">
        <ele>2660.8000488281</ele>
        <time>2017-10-12T12:35:45.000Z</time>
      </trkpt>
      <trkpt lat="46.1538" lon="6.92522">
        <ele>2656.3999023438</ele>
        <time>2017-10-12T12:36:09.000Z</time>
      </trkpt>
      <trkpt lat="46.1538" lon="6.92521">
        <ele>2656.1999511719</ele>
        <time>2017-10-12T12:36:11.000Z</time>
      </trkpt>
      <trkpt lat="46.15372" lon="6.92534">
        <ele>2651.6000976562</ele>
        <time>2017-10-12T12:36:51.000Z</time>
      </trkpt>
      <trkpt lat="46.15361" lon="6.92549">
        <ele>2645.8000488281</ele>
        <time>2017-10-12T12:37:16.000Z</time>
      </trkpt>
      <trkpt lat="46.15346" lon="6.92546">
        <ele>2638.1999511719</ele>
        <time>2017-10-12T12:37:47.000Z</time>
      </trkpt>
      <trkpt lat="46.15339" lon="6.92535">
        <ele>2634.1999511719</ele>
        <time>2017-10-12T12:37:59.000Z</time>
      </trkpt>
      <trkpt lat="46.15331" lon="6.92526">
        <ele>2630.3999023438</ele>
        <time>2017-10-12T12:38:10.000Z</time>
      </trkpt>
      <trkpt lat="46.15328" lon="6.92521">
        <ele>2628.3999023438</ele>
        <time>2017-10-12T12:38:17.000Z</time>
      </trkpt>
      <trkpt lat="46.15324" lon="6.92509">
        <ele>2626</ele>
        <time>2017-10-12T12:38:27.000Z</time>
      </trkpt>
      <trkpt lat="46.15317" lon="6.92497">
        <ele>2622.1999511719</ele>
        <time>2017-10-12T12:38:37.000Z</time>
      </trkpt>
      <trkpt lat="46.15317" lon="6.92494">
        <ele>2622.1999511719</ele>
        <time>2017-10-12T12:38:39.000Z</time>
      </trkpt>
      <trkpt lat="46.15304" lon="6.9248">
        <ele>2611.8000488281</ele>
        <time>2017-10-12T12:38:55.000Z</time>
      </trkpt>
      <trkpt lat="46.15305" lon="6.92471">
        <ele>2608.8000488281</ele>
        <time>2017-10-12T12:39:01.000Z</time>
      </trkpt>
      <trkpt lat="46.15299" lon="6.92462">
        <ele>2602.1999511719</ele>
        <time>2017-10-12T12:39:10.000Z</time>
      </trkpt>
      <trkpt lat="46.15287" lon="6.92449">
        <ele>2592.1999511719</ele>
        <time>2017-10-12T12:39:26.000Z</time>
      </trkpt>
      <trkpt lat="46.15286" lon="6.92445">
        <ele>2590.1999511719</ele>
        <time>2017-10-12T12:39:29.000Z</time>
      </trkpt>
      <trkpt lat="46.15284" lon="6.9244">
        <ele>2587.1999511719</ele>
        <time>2017-10-12T12:39:33.000Z</time>
      </trkpt>
      <trkpt lat="46.15282" lon="6.92434">
        <ele>2583.8000488281</ele>
        <time>2017-10-12T12:39:38.000Z</time>
      </trkpt>
      <trkpt lat="46.15274" lon="6.92411">
        <ele>2571</ele>
        <time>2017-10-12T12:39:55.000Z</time>
      </trkpt>
      <trkpt lat="46.15273" lon="6.92411">
        <ele>2571</ele>
        <time>2017-10-12T12:39:56.000Z</time>
      </trkpt>
      <trkpt lat="46.15272" lon="6.92411">
        <ele>2570.1999511719</ele>
        <time>2017-10-12T12:39:58.000Z</time>
      </trkpt>
      <trkpt lat="46.1527" lon="6.92408">
        <ele>2568</ele>
        <time>2017-10-12T12:40:02.000Z</time>
      </trkpt>
      <trkpt lat="46.15259" lon="6.9239">
        <ele>2555.6000976562</ele>
        <time>2017-10-12T12:40:33.000Z</time>
      </trkpt>
      <trkpt lat="46.15258" lon="6.92389">
        <ele>2554.8000488281</ele>
        <time>2017-10-12T12:40:34.000Z</time>
      </trkpt>
      <trkpt lat="46.15254" lon="6.92377">
        <ele>2547.3999023438</ele>
        <time>2017-10-12T12:40:45.000Z</time>
      </trkpt>
      <trkpt lat="46.15251" lon="6.92367">
        <ele>2542</ele>
        <time>2017-10-12T12:40:51.000Z</time>
      </trkpt>
      <trkpt lat="46.15241" lon="6.92349">
        <ele>2529.8000488281</ele>
        <time>2017-10-12T12:41:08.000Z</time>
      </trkpt>
      <trkpt lat="46.15232" lon="6.92351">
        <ele>2526.6000976562</ele>
        <time>2017-10-12T12:41:21.000Z</time>
      </trkpt>
      <trkpt lat="46.1523" lon="6.92347">
        <ele>2524</ele>
        <time>2017-10-12T12:41:24.000Z</time>
      </trkpt>
      <trkpt lat="46.15228" lon="6.92345">
        <ele>2522.1999511719</ele>
        <time>2017-10-12T12:41:27.000Z</time>
      </trkpt>
      <trkpt lat="46.15224" lon="6.92344">
        <ele>2521.8000488281</ele>
        <time>2017-10-12T12:41:31.000Z</time>
      </trkpt>
      <trkpt lat="46.15222" lon="6.92343">
        <ele>2521.3999023438</ele>
        <time>2017-10-12T12:41:33.000Z</time>
      </trkpt>
      <trkpt lat="46.15219" lon="6.92342">
        <ele>2521.1999511719</ele>
        <time>2017-10-12T12:41:37.000Z</time>
      </trkpt>
      <trkpt lat="46.15215" lon="6.92341">
        <ele>2521.1999511719</ele>
        <time>2017-10-12T12:41:40.000Z</time>
      </trkpt>
      <trkpt lat="46.15199" lon="6.92329">
        <ele>2516.6000976562</ele>
        <time>2017-10-12T12:41:58.000Z</time>
      </trkpt>
      <trkpt lat="46.15195" lon="6.92327">
        <ele>2515.8000488281</ele>
        <time>2017-10-12T12:42:02.000Z</time>
      </trkpt>
      <trkpt lat="46.15186" lon="6.9232">
        <ele>2515.6000976562</ele>
        <time>2017-10-12T12:42:12.000Z</time>
      </trkpt>
      <trkpt lat="46.15173" lon="6.92303">
        <ele>2518.8000488281</ele>
        <time>2017-10-12T12:42:28.000Z</time>
      </trkpt>
      <trkpt lat="46.15172" lon="6.923">
        <ele>2519.3999023438</ele>
        <time>2017-10-12T12:42:30.000Z</time>
      </trkpt>
      <trkpt lat="46.15164" lon="6.92276">
        <ele>2523.3999023438</ele>
        <time>2017-10-12T12:42:44.000Z</time>
      </trkpt>
      <trkpt lat="46.15162" lon="6.92271">
        <ele>2524.3999023438</ele>
        <time>2017-10-12T12:42:47.000Z</time>
      </trkpt>
      <trkpt lat="46.15152" lon="6.92258">
        <ele>2527</ele>
        <time>2017-10-12T12:43:00.000Z</time>
      </trkpt>
      <trkpt lat="46.15149" lon="6.92256">
        <ele>2527.1999511719</ele>
        <time>2017-10-12T12:43:03.000Z</time>
      </trkpt>
      <trkpt lat="46.15144" lon="6.92251">
        <ele>2528.3999023438</ele>
        <time>2017-10-12T12:43:09.000Z</time>
      </trkpt>
      <trkpt lat="46.1514" lon="6.92252">
        <ele>2527.6000976562</ele>
        <time>2017-10-12T12:43:13.000Z</time>
      </trkpt>
      <trkpt lat="46.15133" lon="6.92242">
        <ele>2528.3999023438</ele>
        <time>2017-10-12T12:43:24.000Z</time>
      </trkpt>
      <trkpt lat="46.15128" lon="6.92239">
        <ele>2528.1999511719</ele>
        <time>2017-10-12T12:43:29.000Z</time>
      </trkpt>
      <trkpt lat="46.15119" lon="6.92236">
        <ele>2527.6000976562</ele>
        <time>2017-10-12T12:43:39.000Z</time>
      </trkpt>
      <trkpt lat="46.15117" lon="6.92239">
        <ele>2526.6000976562</ele>
        <time>2017-10-12T12:43:42.000Z</time>
      </trkpt>
      <trkpt lat="46.15115" lon="6.92242">
        <ele>2525.8000488281</ele>
        <time>2017-10-12T12:43:45.000Z</time>
      </trkpt>
      <trkpt lat="46.151" lon="6.92225">
        <ele>2527</ele>
        <time>2017-10-12T12:44:01.000Z</time>
      </trkpt>
      <trkpt lat="46.15099" lon="6.92222">
        <ele>2527.3999023438</ele>
        <time>2017-10-12T12:44:03.000Z</time>
      </trkpt>
      <trkpt lat="46.15089" lon="6.922">
        <ele>2530</ele>
        <time>2017-10-12T12:44:18.000Z</time>
      </trkpt>
      <trkpt lat="46.1508" lon="6.9219">
        <ele>2530.6000976562</ele>
        <time>2017-10-12T12:44:28.000Z</time>
      </trkpt>
      <trkpt lat="46.15075" lon="6.92185">
        <ele>2530.8000488281</ele>
        <time>2017-10-12T12:44:35.000Z</time>
      </trkpt>
      <trkpt lat="46.15073" lon="6.92184">
        <ele>2530.6000976562</ele>
        <time>2017-10-12T12:44:37.000Z</time>
      </trkpt>
      <trkpt lat="46.15059" lon="6.92166">
        <ele>2531.3999023438</ele>
        <time>2017-10-12T12:44:53.000Z</time>
      </trkpt>
      <trkpt lat="46.15046" lon="6.92147">
        <ele>2525.1999511719</ele>
        <time>2017-10-12T12:45:08.000Z</time>
      </trkpt>
      <trkpt lat="46.15042" lon="6.92132">
        <ele>2523.1999511719</ele>
        <time>2017-10-12T12:45:16.000Z</time>
      </trkpt>
      <trkpt lat="46.15042" lon="6.92128">
        <ele>2523.6000976562</ele>
        <time>2017-10-12T12:45:20.000Z</time>
      </trkpt>
      <trkpt lat="46.15043" lon="6.92129">
        <ele>2523.8000488281</ele>
        <time>2017-10-12T12:45:22.000Z</time>
      </trkpt>
      <trkpt lat="46.15045" lon="6.92133">
        <ele>2525</ele>
        <time>2017-10-12T12:47:50.000Z</time>
      </trkpt>
      <trkpt lat="46.15038" lon="6.92134">
        <ele>2521</ele>
        <time>2017-10-12T12:48:37.000Z</time>
      </trkpt>
      <trkpt lat="46.15031" lon="6.92127">
        <ele>2517</ele>
        <time>2017-10-12T12:48:45.000Z</time>
      </trkpt>
      <trkpt lat="46.15019" lon="6.92109">
        <ele>2509.8000488281</ele>
        <time>2017-10-12T12:49:01.000Z</time>
      </trkpt>
      <trkpt lat="46.15003" lon="6.92098">
        <ele>2500.6000976562</ele>
        <time>2017-10-12T12:49:18.000Z</time>
      </trkpt>
      <trkpt lat="46.14986" lon="6.92093">
        <ele>2490.8000488281</ele>
        <time>2017-10-12T12:49:29.000Z</time>
      </trkpt>
      <trkpt lat="46.1498" lon="6.92092">
        <ele>2487.1999511719</ele>
        <time>2017-10-12T12:49:36.000Z</time>
      </trkpt>
      <trkpt lat="46.14978" lon="6.92092">
        <ele>2486.1999511719</ele>
        <time>2017-10-12T12:49:38.000Z</time>
      </trkpt>
      <trkpt lat="46.14977" lon="6.92091">
        <ele>2485.3999023438</ele>
        <time>2017-10-12T12:49:40.000Z</time>
      </trkpt>
      <trkpt lat="46.1496" lon="6.92098">
        <ele>2473</ele>
        <time>2017-10-12T12:49:55.000Z</time>
      </trkpt>
      <trkpt lat="46.14955" lon="6.92103">
        <ele>2469.8000488281</ele>
        <time>2017-10-12T12:49:59.000Z</time>
      </trkpt>
      <trkpt lat="46.14937" lon="6.92094">
        <ele>2456.8000488281</ele>
        <time>2017-10-12T12:50:11.000Z</time>
      </trkpt>
      <trkpt lat="46.1492" lon="6.92082">
        <ele>2444.1999511719</ele>
        <time>2017-10-12T12:50:20.000Z</time>
      </trkpt>
      <trkpt lat="46.14918" lon="6.92078">
        <ele>2442.8000488281</ele>
        <time>2017-10-12T12:50:22.000Z</time>
      </trkpt>
      <trkpt lat="46.14905" lon="6.92059">
        <ele>2436.8000488281</ele>
        <time>2017-10-12T12:50:34.000Z</time>
      </trkpt>
      <trkpt lat="46.14888" lon="6.92047">
        <ele>2427.6000976562</ele>
        <time>2017-10-12T12:50:45.000Z</time>
      </trkpt>
      <trkpt lat="46.14871" lon="6.92037">
        <ele>2419.3999023438</ele>
        <time>2017-10-12T12:51:00.000Z</time>
      </trkpt>
      <trkpt lat="46.14853" lon="6.92033">
        <ele>2409.8000488281</ele>
        <time>2017-10-12T12:51:14.000Z</time>
      </trkpt>
      <trkpt lat="46.14848" lon="6.9203">
        <ele>2407.1999511719</ele>
        <time>2017-10-12T12:51:17.000Z</time>
      </trkpt>
      <trkpt lat="46.1484" lon="6.92007">
        <ele>2407.6000976562</ele>
        <time>2017-10-12T12:51:28.000Z</time>
      </trkpt>
      <trkpt lat="46.14831" lon="6.91983">
        <ele>2409.6000976562</ele>
        <time>2017-10-12T12:51:41.000Z</time>
      </trkpt>
      <trkpt lat="46.1483" lon="6.91979">
        <ele>2411.8000488281</ele>
        <time>2017-10-12T12:51:43.000Z</time>
      </trkpt>
      <trkpt lat="46.14834" lon="6.91954">
        <ele>2427.6000976562</ele>
        <time>2017-10-12T12:51:53.000Z</time>
      </trkpt>
      <trkpt lat="46.14839" lon="6.91948">
        <ele>2434.1999511719</ele>
        <time>2017-10-12T12:51:58.000Z</time>
      </trkpt>
      <trkpt lat="46.1484" lon="6.91923">
        <ele>2443.6000976562</ele>
        <time>2017-10-12T12:52:13.000Z</time>
      </trkpt>
      <trkpt lat="46.14844" lon="6.91899">
        <ele>2449.6000976562</ele>
        <time>2017-10-12T12:52:27.000Z</time>
      </trkpt>
      <trkpt lat="46.14847" lon="6.91891">
        <ele>2452.6000976562</ele>
        <time>2017-10-12T12:52:33.000Z</time>
      </trkpt>
      <trkpt lat="46.14831" lon="6.91882">
        <ele>2452.3999023438</ele>
        <time>2017-10-12T12:52:45.000Z</time>
      </trkpt>
      <trkpt lat="46.1483" lon="6.91879">
        <ele>2453.1999511719</ele>
        <time>2017-10-12T12:52:47.000Z</time>
      </trkpt>
      <trkpt lat="46.14831" lon="6.91866">
        <ele>2457.3999023438</ele>
        <time>2017-10-12T12:52:57.000Z</time>
      </trkpt>
      <trkpt lat="46.14833" lon="6.91861">
        <ele>2459.1999511719</ele>
        <time>2017-10-12T12:53:00.000Z</time>
      </trkpt>
      <trkpt lat="46.14837" lon="6.91853">
        <ele>2462.3999023438</ele>
        <time>2017-10-12T12:53:07.000Z</time>
      </trkpt>
      <trkpt lat="46.14839" lon="6.91852">
        <ele>2463.1999511719</ele>
        <time>2017-10-12T12:53:09.000Z</time>
      </trkpt>
      <trkpt lat="46.14844" lon="6.91851">
        <ele>2462.8000488281</ele>
        <time>2017-10-12T12:53:13.000Z</time>
      </trkpt>
      <trkpt lat="46.1485" lon="6.91835">
        <ele>2462.6000976562</ele>
        <time>2017-10-12T12:53:25.000Z</time>
      </trkpt>
      <trkpt lat="46.14849" lon="6.91832">
        <ele>2462.6000976562</ele>
        <time>2017-10-12T12:53:27.000Z</time>
      </trkpt>
      <trkpt lat="46.14857" lon="6.9181">
        <ele>2459.3999023438</ele>
        <time>2017-10-12T12:53:40.000Z</time>
      </trkpt>
      <trkpt lat="46.14872" lon="6.91798">
        <ele>2456</ele>
        <time>2017-10-12T12:53:55.000Z</time>
      </trkpt>
      <trkpt lat="46.14884" lon="6.91796">
        <ele>2455</ele>
        <time>2017-10-12T12:54:06.000Z</time>
      </trkpt>
      <trkpt lat="46.14887" lon="6.91789">
        <ele>2454</ele>
        <time>2017-10-12T12:54:12.000Z</time>
      </trkpt>
      <trkpt lat="46.14895" lon="6.91778">
        <ele>2451.8000488281</ele>
        <time>2017-10-12T12:54:22.000Z</time>
      </trkpt>
      <trkpt lat="46.14905" lon="6.9177">
        <ele>2450.3999023438</ele>
        <time>2017-10-12T12:54:31.000Z</time>
      </trkpt>
      <trkpt lat="46.14909" lon="6.91754">
        <ele>2448.1999511719</ele>
        <time>2017-10-12T12:54:38.000Z</time>
      </trkpt>
      <trkpt lat="46.14904" lon="6.91738">
        <ele>2446.8000488281</ele>
        <time>2017-10-12T12:54:45.000Z</time>
      </trkpt>
      <trkpt lat="46.14897" lon="6.91714">
        <ele>2441.8000488281</ele>
        <time>2017-10-12T12:54:55.000Z</time>
      </trkpt>
      <trkpt lat="46.14896" lon="6.9171">
        <ele>2440.8000488281</ele>
        <time>2017-10-12T12:54:57.000Z</time>
      </trkpt>
      <trkpt lat="46.14888" lon="6.91689">
        <ele>2436.1999511719</ele>
        <time>2017-10-12T12:55:07.000Z</time>
      </trkpt>
      <trkpt lat="46.14878" lon="6.91676">
        <ele>2432.8000488281</ele>
        <time>2017-10-12T12:55:20.000Z</time>
      </trkpt>
      <trkpt lat="46.1487" lon="6.91651">
        <ele>2426.8000488281</ele>
        <time>2017-10-12T12:55:30.000Z</time>
      </trkpt>
      <trkpt lat="46.14861" lon="6.91627">
        <ele>2420.3999023438</ele>
        <time>2017-10-12T12:55:42.000Z</time>
      </trkpt>
      <trkpt lat="46.14848" lon="6.91604">
        <ele>2414.8000488281</ele>
        <time>2017-10-12T12:55:50.000Z</time>
      </trkpt>
      <trkpt lat="46.14843" lon="6.91579">
        <ele>2410.3999023438</ele>
        <time>2017-10-12T12:55:58.000Z</time>
      </trkpt>
      <trkpt lat="46.14834" lon="6.91556">
        <ele>2406.6000976562</ele>
        <time>2017-10-12T12:56:09.000Z</time>
      </trkpt>
      <trkpt lat="46.14823" lon="6.91534">
        <ele>2402.3999023438</ele>
        <time>2017-10-12T12:56:23.000Z</time>
      </trkpt>
      <trkpt lat="46.14815" lon="6.9151">
        <ele>2398.6000976562</ele>
        <time>2017-10-12T12:56:34.000Z</time>
      </trkpt>
      <trkpt lat="46.14805" lon="6.91485">
        <ele>2394.3999023438</ele>
        <time>2017-10-12T12:56:45.000Z</time>
      </trkpt>
      <trkpt lat="46.14801" lon="6.91474">
        <ele>2392.1999511719</ele>
        <time>2017-10-12T12:56:54.000Z</time>
      </trkpt>
      <trkpt lat="46.14791" lon="6.91465">
        <ele>2389.1999511719</ele>
        <time>2017-10-12T12:57:12.000Z</time>
      </trkpt>
      <trkpt lat="46.14774" lon="6.91459">
        <ele>2385.3999023438</ele>
        <time>2017-10-12T12:57:35.000Z</time>
      </trkpt>
      <trkpt lat="46.14771" lon="6.9146">
        <ele>2385</ele>
        <time>2017-10-12T12:57:39.000Z</time>
      </trkpt>
      <trkpt lat="46.14754" lon="6.91468">
        <ele>2383.6000976562</ele>
        <time>2017-10-12T12:58:04.000Z</time>
      </trkpt>
      <trkpt lat="46.14736" lon="6.91457">
        <ele>2379.1999511719</ele>
        <time>2017-10-12T12:58:18.000Z</time>
      </trkpt>
      <trkpt lat="46.14731" lon="6.91433">
        <ele>2374.6000976562</ele>
        <time>2017-10-12T12:58:26.000Z</time>
      </trkpt>
      <trkpt lat="46.14721" lon="6.9141">
        <ele>2369.8000488281</ele>
        <time>2017-10-12T12:58:34.000Z</time>
      </trkpt>
      <trkpt lat="46.14711" lon="6.91386">
        <ele>2364.3999023438</ele>
        <time>2017-10-12T12:58:43.000Z</time>
      </trkpt>
      <trkpt lat="46.14704" lon="6.91361">
        <ele>2359.6000976562</ele>
        <time>2017-10-12T12:58:52.000Z</time>
      </trkpt>
      <trkpt lat="46.14695" lon="6.91339">
        <ele>2354.6000976562</ele>
        <time>2017-10-12T12:59:03.000Z</time>
      </trkpt>
      <trkpt lat="46.14684" lon="6.91318">
        <ele>2350.1999511719</ele>
        <time>2017-10-12T12:59:14.000Z</time>
      </trkpt>
      <trkpt lat="46.14678" lon="6.91294">
        <ele>2347</ele>
        <time>2017-10-12T12:59:22.000Z</time>
      </trkpt>
      <trkpt lat="46.14667" lon="6.91273">
        <ele>2343.3999023438</ele>
        <time>2017-10-12T12:59:30.000Z</time>
      </trkpt>
      <trkpt lat="46.14657" lon="6.9125">
        <ele>2339.6000976562</ele>
        <time>2017-10-12T12:59:40.000Z</time>
      </trkpt>
      <trkpt lat="46.14644" lon="6.9123">
        <ele>2335.8000488281</ele>
        <time>2017-10-12T12:59:48.000Z</time>
      </trkpt>
      <trkpt lat="46.1463" lon="6.91212">
        <ele>2332</ele>
        <time>2017-10-12T12:59:57.000Z</time>
      </trkpt>
      <trkpt lat="46.14621" lon="6.91193">
        <ele>2328.8000488281</ele>
        <time>2017-10-12T13:00:06.000Z</time>
      </trkpt>
      <trkpt lat="46.14622" lon="6.9119">
        <ele>2328.6000976562</ele>
        <time>2017-10-12T13:00:08.000Z</time>
      </trkpt>
      <trkpt lat="46.14623" lon="6.91186">
        <ele>2328.3999023438</ele>
        <time>2017-10-12T13:00:11.000Z</time>
      </trkpt>
      <trkpt lat="46.14623" lon="6.91184">
        <ele>2328</ele>
        <time>2017-10-12T13:00:13.000Z</time>
      </trkpt>
      <trkpt lat="46.14623" lon="6.9118">
        <ele>2327.8000488281</ele>
        <time>2017-10-12T13:00:16.000Z</time>
      </trkpt>
      <trkpt lat="46.1462" lon="6.91162">
        <ele>2325.3999023438</ele>
        <time>2017-10-12T13:00:37.000Z</time>
      </trkpt>
      <trkpt lat="46.14617" lon="6.91162">
        <ele>2325</ele>
        <time>2017-10-12T13:00:39.000Z</time>
      </trkpt>
      <trkpt lat="46.14617" lon="6.91158">
        <ele>2324.6000976562</ele>
        <time>2017-10-12T13:00:42.000Z</time>
      </trkpt>
      <trkpt lat="46.14618" lon="6.91155">
        <ele>2324.3999023438</ele>
        <time>2017-10-12T13:00:46.000Z</time>
      </trkpt>
      <trkpt lat="46.14614" lon="6.91154">
        <ele>2323.6000976562</ele>
        <time>2017-10-12T13:00:50.000Z</time>
      </trkpt>
      <trkpt lat="46.14613" lon="6.91143">
        <ele>2322.1999511719</ele>
        <time>2017-10-12T13:00:59.000Z</time>
      </trkpt>
      <trkpt lat="46.14611" lon="6.91122">
        <ele>2319.3999023438</ele>
        <time>2017-10-12T13:01:19.000Z</time>
      </trkpt>
      <trkpt lat="46.1461" lon="6.91119">
        <ele>2319</ele>
        <time>2017-10-12T13:01:21.000Z</time>
      </trkpt>
      <trkpt lat="46.14612" lon="6.91111">
        <ele>2318.6000976562</ele>
        <time>2017-10-12T13:01:26.000Z</time>
      </trkpt>
      <trkpt lat="46.14601" lon="6.9109">
        <ele>2314.8000488281</ele>
        <time>2017-10-12T13:01:37.000Z</time>
      </trkpt>
      <trkpt lat="46.14593" lon="6.91067">
        <ele>2311.6000976562</ele>
        <time>2017-10-12T13:01:49.000Z</time>
      </trkpt>
      <trkpt lat="46.14591" lon="6.91056">
        <ele>2310.8000488281</ele>
        <time>2017-10-12T13:01:55.000Z</time>
      </trkpt>
      <trkpt lat="46.14578" lon="6.91036">
        <ele>2307.8000488281</ele>
        <time>2017-10-12T13:02:09.000Z</time>
      </trkpt>
      <trkpt lat="46.14571" lon="6.91024">
        <ele>2306.1999511719</ele>
        <time>2017-10-12T13:02:18.000Z</time>
      </trkpt>
      <trkpt lat="46.14561" lon="6.91001">
        <ele>2303.6000976562</ele>
        <time>2017-10-12T13:02:26.000Z</time>
      </trkpt>
      <trkpt lat="46.14552" lon="6.90978">
        <ele>2300</ele>
        <time>2017-10-12T13:02:34.000Z</time>
      </trkpt>
      <trkpt lat="46.14546" lon="6.90954">
        <ele>2298.6000976562</ele>
        <time>2017-10-12T13:02:42.000Z</time>
      </trkpt>
      <trkpt lat="46.14535" lon="6.9093">
        <ele>2295.6000976562</ele>
        <time>2017-10-12T13:02:50.000Z</time>
      </trkpt>
      <trkpt lat="46.14523" lon="6.9091">
        <ele>2291.8000488281</ele>
        <time>2017-10-12T13:03:02.000Z</time>
      </trkpt>
      <trkpt lat="46.14523" lon="6.90909">
        <ele>2291.8000488281</ele>
        <time>2017-10-12T13:03:03.000Z</time>
      </trkpt>
      <trkpt lat="46.14517" lon="6.909">
        <ele>2290.1999511719</ele>
        <time>2017-10-12T13:03:15.000Z</time>
      </trkpt>
      <trkpt lat="46.14504" lon="6.90887">
        <ele>2286.6000976562</ele>
        <time>2017-10-12T13:03:30.000Z</time>
      </trkpt>
      <trkpt lat="46.14504" lon="6.90873">
        <ele>2287.6000976562</ele>
        <time>2017-10-12T13:03:39.000Z</time>
      </trkpt>
      <trkpt lat="46.1449" lon="6.90855">
        <ele>2284.1999511719</ele>
        <time>2017-10-12T13:03:55.000Z</time>
      </trkpt>
      <trkpt lat="46.14489" lon="6.9085">
        <ele>2284.1999511719</ele>
        <time>2017-10-12T13:03:58.000Z</time>
      </trkpt>
      <trkpt lat="46.14488" lon="6.90846">
        <ele>2284.1999511719</ele>
        <time>2017-10-12T13:04:00.000Z</time>
      </trkpt>
      <trkpt lat="46.14477" lon="6.90822">
        <ele>2282</ele>
        <time>2017-10-12T13:04:09.000Z</time>
      </trkpt>
      <trkpt lat="46.14461" lon="6.90807">
        <ele>2277.6000976562</ele>
        <time>2017-10-12T13:04:19.000Z</time>
      </trkpt>
      <trkpt lat="46.1445" lon="6.9079">
        <ele>2275</ele>
        <time>2017-10-12T13:04:32.000Z</time>
      </trkpt>
      <trkpt lat="46.14437" lon="6.90773">
        <ele>2272</ele>
        <time>2017-10-12T13:04:47.000Z</time>
      </trkpt>
      <trkpt lat="46.14422" lon="6.9076">
        <ele>2267.6000976562</ele>
        <time>2017-10-12T13:05:01.000Z</time>
      </trkpt>
      <trkpt lat="46.14419" lon="6.90758">
        <ele>2266.8000488281</ele>
        <time>2017-10-12T13:05:03.000Z</time>
      </trkpt>
      <trkpt lat="46.14407" lon="6.90738">
        <ele>2264.3999023438</ele>
        <time>2017-10-12T13:05:19.000Z</time>
      </trkpt>
      <trkpt lat="46.14406" lon="6.90731">
        <ele>2264.3999023438</ele>
        <time>2017-10-12T13:05:23.000Z</time>
      </trkpt>
      <trkpt lat="46.144" lon="6.90706">
        <ele>2265</ele>
        <time>2017-10-12T13:05:34.000Z</time>
      </trkpt>
      <trkpt lat="46.14394" lon="6.90682">
        <ele>2265.3999023438</ele>
        <time>2017-10-12T13:05:45.000Z</time>
      </trkpt>
      <trkpt lat="46.14383" lon="6.90662">
        <ele>2262.6000976562</ele>
        <time>2017-10-12T13:05:59.000Z</time>
      </trkpt>
      <trkpt lat="46.14381" lon="6.90648">
        <ele>2261.8000488281</ele>
        <time>2017-10-12T13:06:11.000Z</time>
      </trkpt>
      <trkpt lat="46.14381" lon="6.90649">
        <ele>2261.6000976562</ele>
        <time>2017-10-12T13:06:14.000Z</time>
      </trkpt>
      <trkpt lat="46.1438" lon="6.9065">
        <ele>2261.1999511719</ele>
        <time>2017-10-12T13:06:16.000Z</time>
      </trkpt>
      <trkpt lat="46.14385" lon="6.90652">
        <ele>2263.6000976562</ele>
        <time>2017-10-12T13:08:27.000Z</time>
      </trkpt>
      <trkpt lat="46.14397" lon="6.90672">
        <ele>2267.3999023438</ele>
        <time>2017-10-12T13:08:41.000Z</time>
      </trkpt>
      <trkpt lat="46.14401" lon="6.90682">
        <ele>2268</ele>
        <time>2017-10-12T13:08:49.000Z</time>
      </trkpt>
      <trkpt lat="46.14403" lon="6.9068">
        <ele>2269</ele>
        <time>2017-10-12T13:08:52.000Z</time>
      </trkpt>
      <trkpt lat="46.14403" lon="6.90679">
        <ele>2269.1999511719</ele>
        <time>2017-10-12T13:08:54.000Z</time>
      </trkpt>
      <trkpt lat="46.1441" lon="6.90672">
        <ele>2272.3999023438</ele>
        <time>2017-10-12T13:09:05.000Z</time>
      </trkpt>
      <trkpt lat="46.14407" lon="6.90667">
        <ele>2272.1999511719</ele>
        <time>2017-10-12T13:09:09.000Z</time>
      </trkpt>
      <trkpt lat="46.14406" lon="6.90665">
        <ele>2272</ele>
        <time>2017-10-12T13:09:11.000Z</time>
      </trkpt>
      <trkpt lat="46.14405" lon="6.90658">
        <ele>2272.3999023438</ele>
        <time>2017-10-12T13:09:16.000Z</time>
      </trkpt>
      <trkpt lat="46.14398" lon="6.90633">
        <ele>2269</ele>
        <time>2017-10-12T13:09:30.000Z</time>
      </trkpt>
      <trkpt lat="46.14394" lon="6.90618">
        <ele>2266.8000488281</ele>
        <time>2017-10-12T13:09:40.000Z</time>
      </trkpt>
      <trkpt lat="46.14383" lon="6.90595">
        <ele>2261</ele>
        <time>2017-10-12T13:09:52.000Z</time>
      </trkpt>
      <trkpt lat="46.14384" lon="6.90574">
        <ele>2261.1999511719</ele>
        <time>2017-10-12T13:10:05.000Z</time>
      </trkpt>
      <trkpt lat="46.14382" lon="6.90565">
        <ele>2260.6000976562</ele>
        <time>2017-10-12T13:10:14.000Z</time>
      </trkpt>
      <trkpt lat="46.14385" lon="6.90544">
        <ele>2260.6000976562</ele>
        <time>2017-10-12T13:10:29.000Z</time>
      </trkpt>
      <trkpt lat="46.14379" lon="6.9052">
        <ele>2256.8000488281</ele>
        <time>2017-10-12T13:10:40.000Z</time>
      </trkpt>
      <trkpt lat="46.14378" lon="6.90518">
        <ele>2256.1999511719</ele>
        <time>2017-10-12T13:10:42.000Z</time>
      </trkpt>
      <trkpt lat="46.14363" lon="6.905">
        <ele>2248.8000488281</ele>
        <time>2017-10-12T13:10:55.000Z</time>
      </trkpt>
      <trkpt lat="46.1436" lon="6.90495">
        <ele>2247.3999023438</ele>
        <time>2017-10-12T13:10:58.000Z</time>
      </trkpt>
      <trkpt lat="46.14359" lon="6.90491">
        <ele>2246.8000488281</ele>
        <time>2017-10-12T13:11:02.000Z</time>
      </trkpt>
      <trkpt lat="46.14343" lon="6.90479">
        <ele>2240.8000488281</ele>
        <time>2017-10-12T13:11:18.000Z</time>
      </trkpt>
      <trkpt lat="46.14331" lon="6.9046">
        <ele>2236.6000976562</ele>
        <time>2017-10-12T13:11:36.000Z</time>
      </trkpt>
      <trkpt lat="46.14319" lon="6.90441">
        <ele>2232.6000976562</ele>
        <time>2017-10-12T13:11:51.000Z</time>
      </trkpt>
      <trkpt lat="46.14309" lon="6.90419">
        <ele>2229.8000488281</ele>
        <time>2017-10-12T13:12:08.000Z</time>
      </trkpt>
      <trkpt lat="46.14307" lon="6.90414">
        <ele>2229.3999023438</ele>
        <time>2017-10-12T13:12:12.000Z</time>
      </trkpt>
      <trkpt lat="46.14296" lon="6.90392">
        <ele>2226.1999511719</ele>
        <time>2017-10-12T13:12:27.000Z</time>
      </trkpt>
      <trkpt lat="46.14295" lon="6.90387">
        <ele>2226</ele>
        <time>2017-10-12T13:12:30.000Z</time>
      </trkpt>
      <trkpt lat="46.14291" lon="6.90375">
        <ele>2225.1999511719</ele>
        <time>2017-10-12T13:12:38.000Z</time>
      </trkpt>
      <trkpt lat="46.14286" lon="6.90358">
        <ele>2224.1999511719</ele>
        <time>2017-10-12T13:12:52.000Z</time>
      </trkpt>
      <trkpt lat="46.14285" lon="6.90356">
        <ele>2223.6000976562</ele>
        <time>2017-10-12T13:12:55.000Z</time>
      </trkpt>
      <trkpt lat="46.14282" lon="6.90352">
        <ele>2222.8000488281</ele>
        <time>2017-10-12T13:13:00.000Z</time>
      </trkpt>
      <trkpt lat="46.14273" lon="6.90343">
        <ele>2219.8000488281</ele>
        <time>2017-10-12T13:13:11.000Z</time>
      </trkpt>
      <trkpt lat="46.14268" lon="6.9034">
        <ele>2218</ele>
        <time>2017-10-12T13:13:28.000Z</time>
      </trkpt>
      <trkpt lat="46.14263" lon="6.90327">
        <ele>2216.8000488281</ele>
        <time>2017-10-12T13:13:58.000Z</time>
      </trkpt>
      <trkpt lat="46.14247" lon="6.90319">
        <ele>2210</ele>
        <time>2017-10-12T13:14:22.000Z</time>
      </trkpt>
      <trkpt lat="46.14232" lon="6.90307">
        <ele>2203</ele>
        <time>2017-10-12T13:14:40.000Z</time>
      </trkpt>
      <trkpt lat="46.14231" lon="6.90307">
        <ele>2202.3999023438</ele>
        <time>2017-10-12T13:14:42.000Z</time>
      </trkpt>
      <trkpt lat="46.14229" lon="6.90306">
        <ele>2201.6000976562</ele>
        <time>2017-10-12T13:14:44.000Z</time>
      </trkpt>
      <trkpt lat="46.14213" lon="6.90294">
        <ele>2193.3999023438</ele>
        <time>2017-10-12T13:15:05.000Z</time>
      </trkpt>
      <trkpt lat="46.14212" lon="6.90293">
        <ele>2193</ele>
        <time>2017-10-12T13:15:06.000Z</time>
      </trkpt>
      <trkpt lat="46.14211" lon="6.90288">
        <ele>2191.8000488281</ele>
        <time>2017-10-12T13:15:10.000Z</time>
      </trkpt>
      <trkpt lat="46.14203" lon="6.90271">
        <ele>2186.6000976562</ele>
        <time>2017-10-12T13:15:27.000Z</time>
      </trkpt>
      <trkpt lat="46.14201" lon="6.90267">
        <ele>2185.1999511719</ele>
        <time>2017-10-12T13:15:30.000Z</time>
      </trkpt>
      <trkpt lat="46.14199" lon="6.90257">
        <ele>2183</ele>
        <time>2017-10-12T13:15:36.000Z</time>
      </trkpt>
      <trkpt lat="46.14192" lon="6.90234">
        <ele>2178.1999511719</ele>
        <time>2017-10-12T13:15:49.000Z</time>
      </trkpt>
      <trkpt lat="46.14185" lon="6.9022">
        <ele>2175.3999023438</ele>
        <time>2017-10-12T13:15:58.000Z</time>
      </trkpt>
      <trkpt lat="46.14186" lon="6.90215">
        <ele>2175.6000976562</ele>
        <time>2017-10-12T13:16:01.000Z</time>
      </trkpt>
      <trkpt lat="46.14178" lon="6.90191">
        <ele>2172.1999511719</ele>
        <time>2017-10-12T13:16:23.000Z</time>
      </trkpt>
      <trkpt lat="46.14176" lon="6.9019">
        <ele>2171.1999511719</ele>
        <time>2017-10-12T13:16:26.000Z</time>
      </trkpt>
      <trkpt lat="46.14174" lon="6.90188">
        <ele>2170.6000976562</ele>
        <time>2017-10-12T13:16:28.000Z</time>
      </trkpt>
      <trkpt lat="46.14173" lon="6.90186">
        <ele>2170.1999511719</ele>
        <time>2017-10-12T13:16:31.000Z</time>
      </trkpt>
      <trkpt lat="46.14172" lon="6.90185">
        <ele>2169.6000976562</ele>
        <time>2017-10-12T13:16:33.000Z</time>
      </trkpt>
      <trkpt lat="46.14164" lon="6.9016">
        <ele>2165</ele>
        <time>2017-10-12T13:16:42.000Z</time>
      </trkpt>
      <trkpt lat="46.14149" lon="6.90143">
        <ele>2159.1999511719</ele>
        <time>2017-10-12T13:16:52.000Z</time>
      </trkpt>
      <trkpt lat="46.1414" lon="6.90134">
        <ele>2156</ele>
        <time>2017-10-12T13:17:00.000Z</time>
      </trkpt>
      <trkpt lat="46.14135" lon="6.90132">
        <ele>2154.6000976562</ele>
        <time>2017-10-12T13:17:04.000Z</time>
      </trkpt>
      <trkpt lat="46.14124" lon="6.90111">
        <ele>2151</ele>
        <time>2017-10-12T13:17:22.000Z</time>
      </trkpt>
      <trkpt lat="46.14119" lon="6.90095">
        <ele>2149</ele>
        <time>2017-10-12T13:17:33.000Z</time>
      </trkpt>
      <trkpt lat="46.14116" lon="6.90085">
        <ele>2147.8000488281</ele>
        <time>2017-10-12T13:17:41.000Z</time>
      </trkpt>
      <trkpt lat="46.14113" lon="6.90085">
        <ele>2147.1999511719</ele>
        <time>2017-10-12T13:17:45.000Z</time>
      </trkpt>
      <trkpt lat="46.14112" lon="6.90085">
        <ele>2146.8000488281</ele>
        <time>2017-10-12T13:17:47.000Z</time>
      </trkpt>
      <trkpt lat="46.1411" lon="6.90081">
        <ele>2146.1999511719</ele>
        <time>2017-10-12T13:17:50.000Z</time>
      </trkpt>
      <trkpt lat="46.14099" lon="6.9006">
        <ele>2143.8000488281</ele>
        <time>2017-10-12T13:18:03.000Z</time>
      </trkpt>
      <trkpt lat="46.1409" lon="6.90037">
        <ele>2142.1999511719</ele>
        <time>2017-10-12T13:18:16.000Z</time>
      </trkpt>
      <trkpt lat="46.14086" lon="6.90024">
        <ele>2141.8000488281</ele>
        <time>2017-10-12T13:18:25.000Z</time>
      </trkpt>
      <trkpt lat="46.14074" lon="6.90007">
        <ele>2139.3999023438</ele>
        <time>2017-10-12T13:18:41.000Z</time>
      </trkpt>
      <trkpt lat="46.14064" lon="6.89988">
        <ele>2138</ele>
        <time>2017-10-12T13:18:56.000Z</time>
      </trkpt>
      <trkpt lat="46.14062" lon="6.89986">
        <ele>2137.6000976562</ele>
        <time>2017-10-12T13:18:59.000Z</time>
      </trkpt>
      <trkpt lat="46.14053" lon="6.89977">
        <ele>2135</ele>
        <time>2017-10-12T13:19:10.000Z</time>
      </trkpt>
      <trkpt lat="46.1404" lon="6.89962">
        <ele>2131.6000976562</ele>
        <time>2017-10-12T13:19:23.000Z</time>
      </trkpt>
      <trkpt lat="46.14036" lon="6.89959">
        <ele>2130.3999023438</ele>
        <time>2017-10-12T13:19:28.000Z</time>
      </trkpt>
      <trkpt lat="46.14033" lon="6.89958">
        <ele>2129.3999023438</ele>
        <time>2017-10-12T13:19:33.000Z</time>
      </trkpt>
      <trkpt lat="46.14029" lon="6.89955">
        <ele>2128.3999023438</ele>
        <time>2017-10-12T13:19:39.000Z</time>
      </trkpt>
      <trkpt lat="46.14028" lon="6.89955">
        <ele>2127.8000488281</ele>
        <time>2017-10-12T13:19:42.000Z</time>
      </trkpt>
      <trkpt lat="46.14027" lon="6.89953">
        <ele>2127.6000976562</ele>
        <time>2017-10-12T13:19:44.000Z</time>
      </trkpt>
      <trkpt lat="46.14024" lon="6.89948">
        <ele>2127</ele>
        <time>2017-10-12T13:19:50.000Z</time>
      </trkpt>
      <trkpt lat="46.1401" lon="6.89931">
        <ele>2123.1999511719</ele>
        <time>2017-10-12T13:20:07.000Z</time>
      </trkpt>
      <trkpt lat="46.13995" lon="6.89917">
        <ele>2119</ele>
        <time>2017-10-12T13:20:21.000Z</time>
      </trkpt>
      <trkpt lat="46.1399" lon="6.89916">
        <ele>2117.6000976562</ele>
        <time>2017-10-12T13:20:26.000Z</time>
      </trkpt>
      <trkpt lat="46.13989" lon="6.89914">
        <ele>2117.1999511719</ele>
        <time>2017-10-12T13:20:28.000Z</time>
      </trkpt>
      <trkpt lat="46.13974" lon="6.89898">
        <ele>2112.8000488281</ele>
        <time>2017-10-12T13:20:49.000Z</time>
      </trkpt>
      <trkpt lat="46.13964" lon="6.89877">
        <ele>2109.6000976562</ele>
        <time>2017-10-12T13:20:59.000Z</time>
      </trkpt>
      <trkpt lat="46.1395" lon="6.89859">
        <ele>2105.1999511719</ele>
        <time>2017-10-12T13:21:22.000Z</time>
      </trkpt>
      <trkpt lat="46.13946" lon="6.89839">
        <ele>2103.1999511719</ele>
        <time>2017-10-12T13:21:35.000Z</time>
      </trkpt>
      <trkpt lat="46.13946" lon="6.89838">
        <ele>2103.1999511719</ele>
        <time>2017-10-12T13:21:37.000Z</time>
      </trkpt>
      <trkpt lat="46.13953" lon="6.89829">
        <ele>2104.8000488281</ele>
        <time>2017-10-12T13:21:55.000Z</time>
      </trkpt>
      <trkpt lat="46.13957" lon="6.89823">
        <ele>2105.6000976562</ele>
        <time>2017-10-12T13:21:59.000Z</time>
      </trkpt>
      <trkpt lat="46.13959" lon="6.89796">
        <ele>2105.8000488281</ele>
        <time>2017-10-12T13:22:09.000Z</time>
      </trkpt>
      <trkpt lat="46.13947" lon="6.89776">
        <ele>2102.1999511719</ele>
        <time>2017-10-12T13:22:23.000Z</time>
      </trkpt>
      <trkpt lat="46.13946" lon="6.89773">
        <ele>2101.8000488281</ele>
        <time>2017-10-12T13:22:25.000Z</time>
      </trkpt>
      <trkpt lat="46.13945" lon="6.89748">
        <ele>2100.1999511719</ele>
        <time>2017-10-12T13:22:34.000Z</time>
      </trkpt>
      <trkpt lat="46.13932" lon="6.89725">
        <ele>2096.3999023438</ele>
        <time>2017-10-12T13:22:42.000Z</time>
      </trkpt>
      <trkpt lat="46.13921" lon="6.89703">
        <ele>2092.6000976562</ele>
        <time>2017-10-12T13:22:50.000Z</time>
      </trkpt>
      <trkpt lat="46.13912" lon="6.89688">
        <ele>2089.8000488281</ele>
        <time>2017-10-12T13:22:59.000Z</time>
      </trkpt>
      <trkpt lat="46.13903" lon="6.89665">
        <ele>2086.3999023438</ele>
        <time>2017-10-12T13:23:12.000Z</time>
      </trkpt>
      <trkpt lat="46.13894" lon="6.8964">
        <ele>2083.1999511719</ele>
        <time>2017-10-12T13:23:20.000Z</time>
      </trkpt>
      <trkpt lat="46.13888" lon="6.89615">
        <ele>2080.1999511719</ele>
        <time>2017-10-12T13:23:29.000Z</time>
      </trkpt>
      <trkpt lat="46.13881" lon="6.89591">
        <ele>2077</ele>
        <time>2017-10-12T13:23:38.000Z</time>
      </trkpt>
      <trkpt lat="46.13877" lon="6.89566">
        <ele>2075.6000976562</ele>
        <time>2017-10-12T13:23:50.000Z</time>
      </trkpt>
      <trkpt lat="46.1387" lon="6.8955">
        <ele>2075.1999511719</ele>
        <time>2017-10-12T13:24:03.000Z</time>
      </trkpt>
      <trkpt lat="46.13867" lon="6.8955">
        <ele>2074.6000976562</ele>
        <time>2017-10-12T13:24:06.000Z</time>
      </trkpt>
      <trkpt lat="46.13858" lon="6.89548">
        <ele>2072.6000976562</ele>
        <time>2017-10-12T13:24:11.000Z</time>
      </trkpt>
      <trkpt lat="46.13851" lon="6.89527">
        <ele>2072.1999511719</ele>
        <time>2017-10-12T13:24:19.000Z</time>
      </trkpt>
      <trkpt lat="46.13852" lon="6.89518">
        <ele>2072</ele>
        <time>2017-10-12T13:24:24.000Z</time>
      </trkpt>
      <trkpt lat="46.1385" lon="6.8951">
        <ele>2071.3999023438</ele>
        <time>2017-10-12T13:24:30.000Z</time>
      </trkpt>
      <trkpt lat="46.13853" lon="6.89494">
        <ele>2071.1999511719</ele>
        <time>2017-10-12T13:24:41.000Z</time>
      </trkpt>
      <trkpt lat="46.1385" lon="6.89473">
        <ele>2068</ele>
        <time>2017-10-12T13:24:51.000Z</time>
      </trkpt>
      <trkpt lat="46.13839" lon="6.89452">
        <ele>2063.6000976562</ele>
        <time>2017-10-12T13:25:08.000Z</time>
      </trkpt>
      <trkpt lat="46.13837" lon="6.89448">
        <ele>2062.6000976562</ele>
        <time>2017-10-12T13:25:12.000Z</time>
      </trkpt>
      <trkpt lat="46.13832" lon="6.89438">
        <ele>2060.3999023438</ele>
        <time>2017-10-12T13:25:21.000Z</time>
      </trkpt>
      <trkpt lat="46.1383" lon="6.89433">
        <ele>2059.6000976562</ele>
        <time>2017-10-12T13:25:26.000Z</time>
      </trkpt>
      <trkpt lat="46.13827" lon="6.89428">
        <ele>2058.1999511719</ele>
        <time>2017-10-12T13:25:32.000Z</time>
      </trkpt>
      <trkpt lat="46.13823" lon="6.89428">
        <ele>2057.8000488281</ele>
        <time>2017-10-12T13:25:37.000Z</time>
      </trkpt>
      <trkpt lat="46.13805" lon="6.89419">
        <ele>2053.8000488281</ele>
        <time>2017-10-12T13:25:52.000Z</time>
      </trkpt>
      <trkpt lat="46.13803" lon="6.89414">
        <ele>2052.3999023438</ele>
        <time>2017-10-12T13:25:56.000Z</time>
      </trkpt>
      <trkpt lat="46.13797" lon="6.89388">
        <ele>2047.5999755859</ele>
        <time>2017-10-12T13:26:12.000Z</time>
      </trkpt>
      <trkpt lat="46.13794" lon="6.89376">
        <ele>2045.5999755859</ele>
        <time>2017-10-12T13:26:19.000Z</time>
      </trkpt>
      <trkpt lat="46.1379" lon="6.89361">
        <ele>2043.1999511719</ele>
        <time>2017-10-12T13:26:30.000Z</time>
      </trkpt>
      <trkpt lat="46.13786" lon="6.89344">
        <ele>2040.5999755859</ele>
        <time>2017-10-12T13:26:42.000Z</time>
      </trkpt>
      <trkpt lat="46.1378" lon="6.89323">
        <ele>2036.8000488281</ele>
        <time>2017-10-12T13:26:58.000Z</time>
      </trkpt>
      <trkpt lat="46.13772" lon="6.893">
        <ele>2032</ele>
        <time>2017-10-12T13:27:14.000Z</time>
      </trkpt>
      <trkpt lat="46.13772" lon="6.89297">
        <ele>2031.5999755859</ele>
        <time>2017-10-12T13:27:16.000Z</time>
      </trkpt>
      <trkpt lat="46.1377" lon="6.89284">
        <ele>2029.5999755859</ele>
        <time>2017-10-12T13:27:23.000Z</time>
      </trkpt>
      <trkpt lat="46.1377" lon="6.89281">
        <ele>2029.4000244141</ele>
        <time>2017-10-12T13:27:25.000Z</time>
      </trkpt>
      <trkpt lat="46.13767" lon="6.89263">
        <ele>2028</ele>
        <time>2017-10-12T13:27:40.000Z</time>
      </trkpt>
      <trkpt lat="46.13764" lon="6.89238">
        <ele>2026.1999511719</ele>
        <time>2017-10-12T13:27:56.000Z</time>
      </trkpt>
      <trkpt lat="46.13761" lon="6.89224">
        <ele>2024.4000244141</ele>
        <time>2017-10-12T13:28:07.000Z</time>
      </trkpt>
      <trkpt lat="46.1376" lon="6.89222">
        <ele>2024</ele>
        <time>2017-10-12T13:28:09.000Z</time>
      </trkpt>
      <trkpt lat="46.13759" lon="6.8922">
        <ele>2023.5999755859</ele>
        <time>2017-10-12T13:28:12.000Z</time>
      </trkpt>
      <trkpt lat="46.13759" lon="6.89219">
        <ele>2023.4000244141</ele>
        <time>2017-10-12T13:28:15.000Z</time>
      </trkpt>
      <trkpt lat="46.13756" lon="6.8921">
        <ele>2022</ele>
        <time>2017-10-12T13:28:26.000Z</time>
      </trkpt>
      <trkpt lat="46.13757" lon="6.89184">
        <ele>2021</ele>
        <time>2017-10-12T13:28:37.000Z</time>
      </trkpt>
      <trkpt lat="46.1375" lon="6.89158">
        <ele>2018.5999755859</ele>
        <time>2017-10-12T13:28:47.000Z</time>
      </trkpt>
      <trkpt lat="46.13748" lon="6.89131">
        <ele>2016.4000244141</ele>
        <time>2017-10-12T13:28:56.000Z</time>
      </trkpt>
      <trkpt lat="46.13743" lon="6.89104">
        <ele>2013</ele>
        <time>2017-10-12T13:29:06.000Z</time>
      </trkpt>
      <trkpt lat="46.1374" lon="6.89078">
        <ele>2010.8000488281</ele>
        <time>2017-10-12T13:29:24.000Z</time>
      </trkpt>
      <trkpt lat="46.13737" lon="6.8907">
        <ele>2009</ele>
        <time>2017-10-12T13:29:34.000Z</time>
      </trkpt>
      <trkpt lat="46.13732" lon="6.89062">
        <ele>2006.8000488281</ele>
        <time>2017-10-12T13:29:47.000Z</time>
      </trkpt>
      <trkpt lat="46.13719" lon="6.89048">
        <ele>2001.5999755859</ele>
        <time>2017-10-12T13:30:11.000Z</time>
      </trkpt>
      <trkpt lat="46.13718" lon="6.89044">
        <ele>2001.1999511719</ele>
        <time>2017-10-12T13:30:13.000Z</time>
      </trkpt>
      <trkpt lat="46.13708" lon="6.89038">
        <ele>1997</ele>
        <time>2017-10-12T13:30:24.000Z</time>
      </trkpt>
      <trkpt lat="46.13708" lon="6.89038">
        <ele>1997</ele>
        <time>2017-10-12T13:30:26.000Z</time>
      </trkpt>
      <trkpt lat="46.13702" lon="6.89031">
        <ele>1994.4000244141</ele>
        <time>2017-10-12T13:31:08.000Z</time>
      </trkpt>
      <trkpt lat="46.13701" lon="6.89027">
        <ele>1994</ele>
        <time>2017-10-12T13:31:10.000Z</time>
      </trkpt>
      <trkpt lat="46.13693" lon="6.89003">
        <ele>1990.8000488281</ele>
        <time>2017-10-12T13:31:24.000Z</time>
      </trkpt>
      <trkpt lat="46.1369" lon="6.88975">
        <ele>1988.8000488281</ele>
        <time>2017-10-12T13:31:36.000Z</time>
      </trkpt>
      <trkpt lat="46.13693" lon="6.8895">
        <ele>1989.5999755859</ele>
        <time>2017-10-12T13:31:45.000Z</time>
      </trkpt>
      <trkpt lat="46.13693" lon="6.88946">
        <ele>1989.5999755859</ele>
        <time>2017-10-12T13:31:47.000Z</time>
      </trkpt>
      <trkpt lat="46.13688" lon="6.88926">
        <ele>1986.5999755859</ele>
        <time>2017-10-12T13:32:02.000Z</time>
      </trkpt>
      <trkpt lat="46.13688" lon="6.8892">
        <ele>1986.1999511719</ele>
        <time>2017-10-12T13:32:08.000Z</time>
      </trkpt>
      <trkpt lat="46.13687" lon="6.88918">
        <ele>1985.8000488281</ele>
        <time>2017-10-12T13:32:10.000Z</time>
      </trkpt>
      <trkpt lat="46.1368" lon="6.88892">
        <ele>1982.5999755859</ele>
        <time>2017-10-12T13:32:20.000Z</time>
      </trkpt>
      <trkpt lat="46.13678" lon="6.88871">
        <ele>1981.5999755859</ele>
        <time>2017-10-12T13:32:32.000Z</time>
      </trkpt>
      <trkpt lat="46.13679" lon="6.88862">
        <ele>1981.8000488281</ele>
        <time>2017-10-12T13:32:49.000Z</time>
      </trkpt>
      <trkpt lat="46.13678" lon="6.88855">
        <ele>1981.1999511719</ele>
        <time>2017-10-12T13:32:55.000Z</time>
      </trkpt>
      <trkpt lat="46.13672" lon="6.88846">
        <ele>1978.5999755859</ele>
        <time>2017-10-12T13:33:01.000Z</time>
      </trkpt>
      <trkpt lat="46.13671" lon="6.88821">
        <ele>1977.8000488281</ele>
        <time>2017-10-12T13:33:12.000Z</time>
      </trkpt>
      <trkpt lat="46.13669" lon="6.88807">
        <ele>1976</ele>
        <time>2017-10-12T13:33:20.000Z</time>
      </trkpt>
      <trkpt lat="46.13665" lon="6.88798">
        <ele>1974.1999511719</ele>
        <time>2017-10-12T13:33:28.000Z</time>
      </trkpt>
      <trkpt lat="46.13665" lon="6.88796">
        <ele>1973.8000488281</ele>
        <time>2017-10-12T13:33:30.000Z</time>
      </trkpt>
      <trkpt lat="46.13664" lon="6.88792">
        <ele>1973.4000244141</ele>
        <time>2017-10-12T13:33:32.000Z</time>
      </trkpt>
      <trkpt lat="46.13666" lon="6.88774">
        <ele>1973.1999511719</ele>
        <time>2017-10-12T13:33:43.000Z</time>
      </trkpt>
      <trkpt lat="46.13673" lon="6.88751">
        <ele>1973.1999511719</ele>
        <time>2017-10-12T13:34:08.000Z</time>
      </trkpt>
      <trkpt lat="46.13676" lon="6.88725">
        <ele>1970.1999511719</ele>
        <time>2017-10-12T13:34:23.000Z</time>
      </trkpt>
      <trkpt lat="46.13676" lon="6.88698">
        <ele>1966.1999511719</ele>
        <time>2017-10-12T13:34:37.000Z</time>
      </trkpt>
      <trkpt lat="46.13676" lon="6.88695">
        <ele>1965.8000488281</ele>
        <time>2017-10-12T13:34:39.000Z</time>
      </trkpt>
      <trkpt lat="46.13677" lon="6.88687">
        <ele>1965</ele>
        <time>2017-10-12T13:34:45.000Z</time>
      </trkpt>
      <trkpt lat="46.13676" lon="6.88682">
        <ele>1963.4000244141</ele>
        <time>2017-10-12T13:34:49.000Z</time>
      </trkpt>
      <trkpt lat="46.13674" lon="6.88657">
        <ele>1957.5999755859</ele>
        <time>2017-10-12T13:35:05.000Z</time>
      </trkpt>
      <trkpt lat="46.13677" lon="6.88651">
        <ele>1957.1999511719</ele>
        <time>2017-10-12T13:35:10.000Z</time>
      </trkpt>
      <trkpt lat="46.1368" lon="6.88643">
        <ele>1956</ele>
        <time>2017-10-12T13:35:17.000Z</time>
      </trkpt>
      <trkpt lat="46.13679" lon="6.88641">
        <ele>1955.1999511719</ele>
        <time>2017-10-12T13:35:19.000Z</time>
      </trkpt>
      <trkpt lat="46.1368" lon="6.88637">
        <ele>1954.4000244141</ele>
        <time>2017-10-12T13:35:23.000Z</time>
      </trkpt>
      <trkpt lat="46.13685" lon="6.88634">
        <ele>1955</ele>
        <time>2017-10-12T13:35:30.000Z</time>
      </trkpt>
      <trkpt lat="46.13698" lon="6.88618">
        <ele>1953.5999755859</ele>
        <time>2017-10-12T13:35:56.000Z</time>
      </trkpt>
      <trkpt lat="46.13707" lon="6.88607">
        <ele>1950.4000244141</ele>
        <time>2017-10-12T13:36:09.000Z</time>
      </trkpt>
      <trkpt lat="46.13713" lon="6.88604">
        <ele>1949.8000488281</ele>
        <time>2017-10-12T13:36:15.000Z</time>
      </trkpt>
      <trkpt lat="46.13715" lon="6.88606">
        <ele>1950.8000488281</ele>
        <time>2017-10-12T13:36:19.000Z</time>
      </trkpt>
      <trkpt lat="46.13719" lon="6.88599">
        <ele>1948.5999755859</ele>
        <time>2017-10-12T13:36:27.000Z</time>
      </trkpt>
      <trkpt lat="46.13728" lon="6.88578">
        <ele>1941.1999511719</ele>
        <time>2017-10-12T13:36:45.000Z</time>
      </trkpt>
      <trkpt lat="46.1374" lon="6.88556">
        <ele>1934.5999755859</ele>
        <time>2017-10-12T13:36:58.000Z</time>
      </trkpt>
      <trkpt lat="46.13746" lon="6.88551">
        <ele>1934.1999511719</ele>
        <time>2017-10-12T13:37:04.000Z</time>
      </trkpt>
      <trkpt lat="46.13752" lon="6.88547">
        <ele>1934.1999511719</ele>
        <time>2017-10-12T13:37:09.000Z</time>
      </trkpt>
      <trkpt lat="46.1376" lon="6.88532">
        <ele>1929.1999511719</ele>
        <time>2017-10-12T13:37:21.000Z</time>
      </trkpt>
      <trkpt lat="46.13774" lon="6.88531">
        <ele>1933.5999755859</ele>
        <time>2017-10-12T13:37:34.000Z</time>
      </trkpt>
      <trkpt lat="46.13772" lon="6.88529">
        <ele>1931.8000488281</ele>
        <time>2017-10-12T13:37:36.000Z</time>
      </trkpt>
      <trkpt lat="46.13767" lon="6.88525">
        <ele>1927.8000488281</ele>
        <time>2017-10-12T13:37:40.000Z</time>
      </trkpt>
      <trkpt lat="46.13748" lon="6.8852">
        <ele>1918</ele>
        <time>2017-10-12T13:37:52.000Z</time>
      </trkpt>
      <trkpt lat="46.13741" lon="6.88519">
        <ele>1914.5999755859</ele>
        <time>2017-10-12T13:37:59.000Z</time>
      </trkpt>
      <trkpt lat="46.13741" lon="6.88516">
        <ele>1913.1999511719</ele>
        <time>2017-10-12T13:38:01.000Z</time>
      </trkpt>
      <trkpt lat="46.13743" lon="6.88513">
        <ele>1912.4000244141</ele>
        <time>2017-10-12T13:38:05.000Z</time>
      </trkpt>
      <trkpt lat="46.13725" lon="6.88512">
        <ele>1905.8000488281</ele>
        <time>2017-10-12T13:38:20.000Z</time>
      </trkpt>
      <trkpt lat="46.13726" lon="6.88502">
        <ele>1900.1999511719</ele>
        <time>2017-10-12T13:38:34.000Z</time>
      </trkpt>
      <trkpt lat="46.13741" lon="6.88489">
        <ele>1899.1999511719</ele>
        <time>2017-10-12T13:38:46.000Z</time>
      </trkpt>
      <trkpt lat="46.13741" lon="6.88488">
        <ele>1897.8000488281</ele>
        <time>2017-10-12T13:38:48.000Z</time>
      </trkpt>
      <trkpt lat="46.13733" lon="6.88484">
        <ele>1892.1999511719</ele>
        <time>2017-10-12T13:38:53.000Z</time>
      </trkpt>
      <trkpt lat="46.13733" lon="6.88482">
        <ele>1890.4000244141</ele>
        <time>2017-10-12T13:38:56.000Z</time>
      </trkpt>
      <trkpt lat="46.1374" lon="6.88477">
        <ele>1890.1999511719</ele>
        <time>2017-10-12T13:39:03.000Z</time>
      </trkpt>
      <trkpt lat="46.13754" lon="6.88466">
        <ele>1887</ele>
        <time>2017-10-12T13:39:16.000Z</time>
      </trkpt>
      <trkpt lat="46.13754" lon="6.88464">
        <ele>1885.8000488281</ele>
        <time>2017-10-12T13:39:18.000Z</time>
      </trkpt>
      <trkpt lat="46.13747" lon="6.88461">
        <ele>1880.8000488281</ele>
        <time>2017-10-12T13:39:24.000Z</time>
      </trkpt>
      <trkpt lat="46.13749" lon="6.88457">
        <ele>1878.5999755859</ele>
        <time>2017-10-12T13:39:28.000Z</time>
      </trkpt>
      <trkpt lat="46.13767" lon="6.88449">
        <ele>1879.4000244141</ele>
        <time>2017-10-12T13:39:44.000Z</time>
      </trkpt>
      <trkpt lat="46.13782" lon="6.88436">
        <ele>1881.4000244141</ele>
        <time>2017-10-12T13:40:00.000Z</time>
      </trkpt>
      <trkpt lat="46.13785" lon="6.88434">
        <ele>1881.8000488281</ele>
        <time>2017-10-12T13:40:04.000Z</time>
      </trkpt>
      <trkpt lat="46.13787" lon="6.88432">
        <ele>1881.5999755859</ele>
        <time>2017-10-12T13:40:06.000Z</time>
      </trkpt>
      <trkpt lat="46.13794" lon="6.88422">
        <ele>1880.5999755859</ele>
        <time>2017-10-12T13:40:18.000Z</time>
      </trkpt>
      <trkpt lat="46.13795" lon="6.8842">
        <ele>1880.4000244141</ele>
        <time>2017-10-12T13:40:20.000Z</time>
      </trkpt>
      <trkpt lat="46.13805" lon="6.88402">
        <ele>1878.4000244141</ele>
        <time>2017-10-12T13:40:39.000Z</time>
      </trkpt>
      <trkpt lat="46.13807" lon="6.88395">
        <ele>1874</ele>
        <time>2017-10-12T13:40:44.000Z</time>
      </trkpt>
      <trkpt lat="46.13814" lon="6.88372">
        <ele>1859.1999511719</ele>
        <time>2017-10-12T13:40:55.000Z</time>
      </trkpt>
      <trkpt lat="46.13822" lon="6.88359">
        <ele>1854.8000488281</ele>
        <time>2017-10-12T13:41:04.000Z</time>
      </trkpt>
      <trkpt lat="46.13834" lon="6.88339">
        <ele>1850.8000488281</ele>
        <time>2017-10-12T13:41:20.000Z</time>
      </trkpt>
      <trkpt lat="46.13845" lon="6.88321">
        <ele>1854.8000488281</ele>
        <time>2017-10-12T13:41:32.000Z</time>
      </trkpt>
      <trkpt lat="46.13849" lon="6.88317">
        <ele>1859.1999511719</ele>
        <time>2017-10-12T13:41:38.000Z</time>
      </trkpt>
      <trkpt lat="46.13854" lon="6.88301">
        <ele>1863.5999755859</ele>
        <time>2017-10-12T13:41:48.000Z</time>
      </trkpt>
      <trkpt lat="46.1386" lon="6.88285">
        <ele>1867.8000488281</ele>
        <time>2017-10-12T13:42:56.000Z</time>
      </trkpt>
      <trkpt lat="46.13864" lon="6.88268">
        <ele>1866</ele>
        <time>2017-10-12T13:43:42.000Z</time>
      </trkpt>
      <trkpt lat="46.13877" lon="6.8825">
        <ele>1869.1999511719</ele>
        <time>2017-10-12T13:44:02.000Z</time>
      </trkpt>
      <trkpt lat="46.13884" lon="6.88243">
        <ele>1872.1999511719</ele>
        <time>2017-10-12T13:44:09.000Z</time>
      </trkpt>
      <trkpt lat="46.13892" lon="6.88236">
        <ele>1876.5999755859</ele>
        <time>2017-10-12T13:44:19.000Z</time>
      </trkpt>
      <trkpt lat="46.13898" lon="6.88233">
        <ele>1878.5999755859</ele>
        <time>2017-10-12T13:44:25.000Z</time>
      </trkpt>
      <trkpt lat="46.13909" lon="6.88215">
        <ele>1881.5999755859</ele>
        <time>2017-10-12T13:44:53.000Z</time>
      </trkpt>
      <trkpt lat="46.13925" lon="6.88201">
        <ele>1887.8000488281</ele>
        <time>2017-10-12T13:45:10.000Z</time>
      </trkpt>
      <trkpt lat="46.1394" lon="6.88183">
        <ele>1887.1999511719</ele>
        <time>2017-10-12T13:45:24.000Z</time>
      </trkpt>
      <trkpt lat="46.13941" lon="6.88183">
        <ele>1887.5999755859</ele>
        <time>2017-10-12T13:45:25.000Z</time>
      </trkpt>
      <trkpt lat="46.13951" lon="6.8817">
        <ele>1884.8000488281</ele>
        <time>2017-10-12T13:45:39.000Z</time>
      </trkpt>
      <trkpt lat="46.1396" lon="6.88161">
        <ele>1883.4000244141</ele>
        <time>2017-10-12T13:45:50.000Z</time>
      </trkpt>
      <trkpt lat="46.13968" lon="6.88148">
        <ele>1884.4000244141</ele>
        <time>2017-10-12T13:46:25.000Z</time>
      </trkpt>
      <trkpt lat="46.1397" lon="6.8813">
        <ele>1879.4000244141</ele>
        <time>2017-10-12T13:46:59.000Z</time>
      </trkpt>
      <trkpt lat="46.13991" lon="6.88137">
        <ele>1882.1999511719</ele>
        <time>2017-10-12T13:47:25.000Z</time>
      </trkpt>
      <trkpt lat="46.13993" lon="6.8812">
        <ele>1877.4000244141</ele>
        <time>2017-10-12T13:48:02.000Z</time>
      </trkpt>
      <trkpt lat="46.13998" lon="6.88115">
        <ele>1876.4000244141</ele>
        <time>2017-10-12T13:48:08.000Z</time>
      </trkpt>
      <trkpt lat="46.14001" lon="6.88114">
        <ele>1876.1999511719</ele>
        <time>2017-10-12T13:48:12.000Z</time>
      </trkpt>
      <trkpt lat="46.14002" lon="6.88113">
        <ele>1876</ele>
        <time>2017-10-12T13:48:14.000Z</time>
      </trkpt>
      <trkpt lat="46.14008" lon="6.88105">
        <ele>1874.1999511719</ele>
        <time>2017-10-12T13:48:24.000Z</time>
      </trkpt>
      <trkpt lat="46.14024" lon="6.88085">
        <ele>1857.4000244141</ele>
        <time>2017-10-12T13:48:39.000Z</time>
      </trkpt>
      <trkpt lat="46.14036" lon="6.88075">
        <ele>1848.1999511719</ele>
        <time>2017-10-12T13:48:44.000Z</time>
      </trkpt>
      <trkpt lat="46.14045" lon="6.88076">
        <ele>1846.1999511719</ele>
        <time>2017-10-12T13:48:50.000Z</time>
      </trkpt>
      <trkpt lat="46.14047" lon="6.88077">
        <ele>1846.1999511719</ele>
        <time>2017-10-12T13:48:52.000Z</time>
      </trkpt>
      <trkpt lat="46.14054" lon="6.88078">
        <ele>1845.1999511719</ele>
        <time>2017-10-12T13:49:01.000Z</time>
      </trkpt>
      <trkpt lat="46.1407" lon="6.88069">
        <ele>1834.4000244141</ele>
        <time>2017-10-12T13:49:30.000Z</time>
      </trkpt>
      <trkpt lat="46.14085" lon="6.88052">
        <ele>1822</ele>
        <time>2017-10-12T13:49:45.000Z</time>
      </trkpt>
      <trkpt lat="46.14096" lon="6.8804">
        <ele>1813.1999511719</ele>
        <time>2017-10-12T13:49:56.000Z</time>
      </trkpt>
      <trkpt lat="46.14098" lon="6.8804">
        <ele>1812.4000244141</ele>
        <time>2017-10-12T13:49:59.000Z</time>
      </trkpt>
      <trkpt lat="46.14101" lon="6.8804">
        <ele>1811</ele>
        <time>2017-10-12T13:50:05.000Z</time>
      </trkpt>
      <trkpt lat="46.14104" lon="6.88042">
        <ele>1809.8000488281</ele>
        <time>2017-10-12T13:50:10.000Z</time>
      </trkpt>
      <trkpt lat="46.14108" lon="6.88042">
        <ele>1808</ele>
        <time>2017-10-12T13:50:14.000Z</time>
      </trkpt>
      <trkpt lat="46.14111" lon="6.88044">
        <ele>1807</ele>
        <time>2017-10-12T13:50:18.000Z</time>
      </trkpt>
      <trkpt lat="46.14113" lon="6.88042">
        <ele>1805.5999755859</ele>
        <time>2017-10-12T13:50:23.000Z</time>
      </trkpt>
      <trkpt lat="46.14121" lon="6.88044">
        <ele>1800.4000244141</ele>
        <time>2017-10-12T13:50:31.000Z</time>
      </trkpt>
      <trkpt lat="46.14126" lon="6.88043">
        <ele>1796.1999511719</ele>
        <time>2017-10-12T13:50:38.000Z</time>
      </trkpt>
      <trkpt lat="46.14135" lon="6.8805">
        <ele>1792.8000488281</ele>
        <time>2017-10-12T13:50:44.000Z</time>
      </trkpt>
      <trkpt lat="46.14135" lon="6.8805">
        <ele>1792.8000488281</ele>
        <time>2017-10-12T13:50:45.000Z</time>
      </trkpt>
      <trkpt lat="46.1414" lon="6.88052">
        <ele>1790.4000244141</ele>
        <time>2017-10-12T13:50:49.000Z</time>
      </trkpt>
      <trkpt lat="46.14141" lon="6.8805">
        <ele>1788.8000488281</ele>
        <time>2017-10-12T13:50:51.000Z</time>
      </trkpt>
      <trkpt lat="46.1414" lon="6.88045">
        <ele>1786.8000488281</ele>
        <time>2017-10-12T13:50:54.000Z</time>
      </trkpt>
      <trkpt lat="46.1414" lon="6.88042">
        <ele>1784.5999755859</ele>
        <time>2017-10-12T13:50:58.000Z</time>
      </trkpt>
      <trkpt lat="46.1414" lon="6.88039">
        <ele>1783</ele>
        <time>2017-10-12T13:51:01.000Z</time>
      </trkpt>
      <trkpt lat="46.14136" lon="6.88032">
        <ele>1781.5999755859</ele>
        <time>2017-10-12T13:51:04.000Z</time>
      </trkpt>
      <trkpt lat="46.14135" lon="6.88029">
        <ele>1780.1999511719</ele>
        <time>2017-10-12T13:51:06.000Z</time>
      </trkpt>
      <trkpt lat="46.14135" lon="6.88025">
        <ele>1778.8000488281</ele>
        <time>2017-10-12T13:51:08.000Z</time>
      </trkpt>
      <trkpt lat="46.14135" lon="6.88022">
        <ele>1776</ele>
        <time>2017-10-12T13:51:12.000Z</time>
      </trkpt>
      <trkpt lat="46.14136" lon="6.88022">
        <ele>1775.5999755859</ele>
        <time>2017-10-12T13:51:14.000Z</time>
      </trkpt>
      <trkpt lat="46.14147" lon="6.88013">
        <ele>1761.8000488281</ele>
        <time>2017-10-12T13:52:14.000Z</time>
      </trkpt>
      <trkpt lat="46.1415" lon="6.88008">
        <ele>1756.4000244141</ele>
        <time>2017-10-12T13:52:33.000Z</time>
      </trkpt>
      <trkpt lat="46.14157" lon="6.87999">
        <ele>1745.4000244141</ele>
        <time>2017-10-12T13:53:44.000Z</time>
      </trkpt>
      <trkpt lat="46.14159" lon="6.88017">
        <ele>1756.1999511719</ele>
        <time>2017-10-12T13:54:05.000Z</time>
      </trkpt>
      <trkpt lat="46.14161" lon="6.88022">
        <ele>1757.8000488281</ele>
        <time>2017-10-12T13:54:09.000Z</time>
      </trkpt>
      <trkpt lat="46.14163" lon="6.88019">
        <ele>1754</ele>
        <time>2017-10-12T13:54:18.000Z</time>
      </trkpt>
      <trkpt lat="46.14162" lon="6.88013">
        <ele>1751.4000244141</ele>
        <time>2017-10-12T13:54:23.000Z</time>
      </trkpt>
      <trkpt lat="46.14161" lon="6.88007">
        <ele>1748.4000244141</ele>
        <time>2017-10-12T13:54:27.000Z</time>
      </trkpt>
      <trkpt lat="46.14161" lon="6.88005">
        <ele>1746.8000488281</ele>
        <time>2017-10-12T13:54:29.000Z</time>
      </trkpt>
      <trkpt lat="46.14161" lon="6.88002">
        <ele>1745</ele>
        <time>2017-10-12T13:54:32.000Z</time>
      </trkpt>
      <trkpt lat="46.14171" lon="6.87981">
        <ele>1724</ele>
        <time>2017-10-12T13:55:22.000Z</time>
      </trkpt>
      <trkpt lat="46.14172" lon="6.87974">
        <ele>1721.4000244141</ele>
        <time>2017-10-12T13:55:27.000Z</time>
      </trkpt>
      <trkpt lat="46.14181" lon="6.87951">
        <ele>1710.1999511719</ele>
        <time>2017-10-12T13:55:46.000Z</time>
      </trkpt>
      <trkpt lat="46.14191" lon="6.87929">
        <ele>1692.8000488281</ele>
        <time>2017-10-12T13:56:08.000Z</time>
      </trkpt>
      <trkpt lat="46.14191" lon="6.87903">
        <ele>1684.8000488281</ele>
        <time>2017-10-12T13:56:26.000Z</time>
      </trkpt>
      <trkpt lat="46.14183" lon="6.87877">
        <ele>1695</ele>
        <time>2017-10-12T13:56:38.000Z</time>
      </trkpt>
      <trkpt lat="46.14182" lon="6.87872">
        <ele>1697.4000244141</ele>
        <time>2017-10-12T13:56:41.000Z</time>
      </trkpt>
      <trkpt lat="46.14183" lon="6.87866">
        <ele>1696.4000244141</ele>
        <time>2017-10-12T13:56:47.000Z</time>
      </trkpt>
      <trkpt lat="46.14183" lon="6.87865">
        <ele>1696</ele>
        <time>2017-10-12T13:56:49.000Z</time>
      </trkpt>
      <trkpt lat="46.14188" lon="6.87861">
        <ele>1690.5999755859</ele>
        <time>2017-10-12T13:56:52.000Z</time>
      </trkpt>
      <trkpt lat="46.14189" lon="6.87858">
        <ele>1689.1999511719</ele>
        <time>2017-10-12T13:56:55.000Z</time>
      </trkpt>
      <trkpt lat="46.14191" lon="6.87858">
        <ele>1686.5999755859</ele>
        <time>2017-10-12T13:56:58.000Z</time>
      </trkpt>
      <trkpt lat="46.14191" lon="6.87857">
        <ele>1686.5999755859</ele>
        <time>2017-10-12T13:57:01.000Z</time>
      </trkpt>
      <trkpt lat="46.14191" lon="6.87857">
        <ele>1686.8000488281</ele>
        <time>2017-10-12T13:57:03.000Z</time>
      </trkpt>
      <trkpt lat="46.1419" lon="6.87855">
        <ele>1687.4000244141</ele>
        <time>2017-10-12T13:57:07.000Z</time>
      </trkpt>
      <trkpt lat="46.1419" lon="6.87854">
        <ele>1687.4000244141</ele>
        <time>2017-10-12T13:57:09.000Z</time>
      </trkpt>
      <trkpt lat="46.14189" lon="6.87852">
        <ele>1688.5999755859</ele>
        <time>2017-10-12T13:57:11.000Z</time>
      </trkpt>
      <trkpt lat="46.14188" lon="6.87851">
        <ele>1690.1999511719</ele>
        <time>2017-10-12T13:57:14.000Z</time>
      </trkpt>
      <trkpt lat="46.14189" lon="6.8785">
        <ele>1689</ele>
        <time>2017-10-12T13:57:17.000Z</time>
      </trkpt>
      <trkpt lat="46.1419" lon="6.87849">
        <ele>1687.1999511719</ele>
        <time>2017-10-12T13:57:19.000Z</time>
      </trkpt>
      <trkpt lat="46.14191" lon="6.87849">
        <ele>1686.1999511719</ele>
        <time>2017-10-12T13:57:21.000Z</time>
      </trkpt>
      <trkpt lat="46.14193" lon="6.87848">
        <ele>1684</ele>
        <time>2017-10-12T13:57:24.000Z</time>
      </trkpt>
      <trkpt lat="46.14197" lon="6.87845">
        <ele>1678.5999755859</ele>
        <time>2017-10-12T13:57:28.000Z</time>
      </trkpt>
      <trkpt lat="46.14199" lon="6.87839">
        <ele>1676.1999511719</ele>
        <time>2017-10-12T13:57:33.000Z</time>
      </trkpt>
      <trkpt lat="46.14203" lon="6.87835">
        <ele>1670.4000244141</ele>
        <time>2017-10-12T13:57:44.000Z</time>
      </trkpt>
      <trkpt lat="46.14207" lon="6.87829">
        <ele>1665.4000244141</ele>
        <time>2017-10-12T13:57:52.000Z</time>
      </trkpt>
      <trkpt lat="46.14217" lon="6.8781">
        <ele>1653.4000244141</ele>
        <time>2017-10-12T13:58:25.000Z</time>
      </trkpt>
      <trkpt lat="46.14221" lon="6.87797">
        <ele>1648.4000244141</ele>
        <time>2017-10-12T13:59:26.000Z</time>
      </trkpt>
      <trkpt lat="46.14214" lon="6.8778">
        <ele>1658.8000488281</ele>
        <time>2017-10-12T14:00:42.000Z</time>
      </trkpt>
      <trkpt lat="46.14225" lon="6.87769">
        <ele>1644.4000244141</ele>
        <time>2017-10-12T14:01:12.000Z</time>
      </trkpt>
      <trkpt lat="46.14223" lon="6.87743">
        <ele>1649</ele>
        <time>2017-10-12T14:01:26.000Z</time>
      </trkpt>
      <trkpt lat="46.14225" lon="6.8773">
        <ele>1646</ele>
        <time>2017-10-12T14:01:35.000Z</time>
      </trkpt>
      <trkpt lat="46.14225" lon="6.87704">
        <ele>1647.4000244141</ele>
        <time>2017-10-12T14:01:46.000Z</time>
      </trkpt>
      <trkpt lat="46.14225" lon="6.87693">
        <ele>1648</ele>
        <time>2017-10-12T14:01:54.000Z</time>
      </trkpt>
      <trkpt lat="46.14223" lon="6.8769">
        <ele>1651.4000244141</ele>
        <time>2017-10-12T14:01:58.000Z</time>
      </trkpt>
      <trkpt lat="46.14223" lon="6.87682">
        <ele>1651.8000488281</ele>
        <time>2017-10-12T14:02:08.000Z</time>
      </trkpt>
      <trkpt lat="46.14226" lon="6.87676">
        <ele>1647.5999755859</ele>
        <time>2017-10-12T14:02:15.000Z</time>
      </trkpt>
      <trkpt lat="46.14228" lon="6.87674">
        <ele>1646</ele>
        <time>2017-10-12T14:02:17.000Z</time>
      </trkpt>
      <trkpt lat="46.14228" lon="6.87654">
        <ele>1646.5999755859</ele>
        <time>2017-10-12T14:02:27.000Z</time>
      </trkpt>
      <trkpt lat="46.14226" lon="6.8765">
        <ele>1649.8000488281</ele>
        <time>2017-10-12T14:02:31.000Z</time>
      </trkpt>
      <trkpt lat="46.14227" lon="6.87646">
        <ele>1648.1999511719</ele>
        <time>2017-10-12T14:02:36.000Z</time>
      </trkpt>
      <trkpt lat="46.14229" lon="6.87646">
        <ele>1644.8000488281</ele>
        <time>2017-10-12T14:02:38.000Z</time>
      </trkpt>
      <trkpt lat="46.14231" lon="6.87644">
        <ele>1642.1999511719</ele>
        <time>2017-10-12T14:02:41.000Z</time>
      </trkpt>
      <trkpt lat="46.14233" lon="6.87641">
        <ele>1640.1999511719</ele>
        <time>2017-10-12T14:02:43.000Z</time>
      </trkpt>
      <trkpt lat="46.14237" lon="6.87616">
        <ele>1636.1999511719</ele>
        <time>2017-10-12T14:02:54.000Z</time>
      </trkpt>
      <trkpt lat="46.14235" lon="6.8761">
        <ele>1638.1999511719</ele>
        <time>2017-10-12T14:02:57.000Z</time>
      </trkpt>
      <trkpt lat="46.14224" lon="6.87591">
        <ele>1656.4000244141</ele>
        <time>2017-10-12T14:03:16.000Z</time>
      </trkpt>
      <trkpt lat="46.14218" lon="6.87564">
        <ele>1667</ele>
        <time>2017-10-12T14:03:31.000Z</time>
      </trkpt>
      <trkpt lat="46.14217" lon="6.87548">
        <ele>1670</ele>
        <time>2017-10-12T14:03:44.000Z</time>
      </trkpt>
      <trkpt lat="46.1422" lon="6.87546">
        <ele>1666.8000488281</ele>
        <time>2017-10-12T14:03:46.000Z</time>
      </trkpt>
      <trkpt lat="46.14222" lon="6.8752">
        <ele>1665.8000488281</ele>
        <time>2017-10-12T14:04:02.000Z</time>
      </trkpt>
      <trkpt lat="46.1422" lon="6.87494">
        <ele>1672</ele>
        <time>2017-10-12T14:04:21.000Z</time>
      </trkpt>
      <trkpt lat="46.14219" lon="6.87493">
        <ele>1672.5999755859</ele>
        <time>2017-10-12T14:04:22.000Z</time>
      </trkpt>
      <trkpt lat="46.1421" lon="6.8747">
        <ele>1689.4000244141</ele>
        <time>2017-10-12T14:04:37.000Z</time>
      </trkpt>
      <trkpt lat="46.14212" lon="6.87442">
        <ele>1651.8000488281</ele>
        <time>2017-10-12T14:04:49.000Z</time>
      </trkpt>
      <trkpt lat="46.14209" lon="6.87415">
        <ele>1627.5999755859</ele>
        <time>2017-10-12T14:05:03.000Z</time>
      </trkpt>
      <trkpt lat="46.14209" lon="6.87409">
        <ele>1621.5999755859</ele>
        <time>2017-10-12T14:05:07.000Z</time>
      </trkpt>
      <trkpt lat="46.14204" lon="6.87385">
        <ele>1637.8000488281</ele>
        <time>2017-10-12T14:05:23.000Z</time>
      </trkpt>
      <trkpt lat="46.14209" lon="6.87374">
        <ele>1631.8000488281</ele>
        <time>2017-10-12T14:05:31.000Z</time>
      </trkpt>
      <trkpt lat="46.14212" lon="6.87358">
        <ele>1630.8000488281</ele>
        <time>2017-10-12T14:05:42.000Z</time>
      </trkpt>
      <trkpt lat="46.14211" lon="6.87356">
        <ele>1633.4000244141</ele>
        <time>2017-10-12T14:05:45.000Z</time>
      </trkpt>
      <trkpt lat="46.14213" lon="6.87353">
        <ele>1629</ele>
        <time>2017-10-12T14:05:50.000Z</time>
      </trkpt>
      <trkpt lat="46.14213" lon="6.87351">
        <ele>1630</ele>
        <time>2017-10-12T14:05:52.000Z</time>
      </trkpt>
      <trkpt lat="46.14214" lon="6.87347">
        <ele>1629.8000488281</ele>
        <time>2017-10-12T14:05:56.000Z</time>
      </trkpt>
      <trkpt lat="46.14227" lon="6.87339">
        <ele>1599.1999511719</ele>
        <time>2017-10-12T14:06:21.000Z</time>
      </trkpt>
      <trkpt lat="46.14222" lon="6.87318">
        <ele>1620</ele>
        <time>2017-10-12T14:06:51.000Z</time>
      </trkpt>
      <trkpt lat="46.14217" lon="6.87315">
        <ele>1634.4000244141</ele>
        <time>2017-10-12T14:06:55.000Z</time>
      </trkpt>
      <trkpt lat="46.14216" lon="6.87314">
        <ele>1638.8000488281</ele>
        <time>2017-10-12T14:06:57.000Z</time>
      </trkpt>
      <trkpt lat="46.14227" lon="6.87303">
        <ele>1612.8000488281</ele>
        <time>2017-10-12T14:07:11.000Z</time>
      </trkpt>
      <trkpt lat="46.14231" lon="6.87301">
        <ele>1608.8000488281</ele>
        <time>2017-10-12T14:07:17.000Z</time>
      </trkpt>
      <trkpt lat="46.1423" lon="6.87278">
        <ele>1616.4000244141</ele>
        <time>2017-10-12T14:07:44.000Z</time>
      </trkpt>
      <trkpt lat="46.14234" lon="6.87271">
        <ele>1615.5999755859</ele>
        <time>2017-10-12T14:07:51.000Z</time>
      </trkpt>
      <trkpt lat="46.14236" lon="6.87267">
        <ele>1615.5999755859</ele>
        <time>2017-10-12T14:07:58.000Z</time>
      </trkpt>
      <trkpt lat="46.14241" lon="6.87257">
        <ele>1614.4000244141</ele>
        <time>2017-10-12T14:08:11.000Z</time>
      </trkpt>
      <trkpt lat="46.14244" lon="6.87253">
        <ele>1613.4000244141</ele>
        <time>2017-10-12T14:08:17.000Z</time>
      </trkpt>
      <trkpt lat="46.14248" lon="6.87249">
        <ele>1611.4000244141</ele>
        <time>2017-10-12T14:08:19.000Z</time>
      </trkpt>
      <trkpt lat="46.14265" lon="6.87232">
        <ele>1605.1999511719</ele>
        <time>2017-10-12T14:08:29.000Z</time>
      </trkpt>
      <trkpt lat="46.14267" lon="6.8723">
        <ele>1604.8000488281</ele>
        <time>2017-10-12T14:08:31.000Z</time>
      </trkpt>
      <trkpt lat="46.14269" lon="6.87224">
        <ele>1607</ele>
        <time>2017-10-12T14:09:24.000Z</time>
      </trkpt>
      <trkpt lat="46.14272" lon="6.87218">
        <ele>1608.1999511719</ele>
        <time>2017-10-12T14:09:30.000Z</time>
      </trkpt>
      <trkpt lat="46.14272" lon="6.8722">
        <ele>1607.1999511719</ele>
        <time>2017-10-12T14:09:33.000Z</time>
      </trkpt>
      <trkpt lat="46.14281" lon="6.87223">
        <ele>1598.1999511719</ele>
        <time>2017-10-12T14:09:41.000Z</time>
      </trkpt>
      <trkpt lat="46.14295" lon="6.87204">
        <ele>1593.1999511719</ele>
        <time>2017-10-12T14:09:52.000Z</time>
      </trkpt>
      <trkpt lat="46.14306" lon="6.87181">
        <ele>1588.8000488281</ele>
        <time>2017-10-12T14:10:01.000Z</time>
      </trkpt>
      <trkpt lat="46.14318" lon="6.87161">
        <ele>1584</ele>
        <time>2017-10-12T14:10:11.000Z</time>
      </trkpt>
      <trkpt lat="46.14328" lon="6.87141">
        <ele>1583.1999511719</ele>
        <time>2017-10-12T14:10:22.000Z</time>
      </trkpt>
      <trkpt lat="46.14327" lon="6.87132">
        <ele>1587.1999511719</ele>
        <time>2017-10-12T14:10:28.000Z</time>
      </trkpt>
      <trkpt lat="46.14334" lon="6.87105">
        <ele>1591.8000488281</ele>
        <time>2017-10-12T14:10:42.000Z</time>
      </trkpt>
      <trkpt lat="46.1434" lon="6.87086">
        <ele>1592.1999511719</ele>
        <time>2017-10-12T14:10:49.000Z</time>
      </trkpt>
      <trkpt lat="46.14351" lon="6.87063">
        <ele>1592.5999755859</ele>
        <time>2017-10-12T14:10:58.000Z</time>
      </trkpt>
      <trkpt lat="46.14354" lon="6.87038">
        <ele>1604.4000244141</ele>
        <time>2017-10-12T14:11:09.000Z</time>
      </trkpt>
      <trkpt lat="46.14369" lon="6.87023">
        <ele>1592.1999511719</ele>
        <time>2017-10-12T14:11:21.000Z</time>
      </trkpt>
      <trkpt lat="46.1438" lon="6.87002">
        <ele>1583.4000244141</ele>
        <time>2017-10-12T14:11:31.000Z</time>
      </trkpt>
      <trkpt lat="46.14387" lon="6.86978">
        <ele>1583.1999511719</ele>
        <time>2017-10-12T14:11:40.000Z</time>
      </trkpt>
      <trkpt lat="46.144" lon="6.86958">
        <ele>1580.8000488281</ele>
        <time>2017-10-12T14:11:51.000Z</time>
      </trkpt>
      <trkpt lat="46.14414" lon="6.86945">
        <ele>1581.1999511719</ele>
        <time>2017-10-12T14:12:01.000Z</time>
      </trkpt>
      <trkpt lat="46.14422" lon="6.86946">
        <ele>1578.1999511719</ele>
        <time>2017-10-12T14:12:06.000Z</time>
      </trkpt>
      <trkpt lat="46.14422" lon="6.8695">
        <ele>1576.5999755859</ele>
        <time>2017-10-12T14:12:08.000Z</time>
      </trkpt>
      <trkpt lat="46.14418" lon="6.86975">
        <ele>1567.4000244141</ele>
        <time>2017-10-12T14:12:17.000Z</time>
      </trkpt>
      <trkpt lat="46.14416" lon="6.86993">
        <ele>1561.4000244141</ele>
        <time>2017-10-12T14:12:26.000Z</time>
      </trkpt>
      <trkpt lat="46.1442" lon="6.86991">
        <ele>1560.8000488281</ele>
        <time>2017-10-12T14:12:29.000Z</time>
      </trkpt>
      <trkpt lat="46.14432" lon="6.86981">
        <ele>1560.4000244141</ele>
        <time>2017-10-12T14:12:38.000Z</time>
      </trkpt>
      <trkpt lat="46.14433" lon="6.86986">
        <ele>1558</ele>
        <time>2017-10-12T14:12:42.000Z</time>
      </trkpt>
      <trkpt lat="46.1443" lon="6.87012">
        <ele>1551.8000488281</ele>
        <time>2017-10-12T14:12:55.000Z</time>
      </trkpt>
      <trkpt lat="46.14428" lon="6.87023">
        <ele>1550.1999511719</ele>
        <time>2017-10-12T14:13:02.000Z</time>
      </trkpt>
      <trkpt lat="46.14431" lon="6.87022">
        <ele>1549.5999755859</ele>
        <time>2017-10-12T14:13:04.000Z</time>
      </trkpt>
      <trkpt lat="46.14449" lon="6.87014">
        <ele>1545</ele>
        <time>2017-10-12T14:13:16.000Z</time>
      </trkpt>
      <trkpt lat="46.1446" lon="6.87008">
        <ele>1542.5999755859</ele>
        <time>2017-10-12T14:13:27.000Z</time>
      </trkpt>
      <trkpt lat="46.14463" lon="6.86995">
        <ele>1544.5999755859</ele>
        <time>2017-10-12T14:13:37.000Z</time>
      </trkpt>
      <trkpt lat="46.1447" lon="6.87012">
        <ele>1538.1999511719</ele>
        <time>2017-10-12T14:13:49.000Z</time>
      </trkpt>
      <trkpt lat="46.14468" lon="6.87017">
        <ele>1537.5999755859</ele>
        <time>2017-10-12T14:13:54.000Z</time>
      </trkpt>
      <trkpt lat="46.1447" lon="6.87045">
        <ele>1530.1999511719</ele>
        <time>2017-10-12T14:14:05.000Z</time>
      </trkpt>
      <trkpt lat="46.14456" lon="6.87063">
        <ele>1530.8000488281</ele>
        <time>2017-10-12T14:14:12.000Z</time>
      </trkpt>
      <trkpt lat="46.1445" lon="6.87087">
        <ele>1525.8000488281</ele>
        <time>2017-10-12T14:14:20.000Z</time>
      </trkpt>
      <trkpt lat="46.14449" lon="6.87089">
        <ele>1525.4000244141</ele>
        <time>2017-10-12T14:14:21.000Z</time>
      </trkpt>
      <trkpt lat="46.14434" lon="6.87105">
        <ele>1524.5999755859</ele>
        <time>2017-10-12T14:14:33.000Z</time>
      </trkpt>
      <trkpt lat="46.14424" lon="6.87125">
        <ele>1522.4000244141</ele>
        <time>2017-10-12T14:14:45.000Z</time>
      </trkpt>
      <trkpt lat="46.1442" lon="6.87141">
        <ele>1520</ele>
        <time>2017-10-12T14:14:53.000Z</time>
      </trkpt>
      <trkpt lat="46.14418" lon="6.87148">
        <ele>1518.5999755859</ele>
        <time>2017-10-12T14:14:59.000Z</time>
      </trkpt>
      <trkpt lat="46.14421" lon="6.87145">
        <ele>1518.4000244141</ele>
        <time>2017-10-12T14:15:02.000Z</time>
      </trkpt>
      <trkpt lat="46.14431" lon="6.87143">
        <ele>1514.1999511719</ele>
        <time>2017-10-12T14:15:13.000Z</time>
      </trkpt>
      <trkpt lat="46.14427" lon="6.87169">
        <ele>1507.5999755859</ele>
        <time>2017-10-12T14:15:25.000Z</time>
      </trkpt>
      <trkpt lat="46.14422" lon="6.87179">
        <ele>1506.1999511719</ele>
        <time>2017-10-12T14:15:32.000Z</time>
      </trkpt>
      <trkpt lat="46.14426" lon="6.87177">
        <ele>1505</ele>
        <time>2017-10-12T14:15:35.000Z</time>
      </trkpt>
      <trkpt lat="46.14438" lon="6.87174">
        <ele>1501</ele>
        <time>2017-10-12T14:15:43.000Z</time>
      </trkpt>
      <trkpt lat="46.14439" lon="6.87177">
        <ele>1499.5999755859</ele>
        <time>2017-10-12T14:15:45.000Z</time>
      </trkpt>
      <trkpt lat="46.14432" lon="6.87201">
        <ele>1494.4000244141</ele>
        <time>2017-10-12T14:15:59.000Z</time>
      </trkpt>
      <trkpt lat="46.14435" lon="6.87226">
        <ele>1487.1999511719</ele>
        <time>2017-10-12T14:16:12.000Z</time>
      </trkpt>
      <trkpt lat="46.14436" lon="6.87229">
        <ele>1485.5999755859</ele>
        <time>2017-10-12T14:16:14.000Z</time>
      </trkpt>
      <trkpt lat="46.14442" lon="6.87239">
        <ele>1479.5999755859</ele>
        <time>2017-10-12T14:16:20.000Z</time>
      </trkpt>
      <trkpt lat="46.14432" lon="6.8726">
        <ele>1481.1999511719</ele>
        <time>2017-10-12T14:16:30.000Z</time>
      </trkpt>
      <trkpt lat="46.14428" lon="6.87266">
        <ele>1482</ele>
        <time>2017-10-12T14:16:33.000Z</time>
      </trkpt>
      <trkpt lat="46.14424" lon="6.87273">
        <ele>1483</ele>
        <time>2017-10-12T14:16:37.000Z</time>
      </trkpt>
      <trkpt lat="46.14423" lon="6.87298">
        <ele>1478.4000244141</ele>
        <time>2017-10-12T14:16:51.000Z</time>
      </trkpt>
      <trkpt lat="46.14413" lon="6.87304">
        <ele>1483.8000488281</ele>
        <time>2017-10-12T14:16:58.000Z</time>
      </trkpt>
      <trkpt lat="46.14405" lon="6.87328">
        <ele>1484.8000488281</ele>
        <time>2017-10-12T14:17:06.000Z</time>
      </trkpt>
      <trkpt lat="46.14399" lon="6.8734">
        <ele>1486.5999755859</ele>
        <time>2017-10-12T14:17:12.000Z</time>
      </trkpt>
      <trkpt lat="46.144" lon="6.87358">
        <ele>1483.5999755859</ele>
        <time>2017-10-12T14:17:19.000Z</time>
      </trkpt>
      <trkpt lat="46.14396" lon="6.87383">
        <ele>1483.1999511719</ele>
        <time>2017-10-12T14:17:27.000Z</time>
      </trkpt>
      <trkpt lat="46.14398" lon="6.87408">
        <ele>1478.5999755859</ele>
        <time>2017-10-12T14:17:40.000Z</time>
      </trkpt>
      <trkpt lat="46.14393" lon="6.87433">
        <ele>1479.1999511719</ele>
        <time>2017-10-12T14:17:53.000Z</time>
      </trkpt>
      <trkpt lat="46.14386" lon="6.87455">
        <ele>1481.4000244141</ele>
        <time>2017-10-12T14:18:06.000Z</time>
      </trkpt>
      <trkpt lat="46.14387" lon="6.87466">
        <ele>1479.8000488281</ele>
        <time>2017-10-12T14:18:12.000Z</time>
      </trkpt>
      <trkpt lat="46.14381" lon="6.87492">
        <ele>1481.8000488281</ele>
        <time>2017-10-12T14:18:24.000Z</time>
      </trkpt>
      <trkpt lat="46.14381" lon="6.87519">
        <ele>1484.4000244141</ele>
        <time>2017-10-12T14:18:34.000Z</time>
      </trkpt>
      <trkpt lat="46.14388" lon="6.87545">
        <ele>1483.4000244141</ele>
        <time>2017-10-12T14:18:44.000Z</time>
      </trkpt>
      <trkpt lat="46.14391" lon="6.8757">
        <ele>1484.4000244141</ele>
        <time>2017-10-12T14:18:57.000Z</time>
      </trkpt>
      <trkpt lat="46.14396" lon="6.87596">
        <ele>1481.8000488281</ele>
        <time>2017-10-12T14:19:07.000Z</time>
      </trkpt>
      <trkpt lat="46.14401" lon="6.87623">
        <ele>1478.4000244141</ele>
        <time>2017-10-12T14:19:16.000Z</time>
      </trkpt>
      <trkpt lat="46.14404" lon="6.87649">
        <ele>1476.8000488281</ele>
        <time>2017-10-12T14:19:29.000Z</time>
      </trkpt>
      <trkpt lat="46.14405" lon="6.87676">
        <ele>1474</ele>
        <time>2017-10-12T14:19:42.000Z</time>
      </trkpt>
      <trkpt lat="46.14403" lon="6.87703">
        <ele>1472.1999511719</ele>
        <time>2017-10-12T14:19:55.000Z</time>
      </trkpt>
      <trkpt lat="46.14401" lon="6.87706">
        <ele>1473</ele>
        <time>2017-10-12T14:19:57.000Z</time>
      </trkpt>
      <trkpt lat="46.14386" lon="6.8772">
        <ele>1480</ele>
        <time>2017-10-12T14:20:12.000Z</time>
      </trkpt>
      <trkpt lat="46.14382" lon="6.87726">
        <ele>1481</ele>
        <time>2017-10-12T14:20:16.000Z</time>
      </trkpt>
      <trkpt lat="46.14375" lon="6.87751">
        <ele>1484.1999511719</ele>
        <time>2017-10-12T14:20:30.000Z</time>
      </trkpt>
      <trkpt lat="46.14369" lon="6.87776">
        <ele>1484.4000244141</ele>
        <time>2017-10-12T14:20:48.000Z</time>
      </trkpt>
      <trkpt lat="46.14358" lon="6.87799">
        <ele>1488</ele>
        <time>2017-10-12T14:21:07.000Z</time>
      </trkpt>
      <trkpt lat="46.1435" lon="6.87823">
        <ele>1491</ele>
        <time>2017-10-12T14:21:26.000Z</time>
      </trkpt>
      <trkpt lat="46.14348" lon="6.87829">
        <ele>1494.1999511719</ele>
        <time>2017-10-12T14:21:30.000Z</time>
      </trkpt>
      <trkpt lat="46.14344" lon="6.87855">
        <ele>1506.8000488281</ele>
        <time>2017-10-12T14:21:45.000Z</time>
      </trkpt>
      <trkpt lat="46.14351" lon="6.87874">
        <ele>1505.1999511719</ele>
        <time>2017-10-12T14:21:59.000Z</time>
      </trkpt>
      <trkpt lat="46.14368" lon="6.87883">
        <ele>1500.4000244141</ele>
        <time>2017-10-12T14:22:15.000Z</time>
      </trkpt>
      <trkpt lat="46.14384" lon="6.87894">
        <ele>1495</ele>
        <time>2017-10-12T14:22:33.000Z</time>
      </trkpt>
      <trkpt lat="46.14391" lon="6.87918">
        <ele>1496</ele>
        <time>2017-10-12T14:22:51.000Z</time>
      </trkpt>
      <trkpt lat="46.14392" lon="6.87923">
        <ele>1496.4000244141</ele>
        <time>2017-10-12T14:22:54.000Z</time>
      </trkpt>
      <trkpt lat="46.14398" lon="6.87948">
        <ele>1499.1999511719</ele>
        <time>2017-10-12T14:23:08.000Z</time>
      </trkpt>
      <trkpt lat="46.14408" lon="6.87969">
        <ele>1499.5999755859</ele>
        <time>2017-10-12T14:23:23.000Z</time>
      </trkpt>
      <trkpt lat="46.14424" lon="6.87983">
        <ele>1497</ele>
        <time>2017-10-12T14:23:40.000Z</time>
      </trkpt>
      <trkpt lat="46.14435" lon="6.88">
        <ele>1497.5999755859</ele>
        <time>2017-10-12T14:23:56.000Z</time>
      </trkpt>
      <trkpt lat="46.14454" lon="6.88005">
        <ele>1492.8000488281</ele>
        <time>2017-10-12T14:24:06.000Z</time>
      </trkpt>
      <trkpt lat="46.14467" lon="6.88028">
        <ele>1494.5999755859</ele>
        <time>2017-10-12T14:24:16.000Z</time>
      </trkpt>
      <trkpt lat="46.1448" lon="6.88043">
        <ele>1495.4000244141</ele>
        <time>2017-10-12T14:24:27.000Z</time>
      </trkpt>
      <trkpt lat="46.14489" lon="6.88046">
        <ele>1497.1999511719</ele>
        <time>2017-10-12T14:24:34.000Z</time>
      </trkpt>
      <trkpt lat="46.14504" lon="6.8805">
        <ele>1499.5999755859</ele>
        <time>2017-10-12T14:24:46.000Z</time>
      </trkpt>
      <trkpt lat="46.14521" lon="6.8804">
        <ele>1499</ele>
        <time>2017-10-12T14:24:58.000Z</time>
      </trkpt>
      <trkpt lat="46.14539" lon="6.88032">
        <ele>1497.4000244141</ele>
        <time>2017-10-12T14:25:12.000Z</time>
      </trkpt>
      <trkpt lat="46.14557" lon="6.88029">
        <ele>1497</ele>
        <time>2017-10-12T14:25:28.000Z</time>
      </trkpt>
      <trkpt lat="46.14575" lon="6.88023">
        <ele>1494.8000488281</ele>
        <time>2017-10-12T14:25:44.000Z</time>
      </trkpt>
      <trkpt lat="46.14585" lon="6.88024">
        <ele>1495</ele>
        <time>2017-10-12T14:25:53.000Z</time>
      </trkpt>
      <trkpt lat="46.14603" lon="6.88017">
        <ele>1490.8000488281</ele>
        <time>2017-10-12T14:26:02.000Z</time>
      </trkpt>
      <trkpt lat="46.14617" lon="6.88012">
        <ele>1487.1999511719</ele>
        <time>2017-10-12T14:26:15.000Z</time>
      </trkpt>
      <trkpt lat="46.14618" lon="6.8801">
        <ele>1486.1999511719</ele>
        <time>2017-10-12T14:26:18.000Z</time>
      </trkpt>
      <trkpt lat="46.14619" lon="6.88009">
        <ele>1485.8000488281</ele>
        <time>2017-10-12T14:26:20.000Z</time>
      </trkpt>
      <trkpt lat="46.14637" lon="6.88001">
        <ele>1480.4000244141</ele>
        <time>2017-10-12T14:26:45.000Z</time>
      </trkpt>
      <trkpt lat="46.14652" lon="6.87985">
        <ele>1474.1999511719</ele>
        <time>2017-10-12T14:27:06.000Z</time>
      </trkpt>
      <trkpt lat="46.14666" lon="6.8797">
        <ele>1471</ele>
        <time>2017-10-12T14:27:24.000Z</time>
      </trkpt>
      <trkpt lat="46.14665" lon="6.87973">
        <ele>1472</ele>
        <time>2017-10-12T14:27:27.000Z</time>
      </trkpt>
      <trkpt lat="46.1467" lon="6.87973">
        <ele>1472.5999755859</ele>
        <time>2017-10-12T14:27:55.000Z</time>
      </trkpt>
      <trkpt lat="46.14672" lon="6.87968">
        <ele>1471.1999511719</ele>
        <time>2017-10-12T14:27:58.000Z</time>
      </trkpt>
      <trkpt lat="46.14684" lon="6.87958">
        <ele>1469.4000244141</ele>
        <time>2017-10-12T14:28:10.000Z</time>
      </trkpt>
      <trkpt lat="46.14696" lon="6.87962">
        <ele>1472.4000244141</ele>
        <time>2017-10-12T14:28:21.000Z</time>
      </trkpt>
      <trkpt lat="46.14706" lon="6.87959">
        <ele>1472.8000488281</ele>
        <time>2017-10-12T14:28:29.000Z</time>
      </trkpt>
      <trkpt lat="46.14709" lon="6.87963">
        <ele>1474.5999755859</ele>
        <time>2017-10-12T14:28:33.000Z</time>
      </trkpt>
      <trkpt lat="46.14727" lon="6.87964">
        <ele>1477.8000488281</ele>
        <time>2017-10-12T14:28:49.000Z</time>
      </trkpt>
      <trkpt lat="46.14734" lon="6.87958">
        <ele>1477.4000244141</ele>
        <time>2017-10-12T14:28:56.000Z</time>
      </trkpt>
      <trkpt lat="46.14735" lon="6.87958">
        <ele>1477.8000488281</ele>
        <time>2017-10-12T14:28:58.000Z</time>
      </trkpt>
      <trkpt lat="46.14737" lon="6.8796">
        <ele>1478.4000244141</ele>
        <time>2017-10-12T14:29:00.000Z</time>
      </trkpt>
      <trkpt lat="46.14755" lon="6.87959">
        <ele>1481.8000488281</ele>
        <time>2017-10-12T14:29:15.000Z</time>
      </trkpt>
      <trkpt lat="46.14762" lon="6.87958">
        <ele>1482.5999755859</ele>
        <time>2017-10-12T14:29:21.000Z</time>
      </trkpt>
      <trkpt lat="46.14779" lon="6.87957">
        <ele>1485.5999755859</ele>
        <time>2017-10-12T14:29:36.000Z</time>
      </trkpt>
      <trkpt lat="46.14783" lon="6.87953">
        <ele>1485.1999511719</ele>
        <time>2017-10-12T14:29:42.000Z</time>
      </trkpt>
      <trkpt lat="46.14788" lon="6.87943">
        <ele>1483.4000244141</ele>
        <time>2017-10-12T14:29:52.000Z</time>
      </trkpt>
      <trkpt lat="46.1479" lon="6.87936">
        <ele>1481.8000488281</ele>
        <time>2017-10-12T14:29:57.000Z</time>
      </trkpt>
      <trkpt lat="46.14794" lon="6.87925">
        <ele>1479</ele>
        <time>2017-10-12T14:30:09.000Z</time>
      </trkpt>
      <trkpt lat="46.14792" lon="6.87922">
        <ele>1477.5999755859</ele>
        <time>2017-10-12T14:30:11.000Z</time>
      </trkpt>
      <trkpt lat="46.14788" lon="6.87918">
        <ele>1475.5999755859</ele>
        <time>2017-10-12T14:30:18.000Z</time>
      </trkpt>
      <trkpt lat="46.14798" lon="6.87897">
        <ele>1471.1999511719</ele>
        <time>2017-10-12T14:30:34.000Z</time>
      </trkpt>
      <trkpt lat="46.14812" lon="6.8788">
        <ele>1468.8000488281</ele>
        <time>2017-10-12T14:30:45.000Z</time>
      </trkpt>
      <trkpt lat="46.14827" lon="6.87871">
        <ele>1470.8000488281</ele>
        <time>2017-10-12T14:30:54.000Z</time>
      </trkpt>
      <trkpt lat="46.14835" lon="6.87846">
        <ele>1465.5999755859</ele>
        <time>2017-10-12T14:31:03.000Z</time>
      </trkpt>
      <trkpt lat="46.14846" lon="6.87823">
        <ele>1465.1999511719</ele>
        <time>2017-10-12T14:31:13.000Z</time>
      </trkpt>
      <trkpt lat="46.14857" lon="6.87801">
        <ele>1463.8000488281</ele>
        <time>2017-10-12T14:31:23.000Z</time>
      </trkpt>
      <trkpt lat="46.14869" lon="6.8778">
        <ele>1463.1999511719</ele>
        <time>2017-10-12T14:31:32.000Z</time>
      </trkpt>
      <trkpt lat="46.14888" lon="6.87769">
        <ele>1467.4000244141</ele>
        <time>2017-10-12T14:31:41.000Z</time>
      </trkpt>
      <trkpt lat="46.14898" lon="6.87757">
        <ele>1468.1999511719</ele>
        <time>2017-10-12T14:31:55.000Z</time>
      </trkpt>
      <trkpt lat="46.14897" lon="6.87752">
        <ele>1466</ele>
        <time>2017-10-12T14:32:01.000Z</time>
      </trkpt>
      <trkpt lat="46.14906" lon="6.87758">
        <ele>1472.4000244141</ele>
        <time>2017-10-12T14:32:42.000Z</time>
      </trkpt>
      <trkpt lat="46.1492" lon="6.87744">
        <ele>1475</ele>
        <time>2017-10-12T14:33:03.000Z</time>
      </trkpt>
      <trkpt lat="46.1493" lon="6.87722">
        <ele>1473.5999755859</ele>
        <time>2017-10-12T14:33:20.000Z</time>
      </trkpt>
      <trkpt lat="46.1493" lon="6.87719">
        <ele>1473</ele>
        <time>2017-10-12T14:33:24.000Z</time>
      </trkpt>
      <trkpt lat="46.14932" lon="6.87718">
        <ele>1473.8000488281</ele>
        <time>2017-10-12T14:33:27.000Z</time>
      </trkpt>
      <trkpt lat="46.14933" lon="6.87719">
        <ele>1474.1999511719</ele>
        <time>2017-10-12T14:33:29.000Z</time>
      </trkpt>
      <trkpt lat="46.14933" lon="6.87727">
        <ele>1476.5999755859</ele>
        <time>2017-10-12T14:34:51.000Z</time>
      </trkpt>
      <trkpt lat="46.14933" lon="6.8772">
        <ele>1474.5999755859</ele>
        <time>2017-10-12T14:36:17.000Z</time>
      </trkpt>
      <trkpt lat="46.1494" lon="6.87696">
        <ele>1470.5999755859</ele>
        <time>2017-10-12T14:36:34.000Z</time>
      </trkpt>
      <trkpt lat="46.14941" lon="6.87696">
        <ele>1470.8000488281</ele>
        <time>2017-10-12T14:36:37.000Z</time>
      </trkpt>
      <trkpt lat="46.14944" lon="6.87681">
        <ele>1466.1999511719</ele>
        <time>2017-10-12T14:37:02.000Z</time>
      </trkpt>
      <trkpt lat="46.14946" lon="6.87677">
        <ele>1465.5999755859</ele>
        <time>2017-10-12T14:37:06.000Z</time>
      </trkpt>
      <trkpt lat="46.14949" lon="6.87669">
        <ele>1463.5999755859</ele>
        <time>2017-10-12T14:37:13.000Z</time>
      </trkpt>
      <trkpt lat="46.14953" lon="6.87664">
        <ele>1462.8000488281</ele>
        <time>2017-10-12T14:37:19.000Z</time>
      </trkpt>
      <trkpt lat="46.14954" lon="6.87663">
        <ele>1462.5999755859</ele>
        <time>2017-10-12T14:37:21.000Z</time>
      </trkpt>
      <trkpt lat="46.14956" lon="6.8766">
        <ele>1462.5999755859</ele>
        <time>2017-10-12T14:37:23.000Z</time>
      </trkpt>
      <trkpt lat="46.14958" lon="6.87657">
        <ele>1462</ele>
        <time>2017-10-12T14:37:26.000Z</time>
      </trkpt>
      <trkpt lat="46.14973" lon="6.8764">
        <ele>1459.5999755859</ele>
        <time>2017-10-12T14:37:39.000Z</time>
      </trkpt>
      <trkpt lat="46.14991" lon="6.87633">
        <ele>1459.4000244141</ele>
        <time>2017-10-12T14:37:50.000Z</time>
      </trkpt>
      <trkpt lat="46.14999" lon="6.87628">
        <ele>1458.1999511719</ele>
        <time>2017-10-12T14:37:56.000Z</time>
      </trkpt>
      <trkpt lat="46.15002" lon="6.87628">
        <ele>1458.8000488281</ele>
        <time>2017-10-12T14:37:58.000Z</time>
      </trkpt>
      <trkpt lat="46.15012" lon="6.87625">
        <ele>1458.8000488281</ele>
        <time>2017-10-12T14:38:05.000Z</time>
      </trkpt>
      <trkpt lat="46.15016" lon="6.87622">
        <ele>1458.4000244141</ele>
        <time>2017-10-12T14:38:09.000Z</time>
      </trkpt>
      <trkpt lat="46.15023" lon="6.87618">
        <ele>1457.1999511719</ele>
        <time>2017-10-12T14:38:18.000Z</time>
      </trkpt>
      <trkpt lat="46.15026" lon="6.87617">
        <ele>1457.5999755859</ele>
        <time>2017-10-12T14:38:23.000Z</time>
      </trkpt>
      <trkpt lat="46.15029" lon="6.87616">
        <ele>1458</ele>
        <time>2017-10-12T14:38:30.000Z</time>
      </trkpt>
      <trkpt lat="46.1503" lon="6.87615">
        <ele>1457.8000488281</ele>
        <time>2017-10-12T14:38:34.000Z</time>
      </trkpt>
      <trkpt lat="46.15047" lon="6.87602">
        <ele>1454.8000488281</ele>
        <time>2017-10-12T14:38:57.000Z</time>
      </trkpt>
      <trkpt lat="46.15065" lon="6.87595">
        <ele>1454.5999755859</ele>
        <time>2017-10-12T14:39:10.000Z</time>
      </trkpt>
      <trkpt lat="46.15081" lon="6.87584">
        <ele>1448</ele>
        <time>2017-10-12T14:39:26.000Z</time>
      </trkpt>
      <trkpt lat="46.15096" lon="6.87576">
        <ele>1442</ele>
        <time>2017-10-12T14:39:42.000Z</time>
      </trkpt>
      <trkpt lat="46.15098" lon="6.87573">
        <ele>1440.4000244141</ele>
        <time>2017-10-12T14:39:46.000Z</time>
      </trkpt>
      <trkpt lat="46.151" lon="6.87572">
        <ele>1439.5999755859</ele>
        <time>2017-10-12T14:39:48.000Z</time>
      </trkpt>
      <trkpt lat="46.15102" lon="6.87571">
        <ele>1439</ele>
        <time>2017-10-12T14:39:50.000Z</time>
      </trkpt>
      <trkpt lat="46.15114" lon="6.87565">
        <ele>1435.4000244141</ele>
        <time>2017-10-12T14:40:02.000Z</time>
      </trkpt>
      <trkpt lat="46.15118" lon="6.87563">
        <ele>1433.8000488281</ele>
        <time>2017-10-12T14:40:06.000Z</time>
      </trkpt>
      <trkpt lat="46.15119" lon="6.87561">
        <ele>1432.5999755859</ele>
        <time>2017-10-12T14:40:09.000Z</time>
      </trkpt>
      <trkpt lat="46.15121" lon="6.87561">
        <ele>1432.5999755859</ele>
        <time>2017-10-12T14:40:11.000Z</time>
      </trkpt>
      <trkpt lat="46.15125" lon="6.87561">
        <ele>1432</ele>
        <time>2017-10-12T14:40:14.000Z</time>
      </trkpt>
      <trkpt lat="46.15129" lon="6.87557">
        <ele>1429.8000488281</ele>
        <time>2017-10-12T14:40:19.000Z</time>
      </trkpt>
      <trkpt lat="46.15133" lon="6.87551">
        <ele>1427</ele>
        <time>2017-10-12T14:40:23.000Z</time>
      </trkpt>
      <trkpt lat="46.15138" lon="6.87539">
        <ele>1420.5999755859</ele>
        <time>2017-10-12T14:40:32.000Z</time>
      </trkpt>
      <trkpt lat="46.15136" lon="6.87533">
        <ele>1418.1999511719</ele>
        <time>2017-10-12T14:40:37.000Z</time>
      </trkpt>
      <trkpt lat="46.15145" lon="6.87534">
        <ele>1417.1999511719</ele>
        <time>2017-10-12T14:40:59.000Z</time>
      </trkpt>
      <trkpt lat="46.1515" lon="6.87532">
        <ele>1414.8000488281</ele>
        <time>2017-10-12T14:41:03.000Z</time>
      </trkpt>
      <trkpt lat="46.15156" lon="6.87529">
        <ele>1411.5999755859</ele>
        <time>2017-10-12T14:41:08.000Z</time>
      </trkpt>
      <trkpt lat="46.15157" lon="6.8753">
        <ele>1411.5999755859</ele>
        <time>2017-10-12T14:41:10.000Z</time>
      </trkpt>
      <trkpt lat="46.1516" lon="6.87532">
        <ele>1411.8000488281</ele>
        <time>2017-10-12T14:41:14.000Z</time>
      </trkpt>
      <trkpt lat="46.15161" lon="6.87533">
        <ele>1412</ele>
        <time>2017-10-12T14:41:16.000Z</time>
      </trkpt>
      <trkpt lat="46.15163" lon="6.87533">
        <ele>1411.4000244141</ele>
        <time>2017-10-12T14:41:18.000Z</time>
      </trkpt>
      <trkpt lat="46.15166" lon="6.87533">
        <ele>1410.8000488281</ele>
        <time>2017-10-12T14:41:20.000Z</time>
      </trkpt>
      <trkpt lat="46.15184" lon="6.87535">
        <ele>1406</ele>
        <time>2017-10-12T14:41:32.000Z</time>
      </trkpt>
      <trkpt lat="46.15194" lon="6.87524">
        <ele>1397</ele>
        <time>2017-10-12T14:41:42.000Z</time>
      </trkpt>
      <trkpt lat="46.15195" lon="6.87521">
        <ele>1395</ele>
        <time>2017-10-12T14:41:44.000Z</time>
      </trkpt>
      <trkpt lat="46.15198" lon="6.87521">
        <ele>1393.5999755859</ele>
        <time>2017-10-12T14:41:47.000Z</time>
      </trkpt>
      <trkpt lat="46.15204" lon="6.8753">
        <ele>1396.4000244141</ele>
        <time>2017-10-12T14:41:56.000Z</time>
      </trkpt>
      <trkpt lat="46.15205" lon="6.87532">
        <ele>1397</ele>
        <time>2017-10-12T14:41:59.000Z</time>
      </trkpt>
      <trkpt lat="46.15206" lon="6.87534">
        <ele>1397.5999755859</ele>
        <time>2017-10-12T14:42:02.000Z</time>
      </trkpt>
      <trkpt lat="46.15207" lon="6.87535">
        <ele>1397.8000488281</ele>
        <time>2017-10-12T14:42:05.000Z</time>
      </trkpt>
      <trkpt lat="46.15208" lon="6.87537">
        <ele>1398.5999755859</ele>
        <time>2017-10-12T14:42:07.000Z</time>
      </trkpt>
      <trkpt lat="46.15208" lon="6.87539">
        <ele>1399.8000488281</ele>
        <time>2017-10-12T14:42:10.000Z</time>
      </trkpt>
      <trkpt lat="46.15208" lon="6.87544">
        <ele>1402.1999511719</ele>
        <time>2017-10-12T14:42:15.000Z</time>
      </trkpt>
      <trkpt lat="46.15211" lon="6.87549">
        <ele>1403.5999755859</ele>
        <time>2017-10-12T14:42:26.000Z</time>
      </trkpt>
      <trkpt lat="46.15212" lon="6.87552">
        <ele>1404.5999755859</ele>
        <time>2017-10-12T14:42:29.000Z</time>
      </trkpt>
      <trkpt lat="46.1523" lon="6.87558">
        <ele>1401.8000488281</ele>
        <time>2017-10-12T14:42:49.000Z</time>
      </trkpt>
      <trkpt lat="46.15248" lon="6.87552">
        <ele>1396.5999755859</ele>
        <time>2017-10-12T14:43:01.000Z</time>
      </trkpt>
      <trkpt lat="46.15266" lon="6.8755">
        <ele>1393.1999511719</ele>
        <time>2017-10-12T14:43:14.000Z</time>
      </trkpt>
      <trkpt lat="46.15268" lon="6.87549">
        <ele>1392.1999511719</ele>
        <time>2017-10-12T14:43:16.000Z</time>
      </trkpt>
      <trkpt lat="46.15286" lon="6.87543">
        <ele>1387.4000244141</ele>
        <time>2017-10-12T14:43:32.000Z</time>
      </trkpt>
      <trkpt lat="46.15298" lon="6.87537">
        <ele>1385</ele>
        <time>2017-10-12T14:43:42.000Z</time>
      </trkpt>
      <trkpt lat="46.15304" lon="6.87524">
        <ele>1379.5999755859</ele>
        <time>2017-10-12T14:43:54.000Z</time>
      </trkpt>
      <trkpt lat="46.15304" lon="6.87522">
        <ele>1379</ele>
        <time>2017-10-12T14:43:58.000Z</time>
      </trkpt>
      <trkpt lat="46.15301" lon="6.87516">
        <ele>1376.5999755859</ele>
        <time>2017-10-12T14:44:06.000Z</time>
      </trkpt>
      <trkpt lat="46.153" lon="6.87503">
        <ele>1371.4000244141</ele>
        <time>2017-10-12T14:44:20.000Z</time>
      </trkpt>
      <trkpt lat="46.15299" lon="6.87501">
        <ele>1370.5999755859</ele>
        <time>2017-10-12T14:44:23.000Z</time>
      </trkpt>
      <trkpt lat="46.15307" lon="6.87484">
        <ele>1363.5999755859</ele>
        <time>2017-10-12T14:44:36.000Z</time>
      </trkpt>
      <trkpt lat="46.15315" lon="6.87477">
        <ele>1353.4000244141</ele>
        <time>2017-10-12T14:44:42.000Z</time>
      </trkpt>
      <trkpt lat="46.1532" lon="6.87474">
        <ele>1345.5999755859</ele>
        <time>2017-10-12T14:44:46.000Z</time>
      </trkpt>
      <trkpt lat="46.15323" lon="6.87472">
        <ele>1340.4000244141</ele>
        <time>2017-10-12T14:44:52.000Z</time>
      </trkpt>
      <trkpt lat="46.15322" lon="6.87474">
        <ele>1342.1999511719</ele>
        <time>2017-10-12T14:44:54.000Z</time>
      </trkpt>
      <trkpt lat="46.1532" lon="6.87474">
        <ele>1346.1999511719</ele>
        <time>2017-10-12T14:44:58.000Z</time>
      </trkpt>
      <trkpt lat="46.15312" lon="6.87486">
        <ele>1363</ele>
        <time>2017-10-12T14:45:08.000Z</time>
      </trkpt>
      <trkpt lat="46.1531" lon="6.87489">
        <ele>1365.8000488281</ele>
        <time>2017-10-12T14:45:12.000Z</time>
      </trkpt>
      <trkpt lat="46.15301" lon="6.87494">
        <ele>1367.8000488281</ele>
        <time>2017-10-12T14:45:17.000Z</time>
      </trkpt>
      <trkpt lat="46.15289" lon="6.87487">
        <ele>1365.4000244141</ele>
        <time>2017-10-12T14:45:27.000Z</time>
      </trkpt>
      <trkpt lat="46.15286" lon="6.87484">
        <ele>1364.1999511719</ele>
        <time>2017-10-12T14:45:33.000Z</time>
      </trkpt>
      <trkpt lat="46.1528" lon="6.8748">
        <ele>1363</ele>
        <time>2017-10-12T14:45:42.000Z</time>
      </trkpt>
      <trkpt lat="46.15276" lon="6.87473">
        <ele>1360.1999511719</ele>
        <time>2017-10-12T14:45:50.000Z</time>
      </trkpt>
      <trkpt lat="46.15276" lon="6.8747">
        <ele>1359.4000244141</ele>
        <time>2017-10-12T14:45:52.000Z</time>
      </trkpt>
      <trkpt lat="46.1528" lon="6.87461">
        <ele>1356.1999511719</ele>
        <time>2017-10-12T14:46:01.000Z</time>
      </trkpt>
      <trkpt lat="46.15279" lon="6.87458">
        <ele>1355</ele>
        <time>2017-10-12T14:46:04.000Z</time>
      </trkpt>
      <trkpt lat="46.15277" lon="6.87458">
        <ele>1354.8000488281</ele>
        <time>2017-10-12T14:46:07.000Z</time>
      </trkpt>
      <trkpt lat="46.15264" lon="6.87446">
        <ele>1351</ele>
        <time>2017-10-12T14:46:35.000Z</time>
      </trkpt>
      <trkpt lat="46.1526" lon="6.87445">
        <ele>1350.4000244141</ele>
        <time>2017-10-12T14:46:40.000Z</time>
      </trkpt>
      <trkpt lat="46.15258" lon="6.87446">
        <ele>1350.8000488281</ele>
        <time>2017-10-12T14:46:43.000Z</time>
      </trkpt>
      <trkpt lat="46.15254" lon="6.87444">
        <ele>1350.1999511719</ele>
        <time>2017-10-12T14:46:53.000Z</time>
      </trkpt>
      <trkpt lat="46.15252" lon="6.87444">
        <ele>1350.1999511719</ele>
        <time>2017-10-12T14:46:55.000Z</time>
      </trkpt>
      <trkpt lat="46.15251" lon="6.87441">
        <ele>1349.1999511719</ele>
        <time>2017-10-12T14:46:58.000Z</time>
      </trkpt>
      <trkpt lat="46.1525" lon="6.87439">
        <ele>1348.5999755859</ele>
        <time>2017-10-12T14:47:00.000Z</time>
      </trkpt>
      <trkpt lat="46.1525" lon="6.87435">
        <ele>1347.1999511719</ele>
        <time>2017-10-12T14:47:03.000Z</time>
      </trkpt>
      <trkpt lat="46.15249" lon="6.87433">
        <ele>1346.1999511719</ele>
        <time>2017-10-12T14:47:06.000Z</time>
      </trkpt>
      <trkpt lat="46.15247" lon="6.87426">
        <ele>1343.8000488281</ele>
        <time>2017-10-12T14:47:12.000Z</time>
      </trkpt>
      <trkpt lat="46.15245" lon="6.87422">
        <ele>1342.1999511719</ele>
        <time>2017-10-12T14:47:16.000Z</time>
      </trkpt>
      <trkpt lat="46.15243" lon="6.87414">
        <ele>1338.4000244141</ele>
        <time>2017-10-12T14:47:23.000Z</time>
      </trkpt>
      <trkpt lat="46.15248" lon="6.87395">
        <ele>1327</ele>
        <time>2017-10-12T14:47:35.000Z</time>
      </trkpt>
      <trkpt lat="46.15248" lon="6.87392">
        <ele>1325.5999755859</ele>
        <time>2017-10-12T14:47:37.000Z</time>
      </trkpt>
      <trkpt lat="46.1525" lon="6.8738">
        <ele>1319.1999511719</ele>
        <time>2017-10-12T14:47:46.000Z</time>
      </trkpt>
      <trkpt lat="46.15251" lon="6.87375">
        <ele>1316.8000488281</ele>
        <time>2017-10-12T14:47:50.000Z</time>
      </trkpt>
      <trkpt lat="46.15247" lon="6.87371">
        <ele>1315.1999511719</ele>
        <time>2017-10-12T14:47:54.000Z</time>
      </trkpt>
      <trkpt lat="46.15246" lon="6.87368">
        <ele>1313.8000488281</ele>
        <time>2017-10-12T14:47:57.000Z</time>
      </trkpt>
      <trkpt lat="46.15246" lon="6.87365">
        <ele>1312.8000488281</ele>
        <time>2017-10-12T14:47:59.000Z</time>
      </trkpt>
      <trkpt lat="46.15246" lon="6.87362">
        <ele>1311.1999511719</ele>
        <time>2017-10-12T14:48:02.000Z</time>
      </trkpt>
      <trkpt lat="46.15246" lon="6.87361">
        <ele>1310.5999755859</ele>
        <time>2017-10-12T14:48:04.000Z</time>
      </trkpt>
      <trkpt lat="46.15245" lon="6.8736">
        <ele>1310.1999511719</ele>
        <time>2017-10-12T14:48:06.000Z</time>
      </trkpt>
      <trkpt lat="46.15243" lon="6.87359">
        <ele>1309.8000488281</ele>
        <time>2017-10-12T14:48:09.000Z</time>
      </trkpt>
      <trkpt lat="46.15242" lon="6.87357">
        <ele>1309.1999511719</ele>
        <time>2017-10-12T14:48:11.000Z</time>
      </trkpt>
      <trkpt lat="46.15241" lon="6.87355">
        <ele>1308.1999511719</ele>
        <time>2017-10-12T14:48:13.000Z</time>
      </trkpt>
      <trkpt lat="46.15227" lon="6.87365">
        <ele>1316.1999511719</ele>
        <time>2017-10-12T14:48:59.000Z</time>
      </trkpt>
      <trkpt lat="46.15223" lon="6.87371">
        <ele>1319.1999511719</ele>
        <time>2017-10-12T14:49:06.000Z</time>
      </trkpt>
      <trkpt lat="46.15213" lon="6.87368">
        <ele>1317.5999755859</ele>
        <time>2017-10-12T14:49:22.000Z</time>
      </trkpt>
      <trkpt lat="46.15212" lon="6.87365">
        <ele>1316.4000244141</ele>
        <time>2017-10-12T14:49:24.000Z</time>
      </trkpt>
      <trkpt lat="46.15211" lon="6.87355">
        <ele>1311.4000244141</ele>
        <time>2017-10-12T14:49:32.000Z</time>
      </trkpt>
      <trkpt lat="46.15221" lon="6.87337">
        <ele>1302.1999511719</ele>
        <time>2017-10-12T14:49:55.000Z</time>
      </trkpt>
      <trkpt lat="46.15211" lon="6.87334">
        <ele>1300.8000488281</ele>
        <time>2017-10-12T14:50:07.000Z</time>
      </trkpt>
      <trkpt lat="46.15205" lon="6.87332">
        <ele>1299.8000488281</ele>
        <time>2017-10-12T14:50:12.000Z</time>
      </trkpt>
      <trkpt lat="46.15199" lon="6.87319">
        <ele>1293.5999755859</ele>
        <time>2017-10-12T14:50:25.000Z</time>
      </trkpt>
      <trkpt lat="46.15198" lon="6.87318">
        <ele>1293.4000244141</ele>
        <time>2017-10-12T14:50:27.000Z</time>
      </trkpt>
      <trkpt lat="46.15206" lon="6.87302">
        <ele>1287.8000488281</ele>
        <time>2017-10-12T14:50:46.000Z</time>
      </trkpt>
      <trkpt lat="46.15222" lon="6.87288">
        <ele>1279.8000488281</ele>
        <time>2017-10-12T14:51:00.000Z</time>
      </trkpt>
      <trkpt lat="46.15228" lon="6.87282">
        <ele>1275.8000488281</ele>
        <time>2017-10-12T14:51:07.000Z</time>
      </trkpt>
      <trkpt lat="46.15231" lon="6.87279">
        <ele>1273</ele>
        <time>2017-10-12T14:51:10.000Z</time>
      </trkpt>
      <trkpt lat="46.15238" lon="6.87277">
        <ele>1268.1999511719</ele>
        <time>2017-10-12T14:51:18.000Z</time>
      </trkpt>
      <trkpt lat="46.15239" lon="6.87279">
        <ele>1268.1999511719</ele>
        <time>2017-10-12T14:51:20.000Z</time>
      </trkpt>
      <trkpt lat="46.1524" lon="6.87281">
        <ele>1268.5999755859</ele>
        <time>2017-10-12T14:51:23.000Z</time>
      </trkpt>
      <trkpt lat="46.15242" lon="6.87294">
        <ele>1273.4000244141</ele>
        <time>2017-10-12T14:51:37.000Z</time>
      </trkpt>
      <trkpt lat="46.15242" lon="6.873">
        <ele>1276</ele>
        <time>2017-10-12T14:51:43.000Z</time>
      </trkpt>
      <trkpt lat="46.15247" lon="6.87302">
        <ele>1274.1999511719</ele>
        <time>2017-10-12T14:51:49.000Z</time>
      </trkpt>
      <trkpt lat="46.15249" lon="6.87302">
        <ele>1272.8000488281</ele>
        <time>2017-10-12T14:51:51.000Z</time>
      </trkpt>
      <trkpt lat="46.15253" lon="6.873">
        <ele>1269.5999755859</ele>
        <time>2017-10-12T14:51:55.000Z</time>
      </trkpt>
      <trkpt lat="46.15255" lon="6.87299">
        <ele>1268</ele>
        <time>2017-10-12T14:51:57.000Z</time>
      </trkpt>
      <trkpt lat="46.15258" lon="6.87298">
        <ele>1265.5999755859</ele>
        <time>2017-10-12T14:52:00.000Z</time>
      </trkpt>
      <trkpt lat="46.15261" lon="6.87294">
        <ele>1262.4000244141</ele>
        <time>2017-10-12T14:52:03.000Z</time>
      </trkpt>
      <trkpt lat="46.15269" lon="6.87271">
        <ele>1244.4000244141</ele>
        <time>2017-10-12T14:52:14.000Z</time>
      </trkpt>
      <trkpt lat="46.15273" lon="6.87258">
        <ele>1233.4000244141</ele>
        <time>2017-10-12T14:52:20.000Z</time>
      </trkpt>
      <trkpt lat="46.15289" lon="6.87273">
        <ele>1231</ele>
        <time>2017-10-12T14:52:34.000Z</time>
      </trkpt>
      <trkpt lat="46.1529" lon="6.87279">
        <ele>1233.5999755859</ele>
        <time>2017-10-12T14:52:37.000Z</time>
      </trkpt>
      <trkpt lat="46.15291" lon="6.87281">
        <ele>1234.5999755859</ele>
        <time>2017-10-12T14:52:39.000Z</time>
      </trkpt>
      <trkpt lat="46.15293" lon="6.8729">
        <ele>1238.4000244141</ele>
        <time>2017-10-12T14:52:47.000Z</time>
      </trkpt>
      <trkpt lat="46.15296" lon="6.8729">
        <ele>1236</ele>
        <time>2017-10-12T14:52:52.000Z</time>
      </trkpt>
      <trkpt lat="46.15298" lon="6.87291">
        <ele>1235.8000488281</ele>
        <time>2017-10-12T14:52:56.000Z</time>
      </trkpt>
      <trkpt lat="46.15298" lon="6.87291">
        <ele>1235.5999755859</ele>
        <time>2017-10-12T14:52:58.000Z</time>
      </trkpt>
      <trkpt lat="46.15299" lon="6.87291">
        <ele>1234.8000488281</ele>
        <time>2017-10-12T14:53:02.000Z</time>
      </trkpt>
      <trkpt lat="46.15301" lon="6.87286">
        <ele>1230</ele>
        <time>2017-10-12T14:53:07.000Z</time>
      </trkpt>
      <trkpt lat="46.15302" lon="6.87286">
        <ele>1229.5999755859</ele>
        <time>2017-10-12T14:53:09.000Z</time>
      </trkpt>
      <trkpt lat="46.15299" lon="6.87287">
        <ele>1231.8000488281</ele>
        <time>2017-10-12T14:53:14.000Z</time>
      </trkpt>
      <trkpt lat="46.15297" lon="6.87281">
        <ele>1229.5999755859</ele>
        <time>2017-10-12T14:53:17.000Z</time>
      </trkpt>
      <trkpt lat="46.15299" lon="6.87279">
        <ele>1227.1999511719</ele>
        <time>2017-10-12T14:53:19.000Z</time>
      </trkpt>
      <trkpt lat="46.1531" lon="6.87278">
        <ele>1217.8000488281</ele>
        <time>2017-10-12T14:53:25.000Z</time>
      </trkpt>
      <trkpt lat="46.15316" lon="6.87279">
        <ele>1213</ele>
        <time>2017-10-12T14:53:29.000Z</time>
      </trkpt>
      <trkpt lat="46.15321" lon="6.87272">
        <ele>1204.5999755859</ele>
        <time>2017-10-12T14:53:32.000Z</time>
      </trkpt>
      <trkpt lat="46.15325" lon="6.87267">
        <ele>1197.8000488281</ele>
        <time>2017-10-12T14:53:35.000Z</time>
      </trkpt>
      <trkpt lat="46.15327" lon="6.87268">
        <ele>1196</ele>
        <time>2017-10-12T14:53:39.000Z</time>
      </trkpt>
      <trkpt lat="46.15326" lon="6.87266">
        <ele>1196.4000244141</ele>
        <time>2017-10-12T14:53:43.000Z</time>
      </trkpt>
      <trkpt lat="46.15324" lon="6.87264">
        <ele>1196.5999755859</ele>
        <time>2017-10-12T14:53:46.000Z</time>
      </trkpt>
      <trkpt lat="46.15324" lon="6.87268">
        <ele>1199.1999511719</ele>
        <time>2017-10-12T14:53:50.000Z</time>
      </trkpt>
      <trkpt lat="46.15325" lon="6.87283">
        <ele>1208.1999511719</ele>
        <time>2017-10-12T14:53:55.000Z</time>
      </trkpt>
      <trkpt lat="46.15327" lon="6.87298">
        <ele>1216.1999511719</ele>
        <time>2017-10-12T14:54:06.000Z</time>
      </trkpt>
      <trkpt lat="46.15335" lon="6.87315">
        <ele>1220.1999511719</ele>
        <time>2017-10-12T14:54:18.000Z</time>
      </trkpt>
      <trkpt lat="46.15338" lon="6.87316">
        <ele>1218.5999755859</ele>
        <time>2017-10-12T14:54:20.000Z</time>
      </trkpt>
      <trkpt lat="46.15353" lon="6.87329">
        <ele>1212</ele>
        <time>2017-10-12T14:54:34.000Z</time>
      </trkpt>
      <trkpt lat="46.15355" lon="6.87329">
        <ele>1210.5999755859</ele>
        <time>2017-10-12T14:54:36.000Z</time>
      </trkpt>
      <trkpt lat="46.15358" lon="6.87329">
        <ele>1207.5999755859</ele>
        <time>2017-10-12T14:54:41.000Z</time>
      </trkpt>
      <trkpt lat="46.15358" lon="6.87328">
        <ele>1207.5999755859</ele>
        <time>2017-10-12T14:54:43.000Z</time>
      </trkpt>
      <trkpt lat="46.15357" lon="6.87328">
        <ele>1208.1999511719</ele>
        <time>2017-10-12T14:54:45.000Z</time>
      </trkpt>
      <trkpt lat="46.15355" lon="6.87329">
        <ele>1209.8000488281</ele>
        <time>2017-10-12T14:54:48.000Z</time>
      </trkpt>
      <trkpt lat="46.15347" lon="6.87331">
        <ele>1217.1999511719</ele>
        <time>2017-10-12T14:54:59.000Z</time>
      </trkpt>
      <trkpt lat="46.15351" lon="6.87326">
        <ele>1212.4000244141</ele>
        <time>2017-10-12T14:55:05.000Z</time>
      </trkpt>
      <trkpt lat="46.15353" lon="6.87323">
        <ele>1210.1999511719</ele>
        <time>2017-10-12T14:55:09.000Z</time>
      </trkpt>
      <trkpt lat="46.15356" lon="6.8732">
        <ele>1205.5999755859</ele>
        <time>2017-10-12T14:55:13.000Z</time>
      </trkpt>
      <trkpt lat="46.15369" lon="6.87315">
        <ele>1191</ele>
        <time>2017-10-12T14:55:28.000Z</time>
      </trkpt>
      <trkpt lat="46.15368" lon="6.87314">
        <ele>1191</ele>
        <time>2017-10-12T14:55:31.000Z</time>
      </trkpt>
      <trkpt lat="46.15367" lon="6.87314">
        <ele>1192.1999511719</ele>
        <time>2017-10-12T14:55:33.000Z</time>
      </trkpt>
      <trkpt lat="46.15365" lon="6.87314">
        <ele>1194.4000244141</ele>
        <time>2017-10-12T14:55:36.000Z</time>
      </trkpt>
      <trkpt lat="46.15361" lon="6.87314">
        <ele>1197.4000244141</ele>
        <time>2017-10-12T14:55:41.000Z</time>
      </trkpt>
      <trkpt lat="46.15359" lon="6.87312">
        <ele>1197.5999755859</ele>
        <time>2017-10-12T14:55:45.000Z</time>
      </trkpt>
      <trkpt lat="46.15357" lon="6.87304">
        <ele>1195</ele>
        <time>2017-10-12T14:55:52.000Z</time>
      </trkpt>
      <trkpt lat="46.15357" lon="6.87304">
        <ele>1194.8000488281</ele>
        <time>2017-10-12T14:55:55.000Z</time>
      </trkpt>
      <trkpt lat="46.15351" lon="6.87281">
        <ele>1184</ele>
        <time>2017-10-12T14:56:15.000Z</time>
      </trkpt>
      <trkpt lat="46.15345" lon="6.87276">
        <ele>1186.4000244141</ele>
        <time>2017-10-12T14:56:20.000Z</time>
      </trkpt>
      <trkpt lat="46.15347" lon="6.87273">
        <ele>1184</ele>
        <time>2017-10-12T14:56:23.000Z</time>
      </trkpt>
      <trkpt lat="46.15355" lon="6.87266">
        <ele>1180.1999511719</ele>
        <time>2017-10-12T14:56:32.000Z</time>
      </trkpt>
      <trkpt lat="46.15355" lon="6.87263">
        <ele>1179.4000244141</ele>
        <time>2017-10-12T14:56:35.000Z</time>
      </trkpt>
      <trkpt lat="46.15354" lon="6.8726">
        <ele>1179.5999755859</ele>
        <time>2017-10-12T14:56:38.000Z</time>
      </trkpt>
      <trkpt lat="46.15351" lon="6.87253">
        <ele>1179.4000244141</ele>
        <time>2017-10-12T14:56:45.000Z</time>
      </trkpt>
      <trkpt lat="46.15355" lon="6.87249">
        <ele>1177.4000244141</ele>
        <time>2017-10-12T14:56:52.000Z</time>
      </trkpt>
      <trkpt lat="46.15358" lon="6.87247">
        <ele>1175.8000488281</ele>
        <time>2017-10-12T14:56:56.000Z</time>
      </trkpt>
      <trkpt lat="46.15374" lon="6.87243">
        <ele>1169</ele>
        <time>2017-10-12T14:57:12.000Z</time>
      </trkpt>
      <trkpt lat="46.15378" lon="6.87241">
        <ele>1167.5999755859</ele>
        <time>2017-10-12T14:57:17.000Z</time>
      </trkpt>
      <trkpt lat="46.15397" lon="6.8724">
        <ele>1160.8000488281</ele>
        <time>2017-10-12T14:57:29.000Z</time>
      </trkpt>
      <trkpt lat="46.15414" lon="6.87233">
        <ele>1158.4000244141</ele>
        <time>2017-10-12T14:57:38.000Z</time>
      </trkpt>
      <trkpt lat="46.1543" lon="6.87223">
        <ele>1156.5999755859</ele>
        <time>2017-10-12T14:57:49.000Z</time>
      </trkpt>
      <trkpt lat="46.15431" lon="6.87224">
        <ele>1156.4000244141</ele>
        <time>2017-10-12T14:57:52.000Z</time>
      </trkpt>
      <trkpt lat="46.15422" lon="6.87201">
        <ele>1159.4000244141</ele>
        <time>2017-10-12T14:58:14.000Z</time>
      </trkpt>
      <trkpt lat="46.15422" lon="6.87187">
        <ele>1160.4000244141</ele>
        <time>2017-10-12T14:58:19.000Z</time>
      </trkpt>
      <trkpt lat="46.15432" lon="6.8717">
        <ele>1157.4000244141</ele>
        <time>2017-10-12T14:58:26.000Z</time>
      </trkpt>
      <trkpt lat="46.15434" lon="6.87157">
        <ele>1156.4000244141</ele>
        <time>2017-10-12T14:58:33.000Z</time>
      </trkpt>
      <trkpt lat="46.15438" lon="6.87149">
        <ele>1157.4000244141</ele>
        <time>2017-10-12T14:58:39.000Z</time>
      </trkpt>
      <trkpt lat="46.15457" lon="6.87141">
        <ele>1154.4000244141</ele>
        <time>2017-10-12T14:58:50.000Z</time>
      </trkpt>
      <trkpt lat="46.15476" lon="6.8713">
        <ele>1151.5999755859</ele>
        <time>2017-10-12T14:59:03.000Z</time>
      </trkpt>
      <trkpt lat="46.15495" lon="6.87124">
        <ele>1149.1999511719</ele>
        <time>2017-10-12T14:59:12.000Z</time>
      </trkpt>
      <trkpt lat="46.15513" lon="6.87117">
        <ele>1147</ele>
        <time>2017-10-12T14:59:21.000Z</time>
      </trkpt>
      <trkpt lat="46.15532" lon="6.87114">
        <ele>1142</ele>
        <time>2017-10-12T14:59:30.000Z</time>
      </trkpt>
      <trkpt lat="46.15549" lon="6.87109">
        <ele>1136.1999511719</ele>
        <time>2017-10-12T14:59:40.000Z</time>
      </trkpt>
      <trkpt lat="46.15568" lon="6.87104">
        <ele>1131.8000488281</ele>
        <time>2017-10-12T14:59:52.000Z</time>
      </trkpt>
      <trkpt lat="46.15586" lon="6.87095">
        <ele>1131</ele>
        <time>2017-10-12T15:00:03.000Z</time>
      </trkpt>
      <trkpt lat="46.15603" lon="6.87085">
        <ele>1126</ele>
        <time>2017-10-12T15:00:14.000Z</time>
      </trkpt>
      <trkpt lat="46.15608" lon="6.8708">
        <ele>1124.4000244141</ele>
        <time>2017-10-12T15:00:18.000Z</time>
      </trkpt>
      <trkpt lat="46.15621" lon="6.87077">
        <ele>1120.8000488281</ele>
        <time>2017-10-12T15:00:27.000Z</time>
      </trkpt>
      <trkpt lat="46.15628" lon="6.87093">
        <ele>1120.5999755859</ele>
        <time>2017-10-12T15:00:37.000Z</time>
      </trkpt>
      <trkpt lat="46.15628" lon="6.87095">
        <ele>1120.8000488281</ele>
        <time>2017-10-12T15:01:10.000Z</time>
      </trkpt>
      <trkpt lat="46.15628" lon="6.87098">
        <ele>1121</ele>
        <time>2017-10-12T15:01:11.000Z</time>
      </trkpt>
      <trkpt lat="46.15625" lon="6.87126">
        <ele>1124</ele>
        <time>2017-10-12T15:01:20.000Z</time>
      </trkpt>
      <trkpt lat="46.15627" lon="6.87152">
        <ele>1123.5999755859</ele>
        <time>2017-10-12T15:01:30.000Z</time>
      </trkpt>
      <trkpt lat="46.15629" lon="6.87158">
        <ele>1123.8000488281</ele>
        <time>2017-10-12T15:01:33.000Z</time>
      </trkpt>
      <trkpt lat="46.15641" lon="6.87178">
        <ele>1130.4000244141</ele>
        <time>2017-10-12T15:01:48.000Z</time>
      </trkpt>
      <trkpt lat="46.15659" lon="6.87181">
        <ele>1132.1999511719</ele>
        <time>2017-10-12T15:02:02.000Z</time>
      </trkpt>
      <trkpt lat="46.15676" lon="6.87171">
        <ele>1129.8000488281</ele>
        <time>2017-10-12T15:02:11.000Z</time>
      </trkpt>
      <trkpt lat="46.15694" lon="6.8716">
        <ele>1127.1999511719</ele>
        <time>2017-10-12T15:02:23.000Z</time>
      </trkpt>
      <trkpt lat="46.15712" lon="6.87154">
        <ele>1126.8000488281</ele>
        <time>2017-10-12T15:02:37.000Z</time>
      </trkpt>
      <trkpt lat="46.15728" lon="6.8717">
        <ele>1133</ele>
        <time>2017-10-12T15:02:50.000Z</time>
      </trkpt>
      <trkpt lat="46.15739" lon="6.87192">
        <ele>1140.8000488281</ele>
        <time>2017-10-12T15:03:01.000Z</time>
      </trkpt>
      <trkpt lat="46.15756" lon="6.87201">
        <ele>1143</ele>
        <time>2017-10-12T15:03:14.000Z</time>
      </trkpt>
      <trkpt lat="46.15775" lon="6.872">
        <ele>1141.1999511719</ele>
        <time>2017-10-12T15:03:29.000Z</time>
      </trkpt>
      <trkpt lat="46.15794" lon="6.87194">
        <ele>1137.4000244141</ele>
        <time>2017-10-12T15:03:43.000Z</time>
      </trkpt>
      <trkpt lat="46.15812" lon="6.87202">
        <ele>1139</ele>
        <time>2017-10-12T15:03:57.000Z</time>
      </trkpt>
      <trkpt lat="46.15828" lon="6.87217">
        <ele>1142.5999755859</ele>
        <time>2017-10-12T15:04:07.000Z</time>
      </trkpt>
      <trkpt lat="46.15844" lon="6.8723">
        <ele>1145.1999511719</ele>
        <time>2017-10-12T15:04:19.000Z</time>
      </trkpt>
      <trkpt lat="46.15863" lon="6.8723">
        <ele>1142.1999511719</ele>
        <time>2017-10-12T15:04:33.000Z</time>
      </trkpt>
      <trkpt lat="46.15882" lon="6.8723">
        <ele>1139.1999511719</ele>
        <time>2017-10-12T15:04:46.000Z</time>
      </trkpt>
      <trkpt lat="46.15901" lon="6.87229">
        <ele>1137.4000244141</ele>
        <time>2017-10-12T15:05:00.000Z</time>
      </trkpt>
      <trkpt lat="46.15919" lon="6.87232">
        <ele>1136.5999755859</ele>
        <time>2017-10-12T15:05:12.000Z</time>
      </trkpt>
      <trkpt lat="46.15939" lon="6.87232">
        <ele>1134.5999755859</ele>
        <time>2017-10-12T15:05:23.000Z</time>
      </trkpt>
      <trkpt lat="46.15958" lon="6.87236">
        <ele>1133.8000488281</ele>
        <time>2017-10-12T15:05:30.000Z</time>
      </trkpt>
      <trkpt lat="46.15976" lon="6.87246">
        <ele>1136.8000488281</ele>
        <time>2017-10-12T15:05:38.000Z</time>
      </trkpt>
      <trkpt lat="46.15992" lon="6.87259">
        <ele>1146</ele>
        <time>2017-10-12T15:05:46.000Z</time>
      </trkpt>
      <trkpt lat="46.16011" lon="6.87269">
        <ele>1154.5999755859</ele>
        <time>2017-10-12T15:05:54.000Z</time>
      </trkpt>
      <trkpt lat="46.16031" lon="6.87271">
        <ele>1158.4000244141</ele>
        <time>2017-10-12T15:06:02.000Z</time>
      </trkpt>
      <trkpt lat="46.1605" lon="6.87265">
        <ele>1157.5999755859</ele>
        <time>2017-10-12T15:06:10.000Z</time>
      </trkpt>
      <trkpt lat="46.16069" lon="6.87259">
        <ele>1157</ele>
        <time>2017-10-12T15:06:18.000Z</time>
      </trkpt>
      <trkpt lat="46.16088" lon="6.87255">
        <ele>1157.4000244141</ele>
        <time>2017-10-12T15:06:26.000Z</time>
      </trkpt>
      <trkpt lat="46.16103" lon="6.87242">
        <ele>1153.4000244141</ele>
        <time>2017-10-12T15:06:34.000Z</time>
      </trkpt>
      <trkpt lat="46.1612" lon="6.87227">
        <ele>1151</ele>
        <time>2017-10-12T15:06:42.000Z</time>
      </trkpt>
      <trkpt lat="46.16136" lon="6.87217">
        <ele>1150</ele>
        <time>2017-10-12T15:06:53.000Z</time>
      </trkpt>
      <trkpt lat="46.16156" lon="6.87209">
        <ele>1151.1999511719</ele>
        <time>2017-10-12T15:07:05.000Z</time>
      </trkpt>
      <trkpt lat="46.16174" lon="6.87197">
        <ele>1151.1999511719</ele>
        <time>2017-10-12T15:07:14.000Z</time>
      </trkpt>
      <trkpt lat="46.16188" lon="6.87179">
        <ele>1147.1999511719</ele>
        <time>2017-10-12T15:07:22.000Z</time>
      </trkpt>
      <trkpt lat="46.16208" lon="6.87173">
        <ele>1148.4000244141</ele>
        <time>2017-10-12T15:07:31.000Z</time>
      </trkpt>
      <trkpt lat="46.16226" lon="6.87162">
        <ele>1147.4000244141</ele>
        <time>2017-10-12T15:07:40.000Z</time>
      </trkpt>
      <trkpt lat="46.16243" lon="6.8715">
        <ele>1147.4000244141</ele>
        <time>2017-10-12T15:07:48.000Z</time>
      </trkpt>
      <trkpt lat="46.16259" lon="6.87137">
        <ele>1148.1999511719</ele>
        <time>2017-10-12T15:07:56.000Z</time>
      </trkpt>
      <trkpt lat="46.16269" lon="6.87116">
        <ele>1145.4000244141</ele>
        <time>2017-10-12T15:08:05.000Z</time>
      </trkpt>
      <trkpt lat="46.16262" lon="6.87092">
        <ele>1133.8000488281</ele>
        <time>2017-10-12T15:08:18.000Z</time>
      </trkpt>
      <trkpt lat="46.16278" lon="6.87082">
        <ele>1129.4000244141</ele>
        <time>2017-10-12T15:08:32.000Z</time>
      </trkpt>
      <trkpt lat="46.16294" lon="6.87068">
        <ele>1124.8000488281</ele>
        <time>2017-10-12T15:08:41.000Z</time>
      </trkpt>
      <trkpt lat="46.1631" lon="6.87054">
        <ele>1120.1999511719</ele>
        <time>2017-10-12T15:08:50.000Z</time>
      </trkpt>
      <trkpt lat="46.16327" lon="6.87041">
        <ele>1115.5999755859</ele>
        <time>2017-10-12T15:08:59.000Z</time>
      </trkpt>
      <trkpt lat="46.16345" lon="6.87029">
        <ele>1111.4000244141</ele>
        <time>2017-10-12T15:09:08.000Z</time>
      </trkpt>
      <trkpt lat="46.16361" lon="6.87016">
        <ele>1107.1999511719</ele>
        <time>2017-10-12T15:09:16.000Z</time>
      </trkpt>
      <trkpt lat="46.16374" lon="6.86996">
        <ele>1101</ele>
        <time>2017-10-12T15:09:24.000Z</time>
      </trkpt>
      <trkpt lat="46.16385" lon="6.86974">
        <ele>1098.1999511719</ele>
        <time>2017-10-12T15:09:31.000Z</time>
      </trkpt>
      <trkpt lat="46.16395" lon="6.86952">
        <ele>1098.5999755859</ele>
        <time>2017-10-12T15:09:38.000Z</time>
      </trkpt>
      <trkpt lat="46.16409" lon="6.86934">
        <ele>1100</ele>
        <time>2017-10-12T15:09:46.000Z</time>
      </trkpt>
      <trkpt lat="46.16421" lon="6.86914">
        <ele>1101.8000488281</ele>
        <time>2017-10-12T15:09:57.000Z</time>
      </trkpt>
      <trkpt lat="46.16429" lon="6.8689">
        <ele>1104.5999755859</ele>
        <time>2017-10-12T15:10:13.000Z</time>
      </trkpt>
      <trkpt lat="46.16433" lon="6.86863">
        <ele>1107.1999511719</ele>
        <time>2017-10-12T15:10:23.000Z</time>
      </trkpt>
      <trkpt lat="46.16438" lon="6.86836">
        <ele>1109.1999511719</ele>
        <time>2017-10-12T15:10:32.000Z</time>
      </trkpt>
      <trkpt lat="46.16448" lon="6.8681">
        <ele>1111.1999511719</ele>
        <time>2017-10-12T15:10:41.000Z</time>
      </trkpt>
      <trkpt lat="46.16462" lon="6.8679">
        <ele>1112.1999511719</ele>
        <time>2017-10-12T15:10:49.000Z</time>
      </trkpt>
      <trkpt lat="46.16471" lon="6.86768">
        <ele>1111.8000488281</ele>
        <time>2017-10-12T15:10:56.000Z</time>
      </trkpt>
      <trkpt lat="46.16477" lon="6.86739">
        <ele>1111</ele>
        <time>2017-10-12T15:11:06.000Z</time>
      </trkpt>
      <trkpt lat="46.16483" lon="6.86712">
        <ele>1109.5999755859</ele>
        <time>2017-10-12T15:11:14.000Z</time>
      </trkpt>
      <trkpt lat="46.16493" lon="6.8669">
        <ele>1109.4000244141</ele>
        <time>2017-10-12T15:11:23.000Z</time>
      </trkpt>
      <trkpt lat="46.16504" lon="6.86666">
        <ele>1106.1999511719</ele>
        <time>2017-10-12T15:11:34.000Z</time>
      </trkpt>
      <trkpt lat="46.16513" lon="6.86641">
        <ele>1105.5999755859</ele>
        <time>2017-10-12T15:11:42.000Z</time>
      </trkpt>
      <trkpt lat="46.16526" lon="6.86621">
        <ele>1107.4000244141</ele>
        <time>2017-10-12T15:11:50.000Z</time>
      </trkpt>
      <trkpt lat="46.16543" lon="6.86607">
        <ele>1099.8000488281</ele>
        <time>2017-10-12T15:11:59.000Z</time>
      </trkpt>
      <trkpt lat="46.16557" lon="6.8659">
        <ele>1092.1999511719</ele>
        <time>2017-10-12T15:12:08.000Z</time>
      </trkpt>
      <trkpt lat="46.16574" lon="6.86579">
        <ele>1087.5999755859</ele>
        <time>2017-10-12T15:12:14.000Z</time>
      </trkpt>
      <trkpt lat="46.16589" lon="6.86564">
        <ele>1082.5999755859</ele>
        <time>2017-10-12T15:12:21.000Z</time>
      </trkpt>
      <trkpt lat="46.16606" lon="6.86552">
        <ele>1078.8000488281</ele>
        <time>2017-10-12T15:12:30.000Z</time>
      </trkpt>
      <trkpt lat="46.16621" lon="6.86539">
        <ele>1074.4000244141</ele>
        <time>2017-10-12T15:12:40.000Z</time>
      </trkpt>
      <trkpt lat="46.16639" lon="6.8655">
        <ele>1071.8000488281</ele>
        <time>2017-10-12T15:12:49.000Z</time>
      </trkpt>
      <trkpt lat="46.16648" lon="6.86533">
        <ele>1066.5999755859</ele>
        <time>2017-10-12T15:13:00.000Z</time>
      </trkpt>
      <trkpt lat="46.16651" lon="6.86507">
        <ele>1061.4000244141</ele>
        <time>2017-10-12T15:13:10.000Z</time>
      </trkpt>
      <trkpt lat="46.16656" lon="6.86478">
        <ele>1057.4000244141</ele>
        <time>2017-10-12T15:13:18.000Z</time>
      </trkpt>
      <trkpt lat="46.16664" lon="6.86452">
        <ele>1054.5999755859</ele>
        <time>2017-10-12T15:13:26.000Z</time>
      </trkpt>
      <trkpt lat="46.16675" lon="6.86431">
        <ele>1051.5999755859</ele>
        <time>2017-10-12T15:13:34.000Z</time>
      </trkpt>
      <trkpt lat="46.1669" lon="6.86415">
        <ele>1049.5999755859</ele>
        <time>2017-10-12T15:13:43.000Z</time>
      </trkpt>
      <trkpt lat="46.16709" lon="6.8641">
        <ele>1045.8000488281</ele>
        <time>2017-10-12T15:13:51.000Z</time>
      </trkpt>
      <trkpt lat="46.16728" lon="6.86413">
        <ele>1041.4000244141</ele>
        <time>2017-10-12T15:13:59.000Z</time>
      </trkpt>
      <trkpt lat="46.16745" lon="6.86415">
        <ele>1037.4000244141</ele>
        <time>2017-10-12T15:14:08.000Z</time>
      </trkpt>
      <trkpt lat="46.1675" lon="6.86408">
        <ele>1036.4000244141</ele>
        <time>2017-10-12T15:14:12.000Z</time>
      </trkpt>
      <trkpt lat="46.16743" lon="6.86384">
        <ele>1036.4000244141</ele>
        <time>2017-10-12T15:14:22.000Z</time>
      </trkpt>
      <trkpt lat="46.16735" lon="6.8636">
        <ele>1036.4000244141</ele>
        <time>2017-10-12T15:14:31.000Z</time>
      </trkpt>
      <trkpt lat="46.16733" lon="6.86332">
        <ele>1034.4000244141</ele>
        <time>2017-10-12T15:14:42.000Z</time>
      </trkpt>
      <trkpt lat="46.16737" lon="6.86322">
        <ele>1033.5999755859</ele>
        <time>2017-10-12T15:14:46.000Z</time>
      </trkpt>
      <trkpt lat="46.1674" lon="6.86323">
        <ele>1033.1999511719</ele>
        <time>2017-10-12T15:14:48.000Z</time>
      </trkpt>
      <trkpt lat="46.16746" lon="6.86348">
        <ele>1032.4000244141</ele>
        <time>2017-10-12T15:14:58.000Z</time>
      </trkpt>
      <trkpt lat="46.16761" lon="6.86365">
        <ele>1030.1999511719</ele>
        <time>2017-10-12T15:15:09.000Z</time>
      </trkpt>
      <trkpt lat="46.16776" lon="6.86379">
        <ele>1027.5999755859</ele>
        <time>2017-10-12T15:15:24.000Z</time>
      </trkpt>
      <trkpt lat="46.16778" lon="6.86379">
        <ele>1027.1999511719</ele>
        <time>2017-10-12T15:15:25.000Z</time>
      </trkpt>
      <trkpt lat="46.16781" lon="6.86378">
        <ele>1026.4000244141</ele>
        <time>2017-10-12T15:15:27.000Z</time>
      </trkpt>
      <trkpt lat="46.16797" lon="6.86363">
        <ele>1024.1999511719</ele>
        <time>2017-10-12T15:15:40.000Z</time>
      </trkpt>
      <trkpt lat="46.1681" lon="6.86346">
        <ele>1022.5999755859</ele>
        <time>2017-10-12T15:15:55.000Z</time>
      </trkpt>
      <trkpt lat="46.16829" lon="6.86341">
        <ele>1023.5999755859</ele>
        <time>2017-10-12T15:16:07.000Z</time>
      </trkpt>
      <trkpt lat="46.16846" lon="6.86351">
        <ele>1026.4000244141</ele>
        <time>2017-10-12T15:16:18.000Z</time>
      </trkpt>
      <trkpt lat="46.16863" lon="6.86361">
        <ele>1028.8000488281</ele>
        <time>2017-10-12T15:16:28.000Z</time>
      </trkpt>
      <trkpt lat="46.16875" lon="6.8638">
        <ele>1027.4000244141</ele>
        <time>2017-10-12T15:16:39.000Z</time>
      </trkpt>
      <trkpt lat="46.16874" lon="6.86382">
        <ele>1026.5999755859</ele>
        <time>2017-10-12T15:16:40.000Z</time>
      </trkpt>
      <trkpt lat="46.16867" lon="6.86392">
        <ele>1024.8000488281</ele>
        <time>2017-10-12T15:16:46.000Z</time>
      </trkpt>
      <trkpt lat="46.16867" lon="6.86395">
        <ele>1024.5999755859</ele>
        <time>2017-10-12T15:16:48.000Z</time>
      </trkpt>
      <trkpt lat="46.16875" lon="6.8642">
        <ele>1024</ele>
        <time>2017-10-12T15:17:02.000Z</time>
      </trkpt>
      <trkpt lat="46.16882" lon="6.86445">
        <ele>1022.799987793</ele>
        <time>2017-10-12T15:17:15.000Z</time>
      </trkpt>
      <trkpt lat="46.16891" lon="6.8647">
        <ele>1022</ele>
        <time>2017-10-12T15:17:27.000Z</time>
      </trkpt>
      <trkpt lat="46.16904" lon="6.8649">
        <ele>1022.5999755859</ele>
        <time>2017-10-12T15:17:39.000Z</time>
      </trkpt>
      <trkpt lat="46.16915" lon="6.8651">
        <ele>1023.200012207</ele>
        <time>2017-10-12T15:17:51.000Z</time>
      </trkpt>
      <trkpt lat="46.16928" lon="6.86529">
        <ele>1024.5999755859</ele>
        <time>2017-10-12T15:18:03.000Z</time>
      </trkpt>
      <trkpt lat="46.16939" lon="6.86551">
        <ele>1025.4000244141</ele>
        <time>2017-10-12T15:18:16.000Z</time>
      </trkpt>
      <trkpt lat="46.16953" lon="6.86569">
        <ele>1026.8000488281</ele>
        <time>2017-10-12T15:18:28.000Z</time>
      </trkpt>
      <trkpt lat="46.16966" lon="6.86589">
        <ele>1026.5999755859</ele>
        <time>2017-10-12T15:18:41.000Z</time>
      </trkpt>
      <trkpt lat="46.16981" lon="6.86607">
        <ele>1026.4000244141</ele>
        <time>2017-10-12T15:18:54.000Z</time>
      </trkpt>
      <trkpt lat="46.16996" lon="6.86625">
        <ele>1026.5999755859</ele>
        <time>2017-10-12T15:19:08.000Z</time>
      </trkpt>
      <trkpt lat="46.1701" lon="6.86642">
        <ele>1026.8000488281</ele>
        <time>2017-10-12T15:19:20.000Z</time>
      </trkpt>
      <trkpt lat="46.17024" lon="6.86659">
        <ele>1026.8000488281</ele>
        <time>2017-10-12T15:19:32.000Z</time>
      </trkpt>
      <trkpt lat="46.17038" lon="6.86676">
        <ele>1026.1999511719</ele>
        <time>2017-10-12T15:19:45.000Z</time>
      </trkpt>
      <trkpt lat="46.17054" lon="6.86692">
        <ele>1026.1999511719</ele>
        <time>2017-10-12T15:19:57.000Z</time>
      </trkpt>
      <trkpt lat="46.17069" lon="6.86708">
        <ele>1025.8000488281</ele>
        <time>2017-10-12T15:20:09.000Z</time>
      </trkpt>
      <trkpt lat="46.17083" lon="6.86724">
        <ele>1025</ele>
        <time>2017-10-12T15:20:21.000Z</time>
      </trkpt>
      <trkpt lat="46.17097" lon="6.86741">
        <ele>1024.1999511719</ele>
        <time>2017-10-12T15:20:33.000Z</time>
      </trkpt>
      <trkpt lat="46.17111" lon="6.86757">
        <ele>1025</ele>
        <time>2017-10-12T15:20:46.000Z</time>
      </trkpt>
      <trkpt lat="46.17124" lon="6.86775">
        <ele>1025.4000244141</ele>
        <time>2017-10-12T15:20:59.000Z</time>
      </trkpt>
      <trkpt lat="46.17137" lon="6.86794">
        <ele>1025.8000488281</ele>
        <time>2017-10-12T15:21:11.000Z</time>
      </trkpt>
      <trkpt lat="46.17151" lon="6.86814">
        <ele>1026.1999511719</ele>
        <time>2017-10-12T15:21:23.000Z</time>
      </trkpt>
      <trkpt lat="46.17164" lon="6.86835">
        <ele>1026.4000244141</ele>
        <time>2017-10-12T15:21:36.000Z</time>
      </trkpt>
      <trkpt lat="46.17178" lon="6.86854">
        <ele>1026.8000488281</ele>
        <time>2017-10-12T15:21:49.000Z</time>
      </trkpt>
      <trkpt lat="46.17193" lon="6.86871">
        <ele>1027.4000244141</ele>
        <time>2017-10-12T15:22:01.000Z</time>
      </trkpt>
      <trkpt lat="46.17208" lon="6.86886">
        <ele>1028</ele>
        <time>2017-10-12T15:22:14.000Z</time>
      </trkpt>
      <trkpt lat="46.17223" lon="6.869">
        <ele>1028.8000488281</ele>
        <time>2017-10-12T15:22:26.000Z</time>
      </trkpt>
      <trkpt lat="46.1724" lon="6.86914">
        <ele>1029.4000244141</ele>
        <time>2017-10-12T15:22:39.000Z</time>
      </trkpt>
      <trkpt lat="46.17257" lon="6.86924">
        <ele>1029.8000488281</ele>
        <time>2017-10-12T15:22:51.000Z</time>
      </trkpt>
      <trkpt lat="46.17274" lon="6.86934">
        <ele>1030.5999755859</ele>
        <time>2017-10-12T15:23:03.000Z</time>
      </trkpt>
      <trkpt lat="46.17292" lon="6.86941">
        <ele>1031.4000244141</ele>
        <time>2017-10-12T15:23:15.000Z</time>
      </trkpt>
      <trkpt lat="46.17309" lon="6.86949">
        <ele>1032.1999511719</ele>
        <time>2017-10-12T15:23:28.000Z</time>
      </trkpt>
      <trkpt lat="46.17328" lon="6.86956">
        <ele>1033.1999511719</ele>
        <time>2017-10-12T15:23:42.000Z</time>
      </trkpt>
      <trkpt lat="46.17345" lon="6.86967">
        <ele>1033.8000488281</ele>
        <time>2017-10-12T15:23:55.000Z</time>
      </trkpt>
      <trkpt lat="46.17363" lon="6.86973">
        <ele>1034.8000488281</ele>
        <time>2017-10-12T15:24:08.000Z</time>
      </trkpt>
      <trkpt lat="46.17381" lon="6.86981">
        <ele>1035.5999755859</ele>
        <time>2017-10-12T15:24:21.000Z</time>
      </trkpt>
      <trkpt lat="46.17399" lon="6.86989">
        <ele>1036.1999511719</ele>
        <time>2017-10-12T15:24:34.000Z</time>
      </trkpt>
      <trkpt lat="46.17417" lon="6.86995">
        <ele>1036.4000244141</ele>
        <time>2017-10-12T15:24:46.000Z</time>
      </trkpt>
      <trkpt lat="46.17436" lon="6.87001">
        <ele>1036.5999755859</ele>
        <time>2017-10-12T15:24:58.000Z</time>
      </trkpt>
      <trkpt lat="46.17453" lon="6.87007">
        <ele>1036.8000488281</ele>
        <time>2017-10-12T15:25:10.000Z</time>
      </trkpt>
      <trkpt lat="46.17471" lon="6.87015">
        <ele>1036.8000488281</ele>
        <time>2017-10-12T15:25:23.000Z</time>
      </trkpt>
      <trkpt lat="46.17484" lon="6.87026">
        <ele>1036.4000244141</ele>
        <time>2017-10-12T15:25:34.000Z</time>
      </trkpt>
      <trkpt lat="46.17496" lon="6.87045">
        <ele>1035.4000244141</ele>
        <time>2017-10-12T15:25:47.000Z</time>
      </trkpt>
      <trkpt lat="46.17513" lon="6.87055">
        <ele>1034.4000244141</ele>
        <time>2017-10-12T15:26:00.000Z</time>
      </trkpt>
      <trkpt lat="46.17518" lon="6.8706">
        <ele>1034</ele>
        <time>2017-10-12T15:26:04.000Z</time>
      </trkpt>
    </trkseg>
  </trk>
</gpx>